<?xml version="1.0" encoding="UTF-8" standalone="no" ?><gpx xmlns="http://www.topografix.com/GPX/1/1" xmlns:gpxx="http://www.garmin.com/xmlschemas/GpxExtensions/v3" xmlns:wptx1="http://www.garmin.com/xmlschemas/WaypointExtension/v1" xmlns:gpxtpx="http://www.garmin.com/xmlschemas/TrackPointExtension/v1" creator="GuideVTT.com" version="1.1" xmlns:xsi="http://www.w3.org/2001/XMLSchema-instance" xsi:schemaLocation="http://www.topografix.com/GPX/1/1 http://www.topografix.com/GPX/1/1/gpx.xsd http://www.garmin.com/xmlschemas/GpxExtensions/v3 http://www8.garmin.com/xmlschemas/GpxExtensionsv3.xsd http://www.garmin.com/xmlschemas/WaypointExtension/v1 http://www8.garmin.com/xmlschemas/WaypointExtensionv1.xsd http://www.garmin.com/xmlschemas/TrackPointExtension/v1 http://www.garmin.com/xmlschemas/TrackPointExtensionv1.xsd">
<metadata><link href="http://www.garmin.com"><text>Garmin International</text></link><time>2013-06-22T15:13:50Z</time></metadata>
<trk><name>rp2015_36.gpx</name><extensions><gpxx:TrackExtension><gpxx:DisplayColor>Cyan</gpxx:DisplayColor></gpxx:TrackExtension></extensions><trkseg>
<trkpt lat="46.78942" lon="6.525"><ele>621.8</ele><time>2015-11-10T10:20:38Z</time></trkpt>
<trkpt lat="46.7894" lon="6.52499"><ele>622.4</ele><time>2015-11-10T10:20:40Z</time></trkpt>
<trkpt lat="46.78945" lon="6.52496"><ele>626.4</ele><time>2015-11-10T10:20:48Z</time></trkpt>
<trkpt lat="46.78945" lon="6.52496"><ele>626.2</ele><time>2015-11-10T10:20:55Z</time></trkpt>
<trkpt lat="46.78947" lon="6.52496"><ele>629.6</ele><time>2015-11-10T10:21:06Z</time></trkpt>
<trkpt lat="46.78945" lon="6.52494"><ele>630.4</ele><time>2015-11-10T10:21:07Z</time></trkpt>
<trkpt lat="46.78945" lon="6.52495"><ele>629.2</ele><time>2015-11-10T10:21:08Z</time></trkpt>
<trkpt lat="46.78945" lon="6.52496"><ele>626.8</ele><time>2015-11-10T10:21:26Z</time></trkpt>
<trkpt lat="46.78946" lon="6.52495"><ele>627</ele><time>2015-11-10T10:21:51Z</time></trkpt>
<trkpt lat="46.78946" lon="6.52496"><ele>627</ele><time>2015-11-10T10:21:53Z</time></trkpt>
<trkpt lat="46.78946" lon="6.52496"><ele>626.4</ele><time>2015-11-10T10:22:22Z</time></trkpt>
<trkpt lat="46.78947" lon="6.52495"><ele>626</ele><time>2015-11-10T10:22:38Z</time></trkpt>
<trkpt lat="46.78949" lon="6.52494"><ele>627.2</ele><time>2015-11-10T10:22:47Z</time></trkpt>
<trkpt lat="46.78953" lon="6.52498"><ele>627.2</ele><time>2015-11-10T10:22:51Z</time></trkpt>
<trkpt lat="46.78949" lon="6.52501"><ele>627.4</ele><time>2015-11-10T10:23:10Z</time></trkpt>
<trkpt lat="46.78949" lon="6.52503"><ele>627</ele><time>2015-11-10T10:23:17Z</time></trkpt>
<trkpt lat="46.78949" lon="6.52505"><ele>626.8</ele><time>2015-11-10T10:23:20Z</time></trkpt>
<trkpt lat="46.78951" lon="6.52507"><ele>626.8</ele><time>2015-11-10T10:23:29Z</time></trkpt>
<trkpt lat="46.7895" lon="6.52507"><ele>626.8</ele><time>2015-11-10T10:23:30Z</time></trkpt>
<trkpt lat="46.7895" lon="6.52507"><ele>626.8</ele><time>2015-11-10T10:23:31Z</time></trkpt>
<trkpt lat="46.7895" lon="6.52507"><ele>626.8</ele><time>2015-11-10T10:23:37Z</time></trkpt>
<trkpt lat="46.78955" lon="6.52499"><ele>627</ele><time>2015-11-10T10:24:04Z</time></trkpt>
<trkpt lat="46.7896" lon="6.52502"><ele>627</ele><time>2015-11-10T10:24:06Z</time></trkpt>
<trkpt lat="46.78963" lon="6.52505"><ele>627</ele><time>2015-11-10T10:24:07Z</time></trkpt>
<trkpt lat="46.78962" lon="6.52514"><ele>627.2</ele><time>2015-11-10T10:24:19Z</time></trkpt>
<trkpt lat="46.78959" lon="6.52513"><ele>627.4</ele><time>2015-11-10T10:24:25Z</time></trkpt>
<trkpt lat="46.78957" lon="6.52511"><ele>627.6</ele><time>2015-11-10T10:24:27Z</time></trkpt>
<trkpt lat="46.78956" lon="6.52508"><ele>627.8</ele><time>2015-11-10T10:24:29Z</time></trkpt>
<trkpt lat="46.78951" lon="6.52506"><ele>628</ele><time>2015-11-10T10:24:33Z</time></trkpt>
<trkpt lat="46.78951" lon="6.52506"><ele>627.8</ele><time>2015-11-10T10:24:35Z</time></trkpt>
<trkpt lat="46.78951" lon="6.52506"><ele>627.8</ele><time>2015-11-10T10:24:37Z</time></trkpt>
<trkpt lat="46.7895" lon="6.52508"><ele>628</ele><time>2015-11-10T10:24:41Z</time></trkpt>
<trkpt lat="46.78952" lon="6.52507"><ele>628.6</ele><time>2015-11-10T10:24:49Z</time></trkpt>
<trkpt lat="46.78952" lon="6.52507"><ele>628.6</ele><time>2015-11-10T10:25:00Z</time></trkpt>
<trkpt lat="46.78953" lon="6.52507"><ele>628.6</ele><time>2015-11-10T10:25:02Z</time></trkpt>
<trkpt lat="46.78957" lon="6.52508"><ele>628.8</ele><time>2015-11-10T10:25:07Z</time></trkpt>
<trkpt lat="46.7896" lon="6.52506"><ele>628.6</ele><time>2015-11-10T10:25:12Z</time></trkpt>
<trkpt lat="46.78961" lon="6.52506"><ele>628.4</ele><time>2015-11-10T10:25:20Z</time></trkpt>
<trkpt lat="46.78961" lon="6.52506"><ele>628.4</ele><time>2015-11-10T10:25:21Z</time></trkpt>
<trkpt lat="46.78962" lon="6.52507"><ele>628.4</ele><time>2015-11-10T10:25:29Z</time></trkpt>
<trkpt lat="46.78965" lon="6.52511"><ele>628.6</ele><time>2015-11-10T10:25:34Z</time></trkpt>
<trkpt lat="46.78966" lon="6.52511"><ele>628.6</ele><time>2015-11-10T10:25:35Z</time></trkpt>
<trkpt lat="46.78966" lon="6.52511"><ele>628.6</ele><time>2015-11-10T10:25:36Z</time></trkpt>
<trkpt lat="46.78965" lon="6.52511"><ele>629.2</ele><time>2015-11-10T10:25:43Z</time></trkpt>
<trkpt lat="46.78965" lon="6.5251"><ele>629</ele><time>2015-11-10T10:26:01Z</time></trkpt>
<trkpt lat="46.78973" lon="6.52497"><ele>629.2</ele><time>2015-11-10T10:26:15Z</time></trkpt>
<trkpt lat="46.78978" lon="6.52492"><ele>629.8</ele><time>2015-11-10T10:26:17Z</time></trkpt>
<trkpt lat="46.78984" lon="6.52485"><ele>631.2</ele><time>2015-11-10T10:26:22Z</time></trkpt>
<trkpt lat="46.78984" lon="6.52482"><ele>631.6</ele><time>2015-11-10T10:26:23Z</time></trkpt>
<trkpt lat="46.78986" lon="6.52476"><ele>632.2</ele><time>2015-11-10T10:26:26Z</time></trkpt>
<trkpt lat="46.78993" lon="6.52451"><ele>632.6</ele><time>2015-11-10T10:26:37Z</time></trkpt>
<trkpt lat="46.79001" lon="6.52425"><ele>633</ele><time>2015-11-10T10:26:48Z</time></trkpt>
<trkpt lat="46.79004" lon="6.52411"><ele>633.4</ele><time>2015-11-10T10:26:54Z</time></trkpt>
<trkpt lat="46.79007" lon="6.52397"><ele>634.2</ele><time>2015-11-10T10:27:00Z</time></trkpt>
<trkpt lat="46.79005" lon="6.52371"><ele>636</ele><time>2015-11-10T10:27:11Z</time></trkpt>
<trkpt lat="46.79005" lon="6.52361"><ele>636.6</ele><time>2015-11-10T10:27:15Z</time></trkpt>
<trkpt lat="46.79005" lon="6.52357"><ele>636.6</ele><time>2015-11-10T10:27:17Z</time></trkpt>
<trkpt lat="46.79005" lon="6.52347"><ele>637.2</ele><time>2015-11-10T10:27:21Z</time></trkpt>
<trkpt lat="46.79005" lon="6.52345"><ele>637.6</ele><time>2015-11-10T10:27:22Z</time></trkpt>
<trkpt lat="46.79005" lon="6.52333"><ele>638.8</ele><time>2015-11-10T10:27:28Z</time></trkpt>
<trkpt lat="46.79006" lon="6.52324"><ele>639.8</ele><time>2015-11-10T10:27:32Z</time></trkpt>
<trkpt lat="46.79009" lon="6.52311"><ele>641.4</ele><time>2015-11-10T10:27:38Z</time></trkpt>
<trkpt lat="46.79017" lon="6.52298"><ele>642.8</ele><time>2015-11-10T10:27:45Z</time></trkpt>
<trkpt lat="46.79029" lon="6.52282"><ele>644.2</ele><time>2015-11-10T10:27:55Z</time></trkpt>
<trkpt lat="46.79034" lon="6.52273"><ele>644.8</ele><time>2015-11-10T10:28:00Z</time></trkpt>
<trkpt lat="46.79036" lon="6.52272"><ele>645</ele><time>2015-11-10T10:28:01Z</time></trkpt>
<trkpt lat="46.79037" lon="6.5227"><ele>645</ele><time>2015-11-10T10:28:02Z</time></trkpt>
<trkpt lat="46.79049" lon="6.52251"><ele>646.4</ele><time>2015-11-10T10:28:13Z</time></trkpt>
<trkpt lat="46.79051" lon="6.52247"><ele>646.6</ele><time>2015-11-10T10:28:15Z</time></trkpt>
<trkpt lat="46.79056" lon="6.52238"><ele>647.6</ele><time>2015-11-10T10:28:20Z</time></trkpt>
<trkpt lat="46.79065" lon="6.52224"><ele>648.8</ele><time>2015-11-10T10:28:27Z</time></trkpt>
<trkpt lat="46.79071" lon="6.52216"><ele>649.4</ele><time>2015-11-10T10:28:32Z</time></trkpt>
<trkpt lat="46.79079" lon="6.52192"><ele>651</ele><time>2015-11-10T10:28:42Z</time></trkpt>
<trkpt lat="46.79087" lon="6.52169"><ele>652.8</ele><time>2015-11-10T10:28:52Z</time></trkpt>
<trkpt lat="46.79089" lon="6.52165"><ele>653.2</ele><time>2015-11-10T10:28:54Z</time></trkpt>
<trkpt lat="46.79093" lon="6.52154"><ele>654</ele><time>2015-11-10T10:28:59Z</time></trkpt>
<trkpt lat="46.79105" lon="6.52132"><ele>656.2</ele><time>2015-11-10T10:29:10Z</time></trkpt>
<trkpt lat="46.7911" lon="6.52119"><ele>657.6</ele><time>2015-11-10T10:29:17Z</time></trkpt>
<trkpt lat="46.79112" lon="6.52114"><ele>658</ele><time>2015-11-10T10:29:19Z</time></trkpt>
<trkpt lat="46.79117" lon="6.52065"><ele>660.4</ele><time>2015-11-10T10:29:41Z</time></trkpt>
<trkpt lat="46.79117" lon="6.52058"><ele>661</ele><time>2015-11-10T10:29:44Z</time></trkpt>
<trkpt lat="46.79118" lon="6.52054"><ele>661.2</ele><time>2015-11-10T10:29:46Z</time></trkpt>
<trkpt lat="46.79118" lon="6.52035"><ele>662.8</ele><time>2015-11-10T10:29:55Z</time></trkpt>
<trkpt lat="46.79119" lon="6.52026"><ele>663.6</ele><time>2015-11-10T10:29:59Z</time></trkpt>
<trkpt lat="46.79121" lon="6.51998"><ele>666</ele><time>2015-11-10T10:30:12Z</time></trkpt>
<trkpt lat="46.79123" lon="6.51971"><ele>668.4</ele><time>2015-11-10T10:30:24Z</time></trkpt>
<trkpt lat="46.79123" lon="6.51952"><ele>670.2</ele><time>2015-11-10T10:30:33Z</time></trkpt>
<trkpt lat="46.79124" lon="6.51925"><ele>672.8</ele><time>2015-11-10T10:30:46Z</time></trkpt>
<trkpt lat="46.79127" lon="6.51903"><ele>674.6</ele><time>2015-11-10T10:30:57Z</time></trkpt>
<trkpt lat="46.7913" lon="6.51893"><ele>675.6</ele><time>2015-11-10T10:31:02Z</time></trkpt>
<trkpt lat="46.79132" lon="6.51888"><ele>676.4</ele><time>2015-11-10T10:31:05Z</time></trkpt>
<trkpt lat="46.79148" lon="6.51873"><ele>679</ele><time>2015-11-10T10:31:18Z</time></trkpt>
<trkpt lat="46.79156" lon="6.51868"><ele>680</ele><time>2015-11-10T10:31:24Z</time></trkpt>
<trkpt lat="46.79161" lon="6.51866"><ele>680.8</ele><time>2015-11-10T10:31:28Z</time></trkpt>
<trkpt lat="46.79162" lon="6.51866"><ele>680.8</ele><time>2015-11-10T10:31:29Z</time></trkpt>
<trkpt lat="46.79166" lon="6.51863"><ele>681.6</ele><time>2015-11-10T10:31:34Z</time></trkpt>
<trkpt lat="46.79171" lon="6.51864"><ele>681.4</ele><time>2015-11-10T10:31:38Z</time></trkpt>
<trkpt lat="46.79181" lon="6.51873"><ele>681.8</ele><time>2015-11-10T10:31:47Z</time></trkpt>
<trkpt lat="46.79198" lon="6.51885"><ele>683</ele><time>2015-11-10T10:32:01Z</time></trkpt>
<trkpt lat="46.7921" lon="6.51891"><ele>684.6</ele><time>2015-11-10T10:32:09Z</time></trkpt>
<trkpt lat="46.79222" lon="6.51897"><ele>686.2</ele><time>2015-11-10T10:32:18Z</time></trkpt>
<trkpt lat="46.79227" lon="6.51898"><ele>686.8</ele><time>2015-11-10T10:32:22Z</time></trkpt>
<trkpt lat="46.79232" lon="6.51899"><ele>687.4</ele><time>2015-11-10T10:32:25Z</time></trkpt>
<trkpt lat="46.79244" lon="6.51902"><ele>689</ele><time>2015-11-10T10:32:34Z</time></trkpt>
<trkpt lat="46.79256" lon="6.51902"><ele>690.4</ele><time>2015-11-10T10:32:42Z</time></trkpt>
<trkpt lat="46.79274" lon="6.51902"><ele>693.2</ele><time>2015-11-10T10:32:55Z</time></trkpt>
<trkpt lat="46.79283" lon="6.51901"><ele>694.2</ele><time>2015-11-10T10:33:01Z</time></trkpt>
<trkpt lat="46.7929" lon="6.519"><ele>695.2</ele><time>2015-11-10T10:33:06Z</time></trkpt>
<trkpt lat="46.79307" lon="6.51911"><ele>697.2</ele><time>2015-11-10T10:33:19Z</time></trkpt>
<trkpt lat="46.79316" lon="6.51934"><ele>699.4</ele><time>2015-11-10T10:33:31Z</time></trkpt>
<trkpt lat="46.79317" lon="6.51952"><ele>700.4</ele><time>2015-11-10T10:33:39Z</time></trkpt>
<trkpt lat="46.79317" lon="6.51958"><ele>700.8</ele><time>2015-11-10T10:33:42Z</time></trkpt>
<trkpt lat="46.79316" lon="6.51967"><ele>701.4</ele><time>2015-11-10T10:33:46Z</time></trkpt>
<trkpt lat="46.79314" lon="6.51979"><ele>702.4</ele><time>2015-11-10T10:33:52Z</time></trkpt>
<trkpt lat="46.79312" lon="6.51987"><ele>702.8</ele><time>2015-11-10T10:33:56Z</time></trkpt>
<trkpt lat="46.79301" lon="6.52009"><ele>704.4</ele><time>2015-11-10T10:34:09Z</time></trkpt>
<trkpt lat="46.79294" lon="6.52028"><ele>705.2</ele><time>2015-11-10T10:34:19Z</time></trkpt>
<trkpt lat="46.79293" lon="6.52033"><ele>705.6</ele><time>2015-11-10T10:34:22Z</time></trkpt>
<trkpt lat="46.79298" lon="6.52054"><ele>706.6</ele><time>2015-11-10T10:34:35Z</time></trkpt>
<trkpt lat="46.79305" lon="6.52054"><ele>706.8</ele><time>2015-11-10T10:34:41Z</time></trkpt>
<trkpt lat="46.79309" lon="6.52052"><ele>707</ele><time>2015-11-10T10:34:44Z</time></trkpt>
<trkpt lat="46.79313" lon="6.52043"><ele>708.2</ele><time>2015-11-10T10:34:51Z</time></trkpt>
<trkpt lat="46.79316" lon="6.5203"><ele>709</ele><time>2015-11-10T10:34:58Z</time></trkpt>
<trkpt lat="46.79321" lon="6.52004"><ele>711.8</ele><time>2015-11-10T10:35:12Z</time></trkpt>
<trkpt lat="46.79331" lon="6.5198"><ele>713.8</ele><time>2015-11-10T10:35:25Z</time></trkpt>
<trkpt lat="46.79339" lon="6.51962"><ele>715</ele><time>2015-11-10T10:35:36Z</time></trkpt>
<trkpt lat="46.7935" lon="6.51951"><ele>715.8</ele><time>2015-11-10T10:35:45Z</time></trkpt>
<trkpt lat="46.79368" lon="6.51947"><ele>718.2</ele><time>2015-11-10T10:35:59Z</time></trkpt>
<trkpt lat="46.79385" lon="6.51946"><ele>720.2</ele><time>2015-11-10T10:36:12Z</time></trkpt>
<trkpt lat="46.79402" lon="6.51943"><ele>722</ele><time>2015-11-10T10:36:24Z</time></trkpt>
<trkpt lat="46.7942" lon="6.51937"><ele>724.2</ele><time>2015-11-10T10:36:37Z</time></trkpt>
<trkpt lat="46.79427" lon="6.51933"><ele>724.8</ele><time>2015-11-10T10:36:43Z</time></trkpt>
<trkpt lat="46.79434" lon="6.5193"><ele>725.8</ele><time>2015-11-10T10:36:48Z</time></trkpt>
<trkpt lat="46.7945" lon="6.51918"><ele>729.2</ele><time>2015-11-10T10:37:01Z</time></trkpt>
<trkpt lat="46.79461" lon="6.51908"><ele>730.8</ele><time>2015-11-10T10:37:10Z</time></trkpt>
<trkpt lat="46.79471" lon="6.51896"><ele>732.8</ele><time>2015-11-10T10:37:19Z</time></trkpt>
<trkpt lat="46.79483" lon="6.51873"><ele>736.8</ele><time>2015-11-10T10:37:33Z</time></trkpt>
<trkpt lat="46.79489" lon="6.51847"><ele>742</ele><time>2015-11-10T10:37:46Z</time></trkpt>
<trkpt lat="46.79491" lon="6.51841"><ele>743</ele><time>2015-11-10T10:37:49Z</time></trkpt>
<trkpt lat="46.79487" lon="6.51816"><ele>745.2</ele><time>2015-11-10T10:38:04Z</time></trkpt>
<trkpt lat="46.79475" lon="6.51795"><ele>748.4</ele><time>2015-11-10T10:38:17Z</time></trkpt>
<trkpt lat="46.79473" lon="6.51791"><ele>749</ele><time>2015-11-10T10:38:20Z</time></trkpt>
<trkpt lat="46.79473" lon="6.51764"><ele>750.2</ele><time>2015-11-10T10:38:32Z</time></trkpt>
<trkpt lat="46.79474" lon="6.51757"><ele>750</ele><time>2015-11-10T10:38:35Z</time></trkpt>
<trkpt lat="46.79479" lon="6.51731"><ele>749.8</ele><time>2015-11-10T10:38:47Z</time></trkpt>
<trkpt lat="46.79488" lon="6.51705"><ele>750.8</ele><time>2015-11-10T10:39:00Z</time></trkpt>
<trkpt lat="46.79498" lon="6.51695"><ele>751.8</ele><time>2015-11-10T10:39:09Z</time></trkpt>
<trkpt lat="46.79514" lon="6.51706"><ele>754</ele><time>2015-11-10T10:39:22Z</time></trkpt>
<trkpt lat="46.79518" lon="6.51719"><ele>754.6</ele><time>2015-11-10T10:39:29Z</time></trkpt>
<trkpt lat="46.79524" lon="6.51744"><ele>755</ele><time>2015-11-10T10:39:41Z</time></trkpt>
<trkpt lat="46.79532" lon="6.51769"><ele>756.4</ele><time>2015-11-10T10:39:55Z</time></trkpt>
<trkpt lat="46.79535" lon="6.51776"><ele>757.4</ele><time>2015-11-10T10:40:01Z</time></trkpt>
<trkpt lat="46.79538" lon="6.51784"><ele>757.6</ele><time>2015-11-10T10:40:07Z</time></trkpt>
<trkpt lat="46.7954" lon="6.51791"><ele>757.6</ele><time>2015-11-10T10:40:12Z</time></trkpt>
<trkpt lat="46.79542" lon="6.51799"><ele>758</ele><time>2015-11-10T10:40:17Z</time></trkpt>
<trkpt lat="46.79547" lon="6.51814"><ele>759.2</ele><time>2015-11-10T10:40:26Z</time></trkpt>
<trkpt lat="46.79555" lon="6.51837"><ele>761</ele><time>2015-11-10T10:40:40Z</time></trkpt>
<trkpt lat="46.79555" lon="6.51845"><ele>761</ele><time>2015-11-10T10:40:45Z</time></trkpt>
<trkpt lat="46.79555" lon="6.51872"><ele>762.8</ele><time>2015-11-10T10:40:59Z</time></trkpt>
<trkpt lat="46.79555" lon="6.51898"><ele>766.6</ele><time>2015-11-10T10:41:13Z</time></trkpt>
<trkpt lat="46.79554" lon="6.51902"><ele>767</ele><time>2015-11-10T10:41:15Z</time></trkpt>
<trkpt lat="46.79552" lon="6.5191"><ele>768.2</ele><time>2015-11-10T10:41:20Z</time></trkpt>
<trkpt lat="46.79541" lon="6.51933"><ele>768.8</ele><time>2015-11-10T10:41:34Z</time></trkpt>
<trkpt lat="46.7954" lon="6.51935"><ele>768.8</ele><time>2015-11-10T10:41:35Z</time></trkpt>
<trkpt lat="46.79538" lon="6.51945"><ele>769.2</ele><time>2015-11-10T10:41:40Z</time></trkpt>
<trkpt lat="46.79538" lon="6.51953"><ele>769</ele><time>2015-11-10T10:41:44Z</time></trkpt>
<trkpt lat="46.79543" lon="6.51968"><ele>768.8</ele><time>2015-11-10T10:41:52Z</time></trkpt>
<trkpt lat="46.79555" lon="6.51971"><ele>768.4</ele><time>2015-11-10T10:42:02Z</time></trkpt>
<trkpt lat="46.79557" lon="6.51969"><ele>768.4</ele><time>2015-11-10T10:42:05Z</time></trkpt>
<trkpt lat="46.79558" lon="6.51968"><ele>769.4</ele><time>2015-11-10T10:42:20Z</time></trkpt>
<trkpt lat="46.79557" lon="6.51965"><ele>770.8</ele><time>2015-11-10T10:42:37Z</time></trkpt>
<trkpt lat="46.79556" lon="6.51962"><ele>771.4</ele><time>2015-11-10T10:42:43Z</time></trkpt>
<trkpt lat="46.79556" lon="6.51962"><ele>771.4</ele><time>2015-11-10T10:42:45Z</time></trkpt>
<trkpt lat="46.79553" lon="6.51965"><ele>772.6</ele><time>2015-11-10T10:43:05Z</time></trkpt>
<trkpt lat="46.79553" lon="6.51967"><ele>772.6</ele><time>2015-11-10T10:43:12Z</time></trkpt>
<trkpt lat="46.79561" lon="6.51975"><ele>772.8</ele><time>2015-11-10T10:43:57Z</time></trkpt>
<trkpt lat="46.79562" lon="6.51975"><ele>772.8</ele><time>2015-11-10T10:43:58Z</time></trkpt>
<trkpt lat="46.79562" lon="6.51975"><ele>772.8</ele><time>2015-11-10T10:43:59Z</time></trkpt>
<trkpt lat="46.79562" lon="6.51976"><ele>772.8</ele><time>2015-11-10T10:44:00Z</time></trkpt>
<trkpt lat="46.79562" lon="6.51976"><ele>772.8</ele><time>2015-11-10T10:44:01Z</time></trkpt>
<trkpt lat="46.79562" lon="6.51976"><ele>772.8</ele><time>2015-11-10T10:44:02Z</time></trkpt>
<trkpt lat="46.79562" lon="6.51977"><ele>772.8</ele><time>2015-11-10T10:44:11Z</time></trkpt>
<trkpt lat="46.79562" lon="6.51975"><ele>773.6</ele><time>2015-11-10T10:44:29Z</time></trkpt>
<trkpt lat="46.79563" lon="6.51973"><ele>773.8</ele><time>2015-11-10T10:44:37Z</time></trkpt>
<trkpt lat="46.79562" lon="6.51973"><ele>773.8</ele><time>2015-11-10T10:44:48Z</time></trkpt>
<trkpt lat="46.79557" lon="6.51964"><ele>773.6</ele><time>2015-11-10T10:45:24Z</time></trkpt>
<trkpt lat="46.79557" lon="6.51962"><ele>773.8</ele><time>2015-11-10T10:45:27Z</time></trkpt>
<trkpt lat="46.79557" lon="6.51961"><ele>773.8</ele><time>2015-11-10T10:45:32Z</time></trkpt>
<trkpt lat="46.79556" lon="6.5196"><ele>774</ele><time>2015-11-10T10:45:34Z</time></trkpt>
<trkpt lat="46.79555" lon="6.51959"><ele>774.4</ele><time>2015-11-10T10:45:45Z</time></trkpt>
<trkpt lat="46.79566" lon="6.51937"><ele>775.2</ele><time>2015-11-10T10:46:02Z</time></trkpt>
<trkpt lat="46.79572" lon="6.51913"><ele>777</ele><time>2015-11-10T10:46:15Z</time></trkpt>
<trkpt lat="46.79574" lon="6.51908"><ele>777.4</ele><time>2015-11-10T10:46:18Z</time></trkpt>
<trkpt lat="46.79575" lon="6.519"><ele>778.2</ele><time>2015-11-10T10:46:22Z</time></trkpt>
<trkpt lat="46.79585" lon="6.51878"><ele>779</ele><time>2015-11-10T10:46:35Z</time></trkpt>
<trkpt lat="46.79588" lon="6.51873"><ele>779.4</ele><time>2015-11-10T10:46:38Z</time></trkpt>
<trkpt lat="46.79596" lon="6.51853"><ele>780.8</ele><time>2015-11-10T10:46:50Z</time></trkpt>
<trkpt lat="46.79604" lon="6.51841"><ele>782.2</ele><time>2015-11-10T10:46:59Z</time></trkpt>
<trkpt lat="46.79615" lon="6.51819"><ele>784.4</ele><time>2015-11-10T10:47:13Z</time></trkpt>
<trkpt lat="46.7962" lon="6.51802"><ele>786.2</ele><time>2015-11-10T10:47:23Z</time></trkpt>
<trkpt lat="46.79622" lon="6.51799"><ele>786.4</ele><time>2015-11-10T10:47:25Z</time></trkpt>
<trkpt lat="46.79626" lon="6.51777"><ele>789.2</ele><time>2015-11-10T10:47:37Z</time></trkpt>
<trkpt lat="46.79627" lon="6.51768"><ele>790.4</ele><time>2015-11-10T10:47:41Z</time></trkpt>
<trkpt lat="46.79629" lon="6.5176"><ele>791.4</ele><time>2015-11-10T10:47:45Z</time></trkpt>
<trkpt lat="46.79632" lon="6.51734"><ele>795.8</ele><time>2015-11-10T10:47:59Z</time></trkpt>
<trkpt lat="46.79632" lon="6.51706"><ele>798.8</ele><time>2015-11-10T10:48:13Z</time></trkpt>
<trkpt lat="46.79635" lon="6.51679"><ele>801</ele><time>2015-11-10T10:48:26Z</time></trkpt>
<trkpt lat="46.79639" lon="6.51652"><ele>802.8</ele><time>2015-11-10T10:48:39Z</time></trkpt>
<trkpt lat="46.79643" lon="6.51624"><ele>803</ele><time>2015-11-10T10:48:53Z</time></trkpt>
<trkpt lat="46.79643" lon="6.51623"><ele>803.2</ele><time>2015-11-10T10:48:54Z</time></trkpt>
<trkpt lat="46.79646" lon="6.51602"><ele>804.4</ele><time>2015-11-10T10:49:05Z</time></trkpt>
<trkpt lat="46.7965" lon="6.51575"><ele>805.4</ele><time>2015-11-10T10:49:19Z</time></trkpt>
<trkpt lat="46.79652" lon="6.5156"><ele>805.8</ele><time>2015-11-10T10:49:27Z</time></trkpt>
<trkpt lat="46.79657" lon="6.51533"><ele>806.6</ele><time>2015-11-10T10:49:41Z</time></trkpt>
<trkpt lat="46.7966" lon="6.5152"><ele>807.8</ele><time>2015-11-10T10:49:48Z</time></trkpt>
<trkpt lat="46.7967" lon="6.51498"><ele>810.4</ele><time>2015-11-10T10:50:02Z</time></trkpt>
<trkpt lat="46.79673" lon="6.51491"><ele>811.2</ele><time>2015-11-10T10:50:06Z</time></trkpt>
<trkpt lat="46.79683" lon="6.51472"><ele>813.4</ele><time>2015-11-10T10:50:20Z</time></trkpt>
<trkpt lat="46.79694" lon="6.51456"><ele>816.8</ele><time>2015-11-10T10:50:33Z</time></trkpt>
<trkpt lat="46.79704" lon="6.51448"><ele>819.2</ele><time>2015-11-10T10:50:42Z</time></trkpt>
<trkpt lat="46.79719" lon="6.51433"><ele>823.2</ele><time>2015-11-10T10:50:56Z</time></trkpt>
<trkpt lat="46.79725" lon="6.51418"><ele>825.8</ele><time>2015-11-10T10:51:06Z</time></trkpt>
<trkpt lat="46.79727" lon="6.51411"><ele>827.4</ele><time>2015-11-10T10:51:11Z</time></trkpt>
<trkpt lat="46.79726" lon="6.51408"><ele>828</ele><time>2015-11-10T10:51:13Z</time></trkpt>
<trkpt lat="46.79725" lon="6.51401"><ele>829.4</ele><time>2015-11-10T10:51:17Z</time></trkpt>
<trkpt lat="46.79722" lon="6.51393"><ele>830.8</ele><time>2015-11-10T10:51:22Z</time></trkpt>
<trkpt lat="46.79717" lon="6.51387"><ele>832.4</ele><time>2015-11-10T10:51:27Z</time></trkpt>
<trkpt lat="46.79699" lon="6.51382"><ele>839.6</ele><time>2015-11-10T10:51:44Z</time></trkpt>
<trkpt lat="46.79684" lon="6.51386"><ele>845.4</ele><time>2015-11-10T10:51:56Z</time></trkpt>
<trkpt lat="46.79666" lon="6.51384"><ele>850.2</ele><time>2015-11-10T10:52:07Z</time></trkpt>
<trkpt lat="46.79652" lon="6.5137"><ele>853</ele><time>2015-11-10T10:52:18Z</time></trkpt>
<trkpt lat="46.7965" lon="6.51366"><ele>854.2</ele><time>2015-11-10T10:52:21Z</time></trkpt>
<trkpt lat="46.79649" lon="6.51362"><ele>854.8</ele><time>2015-11-10T10:52:23Z</time></trkpt>
<trkpt lat="46.79644" lon="6.51354"><ele>855.6</ele><time>2015-11-10T10:52:29Z</time></trkpt>
<trkpt lat="46.79631" lon="6.51345"><ele>857.6</ele><time>2015-11-10T10:52:41Z</time></trkpt>
<trkpt lat="46.79621" lon="6.51345"><ele>858.8</ele><time>2015-11-10T10:52:49Z</time></trkpt>
<trkpt lat="46.79603" lon="6.51347"><ele>859.8</ele><time>2015-11-10T10:53:02Z</time></trkpt>
<trkpt lat="46.79588" lon="6.51346"><ele>861.2</ele><time>2015-11-10T10:53:13Z</time></trkpt>
<trkpt lat="46.79579" lon="6.51343"><ele>860.4</ele><time>2015-11-10T10:53:22Z</time></trkpt>
<trkpt lat="46.79577" lon="6.51342"><ele>860</ele><time>2015-11-10T10:53:24Z</time></trkpt>
<trkpt lat="46.79571" lon="6.51339"><ele>858.6</ele><time>2015-11-10T10:53:28Z</time></trkpt>
<trkpt lat="46.79566" lon="6.51334"><ele>856.6</ele><time>2015-11-10T10:53:33Z</time></trkpt>
<trkpt lat="46.79559" lon="6.51326"><ele>853.8</ele><time>2015-11-10T10:53:39Z</time></trkpt>
<trkpt lat="46.79558" lon="6.51324"><ele>853.4</ele><time>2015-11-10T10:53:40Z</time></trkpt>
<trkpt lat="46.79553" lon="6.51315"><ele>852.4</ele><time>2015-11-10T10:53:46Z</time></trkpt>
<trkpt lat="46.79548" lon="6.51306"><ele>852</ele><time>2015-11-10T10:53:52Z</time></trkpt>
<trkpt lat="46.79544" lon="6.51296"><ele>851.6</ele><time>2015-11-10T10:53:58Z</time></trkpt>
<trkpt lat="46.79537" lon="6.51272"><ele>853.6</ele><time>2015-11-10T10:54:13Z</time></trkpt>
<trkpt lat="46.79533" lon="6.51246"><ele>855.6</ele><time>2015-11-10T10:54:28Z</time></trkpt>
<trkpt lat="46.79531" lon="6.51237"><ele>856.2</ele><time>2015-11-10T10:54:33Z</time></trkpt>
<trkpt lat="46.7953" lon="6.51231"><ele>856.8</ele><time>2015-11-10T10:54:37Z</time></trkpt>
<trkpt lat="46.79527" lon="6.51217"><ele>858.6</ele><time>2015-11-10T10:54:46Z</time></trkpt>
<trkpt lat="46.79524" lon="6.51193"><ele>862.2</ele><time>2015-11-10T10:55:00Z</time></trkpt>
<trkpt lat="46.79523" lon="6.51166"><ele>864.6</ele><time>2015-11-10T10:55:14Z</time></trkpt>
<trkpt lat="46.79522" lon="6.51146"><ele>866.6</ele><time>2015-11-10T10:55:25Z</time></trkpt>
<trkpt lat="46.79523" lon="6.51135"><ele>867.8</ele><time>2015-11-10T10:55:31Z</time></trkpt>
<trkpt lat="46.79526" lon="6.51117"><ele>869</ele><time>2015-11-10T10:55:41Z</time></trkpt>
<trkpt lat="46.79533" lon="6.51093"><ele>869.8</ele><time>2015-11-10T10:55:56Z</time></trkpt>
<trkpt lat="46.79537" lon="6.51083"><ele>870.2</ele><time>2015-11-10T10:56:03Z</time></trkpt>
<trkpt lat="46.79544" lon="6.51058"><ele>871.4</ele><time>2015-11-10T10:56:18Z</time></trkpt>
<trkpt lat="46.79552" lon="6.51033"><ele>872.8</ele><time>2015-11-10T10:56:34Z</time></trkpt>
<trkpt lat="46.79551" lon="6.51006"><ele>874.2</ele><time>2015-11-10T10:56:50Z</time></trkpt>
<trkpt lat="46.79544" lon="6.50984"><ele>874.2</ele><time>2015-11-10T10:57:04Z</time></trkpt>
<trkpt lat="46.7954" lon="6.50971"><ele>874.8</ele><time>2015-11-10T10:57:12Z</time></trkpt>
<trkpt lat="46.79537" lon="6.50955"><ele>875.4</ele><time>2015-11-10T10:57:21Z</time></trkpt>
<trkpt lat="46.79531" lon="6.50929"><ele>877.4</ele><time>2015-11-10T10:57:36Z</time></trkpt>
<trkpt lat="46.79528" lon="6.50918"><ele>878.4</ele><time>2015-11-10T10:57:42Z</time></trkpt>
<trkpt lat="46.79522" lon="6.50894"><ele>880</ele><time>2015-11-10T10:57:56Z</time></trkpt>
<trkpt lat="46.79521" lon="6.50891"><ele>880.2</ele><time>2015-11-10T10:57:57Z</time></trkpt>
<trkpt lat="46.7952" lon="6.50888"><ele>880.4</ele><time>2015-11-10T10:57:59Z</time></trkpt>
<trkpt lat="46.79512" lon="6.50871"><ele>882</ele><time>2015-11-10T10:58:09Z</time></trkpt>
<trkpt lat="46.79501" lon="6.50848"><ele>883.2</ele><time>2015-11-10T10:58:23Z</time></trkpt>
<trkpt lat="46.79489" lon="6.50826"><ele>885.4</ele><time>2015-11-10T10:58:37Z</time></trkpt>
<trkpt lat="46.79479" lon="6.50806"><ele>887.4</ele><time>2015-11-10T10:58:50Z</time></trkpt>
<trkpt lat="46.79475" lon="6.50799"><ele>887.8</ele><time>2015-11-10T10:58:54Z</time></trkpt>
<trkpt lat="46.79464" lon="6.50777"><ele>889.6</ele><time>2015-11-10T10:59:08Z</time></trkpt>
<trkpt lat="46.79454" lon="6.50761"><ele>890.6</ele><time>2015-11-10T10:59:19Z</time></trkpt>
<trkpt lat="46.79453" lon="6.50758"><ele>890.8</ele><time>2015-11-10T10:59:21Z</time></trkpt>
<trkpt lat="46.79442" lon="6.5074"><ele>893.2</ele><time>2015-11-10T10:59:34Z</time></trkpt>
<trkpt lat="46.79438" lon="6.5073"><ele>894.4</ele><time>2015-11-10T10:59:40Z</time></trkpt>
<trkpt lat="46.79434" lon="6.50725"><ele>895</ele><time>2015-11-10T10:59:44Z</time></trkpt>
<trkpt lat="46.79432" lon="6.50722"><ele>895.4</ele><time>2015-11-10T10:59:46Z</time></trkpt>
<trkpt lat="46.7943" lon="6.50719"><ele>895.6</ele><time>2015-11-10T10:59:48Z</time></trkpt>
<trkpt lat="46.79418" lon="6.50697"><ele>898.4</ele><time>2015-11-10T11:00:02Z</time></trkpt>
<trkpt lat="46.79407" lon="6.50676"><ele>900.8</ele><time>2015-11-10T11:00:16Z</time></trkpt>
<trkpt lat="46.79406" lon="6.50673"><ele>901</ele><time>2015-11-10T11:00:18Z</time></trkpt>
<trkpt lat="46.79403" lon="6.50663"><ele>901.6</ele><time>2015-11-10T11:00:23Z</time></trkpt>
<trkpt lat="46.794" lon="6.50656"><ele>902.4</ele><time>2015-11-10T11:00:27Z</time></trkpt>
<trkpt lat="46.79394" lon="6.50648"><ele>903.4</ele><time>2015-11-10T11:00:32Z</time></trkpt>
<trkpt lat="46.79384" lon="6.50625"><ele>906.4</ele><time>2015-11-10T11:00:46Z</time></trkpt>
<trkpt lat="46.7938" lon="6.50616"><ele>908.2</ele><time>2015-11-10T11:00:52Z</time></trkpt>
<trkpt lat="46.79371" lon="6.506"><ele>910.2</ele><time>2015-11-10T11:01:02Z</time></trkpt>
<trkpt lat="46.79364" lon="6.5059"><ele>911.4</ele><time>2015-11-10T11:01:09Z</time></trkpt>
<trkpt lat="46.79354" lon="6.50569"><ele>917.4</ele><time>2015-11-10T11:01:22Z</time></trkpt>
<trkpt lat="46.79346" lon="6.5055"><ele>922.6</ele><time>2015-11-10T11:01:34Z</time></trkpt>
<trkpt lat="46.79339" lon="6.50537"><ele>928.2</ele><time>2015-11-10T11:01:44Z</time></trkpt>
<trkpt lat="46.79344" lon="6.50518"><ele>933.2</ele><time>2015-11-10T11:01:53Z</time></trkpt>
<trkpt lat="46.79353" lon="6.50509"><ele>936.8</ele><time>2015-11-10T11:02:01Z</time></trkpt>
<trkpt lat="46.79361" lon="6.50513"><ele>939.6</ele><time>2015-11-10T11:02:07Z</time></trkpt>
<trkpt lat="46.79376" lon="6.50528"><ele>942</ele><time>2015-11-10T11:02:20Z</time></trkpt>
<trkpt lat="46.79381" lon="6.50531"><ele>942.4</ele><time>2015-11-10T11:02:24Z</time></trkpt>
<trkpt lat="46.79396" lon="6.50549"><ele>944.6</ele><time>2015-11-10T11:02:41Z</time></trkpt>
<trkpt lat="46.79403" lon="6.50555"><ele>946</ele><time>2015-11-10T11:02:47Z</time></trkpt>
<trkpt lat="46.79412" lon="6.50558"><ele>948.4</ele><time>2015-11-10T11:02:55Z</time></trkpt>
<trkpt lat="46.79417" lon="6.50561"><ele>949.8</ele><time>2015-11-10T11:03:00Z</time></trkpt>
<trkpt lat="46.7942" lon="6.50565"><ele>950.8</ele><time>2015-11-10T11:03:04Z</time></trkpt>
<trkpt lat="46.79438" lon="6.50577"><ele>954</ele><time>2015-11-10T11:03:18Z</time></trkpt>
<trkpt lat="46.7944" lon="6.50579"><ele>954.4</ele><time>2015-11-10T11:03:20Z</time></trkpt>
<trkpt lat="46.79446" lon="6.50585"><ele>954.6</ele><time>2015-11-10T11:03:24Z</time></trkpt>
<trkpt lat="46.79459" lon="6.50594"><ele>955</ele><time>2015-11-10T11:03:33Z</time></trkpt>
<trkpt lat="46.79466" lon="6.50599"><ele>955.2</ele><time>2015-11-10T11:03:39Z</time></trkpt>
<trkpt lat="46.7947" lon="6.50602"><ele>955.2</ele><time>2015-11-10T11:03:42Z</time></trkpt>
<trkpt lat="46.79482" lon="6.50614"><ele>955.4</ele><time>2015-11-10T11:03:52Z</time></trkpt>
<trkpt lat="46.7949" lon="6.50615"><ele>953.8</ele><time>2015-11-10T11:04:00Z</time></trkpt>
<trkpt lat="46.79491" lon="6.50614"><ele>953.6</ele><time>2015-11-10T11:04:01Z</time></trkpt>
<trkpt lat="46.79484" lon="6.50593"><ele>949.2</ele><time>2015-11-10T11:04:20Z</time></trkpt>
<trkpt lat="46.79477" lon="6.50587"><ele>948</ele><time>2015-11-10T11:04:26Z</time></trkpt>
<trkpt lat="46.79474" lon="6.50584"><ele>948.2</ele><time>2015-11-10T11:04:29Z</time></trkpt>
<trkpt lat="46.7947" lon="6.5058"><ele>948.8</ele><time>2015-11-10T11:04:33Z</time></trkpt>
<trkpt lat="46.79464" lon="6.5057"><ele>949.4</ele><time>2015-11-10T11:04:40Z</time></trkpt>
<trkpt lat="46.79464" lon="6.50567"><ele>948.8</ele><time>2015-11-10T11:04:53Z</time></trkpt>
<trkpt lat="46.79465" lon="6.50567"><ele>948</ele><time>2015-11-10T11:05:08Z</time></trkpt>
<trkpt lat="46.79466" lon="6.50568"><ele>948</ele><time>2015-11-10T11:05:16Z</time></trkpt>
<trkpt lat="46.79466" lon="6.50568"><ele>948.2</ele><time>2015-11-10T11:05:18Z</time></trkpt>
<trkpt lat="46.79467" lon="6.50568"><ele>948.4</ele><time>2015-11-10T11:05:26Z</time></trkpt>
<trkpt lat="46.79466" lon="6.50567"><ele>947.8</ele><time>2015-11-10T11:05:36Z</time></trkpt>
<trkpt lat="46.79467" lon="6.50567"><ele>946.8</ele><time>2015-11-10T11:05:41Z</time></trkpt>
<trkpt lat="46.79467" lon="6.50567"><ele>947.2</ele><time>2015-11-10T11:05:53Z</time></trkpt>
<trkpt lat="46.79468" lon="6.50568"><ele>947.8</ele><time>2015-11-10T11:06:26Z</time></trkpt>
<trkpt lat="46.79469" lon="6.50567"><ele>948.2</ele><time>2015-11-10T11:06:38Z</time></trkpt>
<trkpt lat="46.79459" lon="6.50544"><ele>949.6</ele><time>2015-11-10T11:06:54Z</time></trkpt>
<trkpt lat="46.79451" lon="6.50529"><ele>951.2</ele><time>2015-11-10T11:07:02Z</time></trkpt>
<trkpt lat="46.79451" lon="6.50527"><ele>951.4</ele><time>2015-11-10T11:07:03Z</time></trkpt>
<trkpt lat="46.7944" lon="6.50506"><ele>952.4</ele><time>2015-11-10T11:07:15Z</time></trkpt>
<trkpt lat="46.7943" lon="6.50484"><ele>954.6</ele><time>2015-11-10T11:07:27Z</time></trkpt>
<trkpt lat="46.79422" lon="6.50468"><ele>956.2</ele><time>2015-11-10T11:07:36Z</time></trkpt>
<trkpt lat="46.79411" lon="6.50446"><ele>958.4</ele><time>2015-11-10T11:07:49Z</time></trkpt>
<trkpt lat="46.79401" lon="6.50423"><ele>960.8</ele><time>2015-11-10T11:08:02Z</time></trkpt>
<trkpt lat="46.7939" lon="6.50401"><ele>961.2</ele><time>2015-11-10T11:08:14Z</time></trkpt>
<trkpt lat="46.79379" lon="6.5038"><ele>962.8</ele><time>2015-11-10T11:08:26Z</time></trkpt>
<trkpt lat="46.79367" lon="6.50359"><ele>965.4</ele><time>2015-11-10T11:08:39Z</time></trkpt>
<trkpt lat="46.79357" lon="6.50335"><ele>967.2</ele><time>2015-11-10T11:08:52Z</time></trkpt>
<trkpt lat="46.79353" lon="6.5032"><ele>968</ele><time>2015-11-10T11:09:00Z</time></trkpt>
<trkpt lat="46.79351" lon="6.50294"><ele>970.2</ele><time>2015-11-10T11:09:12Z</time></trkpt>
<trkpt lat="46.79352" lon="6.50267"><ele>973.6</ele><time>2015-11-10T11:09:25Z</time></trkpt>
<trkpt lat="46.79352" lon="6.50239"><ele>976.8</ele><time>2015-11-10T11:09:39Z</time></trkpt>
<trkpt lat="46.79352" lon="6.50229"><ele>978.4</ele><time>2015-11-10T11:09:44Z</time></trkpt>
<trkpt lat="46.79348" lon="6.50216"><ele>980.6</ele><time>2015-11-10T11:09:51Z</time></trkpt>
<trkpt lat="46.79338" lon="6.50204"><ele>983.8</ele><time>2015-11-10T11:10:02Z</time></trkpt>
<trkpt lat="46.79321" lon="6.50192"><ele>987.4</ele><time>2015-11-10T11:10:15Z</time></trkpt>
<trkpt lat="46.79307" lon="6.50179"><ele>993</ele><time>2015-11-10T11:10:26Z</time></trkpt>
<trkpt lat="46.79293" lon="6.5016"><ele>997.4</ele><time>2015-11-10T11:10:39Z</time></trkpt>
<trkpt lat="46.79279" lon="6.50143"><ele>1001.8</ele><time>2015-11-10T11:10:52Z</time></trkpt>
<trkpt lat="46.7927" lon="6.50135"><ele>1004.4</ele><time>2015-11-10T11:11:00Z</time></trkpt>
<trkpt lat="46.79264" lon="6.50131"><ele>1006.8</ele><time>2015-11-10T11:11:05Z</time></trkpt>
<trkpt lat="46.79252" lon="6.50124"><ele>1010</ele><time>2015-11-10T11:11:14Z</time></trkpt>
<trkpt lat="46.79237" lon="6.50109"><ele>1009.4</ele><time>2015-11-10T11:11:25Z</time></trkpt>
<trkpt lat="46.79221" lon="6.50092"><ele>1006.4</ele><time>2015-11-10T11:11:38Z</time></trkpt>
<trkpt lat="46.79214" lon="6.50089"><ele>1005.2</ele><time>2015-11-10T11:11:43Z</time></trkpt>
<trkpt lat="46.79196" lon="6.50085"><ele>1004</ele><time>2015-11-10T11:11:57Z</time></trkpt>
<trkpt lat="46.79189" lon="6.50085"><ele>1003.4</ele><time>2015-11-10T11:12:02Z</time></trkpt>
<trkpt lat="46.79171" lon="6.50075"><ele>1002.8</ele><time>2015-11-10T11:12:15Z</time></trkpt>
<trkpt lat="46.79164" lon="6.50071"><ele>1002.6</ele><time>2015-11-10T11:12:20Z</time></trkpt>
<trkpt lat="46.7915" lon="6.50054"><ele>1003.2</ele><time>2015-11-10T11:12:32Z</time></trkpt>
<trkpt lat="46.79138" lon="6.50033"><ele>1004.6</ele><time>2015-11-10T11:12:45Z</time></trkpt>
<trkpt lat="46.79132" lon="6.50006"><ele>1006.4</ele><time>2015-11-10T11:12:58Z</time></trkpt>
<trkpt lat="46.79139" lon="6.49983"><ele>1008.6</ele><time>2015-11-10T11:13:10Z</time></trkpt>
<trkpt lat="46.79151" lon="6.49963"><ele>1010.6</ele><time>2015-11-10T11:13:23Z</time></trkpt>
<trkpt lat="46.79153" lon="6.49959"><ele>1010.8</ele><time>2015-11-10T11:13:26Z</time></trkpt>
<trkpt lat="46.79153" lon="6.49934"><ele>1012</ele><time>2015-11-10T11:13:41Z</time></trkpt>
<trkpt lat="46.79152" lon="6.49932"><ele>1012.2</ele><time>2015-11-10T11:13:42Z</time></trkpt>
<trkpt lat="46.79145" lon="6.49923"><ele>1012.8</ele><time>2015-11-10T11:13:49Z</time></trkpt>
<trkpt lat="46.79132" lon="6.49903"><ele>1013.8</ele><time>2015-11-10T11:14:02Z</time></trkpt>
<trkpt lat="46.79119" lon="6.49883"><ele>1015.8</ele><time>2015-11-10T11:14:15Z</time></trkpt>
<trkpt lat="46.79109" lon="6.49861"><ele>1018</ele><time>2015-11-10T11:14:27Z</time></trkpt>
<trkpt lat="46.79101" lon="6.49837"><ele>1020.2</ele><time>2015-11-10T11:14:39Z</time></trkpt>
<trkpt lat="46.79096" lon="6.49822"><ele>1021.4</ele><time>2015-11-10T11:14:47Z</time></trkpt>
<trkpt lat="46.79086" lon="6.49798"><ele>1024</ele><time>2015-11-10T11:15:00Z</time></trkpt>
<trkpt lat="46.79076" lon="6.49779"><ele>1026.2</ele><time>2015-11-10T11:15:12Z</time></trkpt>
<trkpt lat="46.79064" lon="6.49757"><ele>1027.8</ele><time>2015-11-10T11:15:25Z</time></trkpt>
<trkpt lat="46.79049" lon="6.4974"><ele>1029.8</ele><time>2015-11-10T11:15:37Z</time></trkpt>
<trkpt lat="46.79045" lon="6.49734"><ele>1030.8</ele><time>2015-11-10T11:15:41Z</time></trkpt>
<trkpt lat="46.79033" lon="6.49712"><ele>1033.4</ele><time>2015-11-10T11:15:54Z</time></trkpt>
<trkpt lat="46.79022" lon="6.49689"><ele>1035.8</ele><time>2015-11-10T11:16:07Z</time></trkpt>
<trkpt lat="46.79011" lon="6.49668"><ele>1038</ele><time>2015-11-10T11:16:20Z</time></trkpt>
<trkpt lat="46.79008" lon="6.49661"><ele>1038</ele><time>2015-11-10T11:16:24Z</time></trkpt>
<trkpt lat="46.79004" lon="6.49653"><ele>1038.6</ele><time>2015-11-10T11:16:29Z</time></trkpt>
<trkpt lat="46.78998" lon="6.49643"><ele>1039.4</ele><time>2015-11-10T11:16:36Z</time></trkpt>
<trkpt lat="46.78994" lon="6.49636"><ele>1040.2</ele><time>2015-11-10T11:16:41Z</time></trkpt>
<trkpt lat="46.78985" lon="6.49625"><ele>1042.4</ele><time>2015-11-10T11:16:50Z</time></trkpt>
<trkpt lat="46.78977" lon="6.49621"><ele>1045</ele><time>2015-11-10T11:16:57Z</time></trkpt>
<trkpt lat="46.7896" lon="6.49611"><ele>1049.4</ele><time>2015-11-10T11:17:11Z</time></trkpt>
<trkpt lat="46.78944" lon="6.49597"><ele>1052.4</ele><time>2015-11-10T11:17:24Z</time></trkpt>
<trkpt lat="46.78934" lon="6.49576"><ele>1054.4</ele><time>2015-11-10T11:17:37Z</time></trkpt>
<trkpt lat="46.78929" lon="6.4955"><ele>1055.6</ele><time>2015-11-10T11:17:50Z</time></trkpt>
<trkpt lat="46.78926" lon="6.49536"><ele>1056.4</ele><time>2015-11-10T11:17:57Z</time></trkpt>
<trkpt lat="46.78919" lon="6.49511"><ele>1058.6</ele><time>2015-11-10T11:18:11Z</time></trkpt>
<trkpt lat="46.78912" lon="6.49485"><ele>1060.2</ele><time>2015-11-10T11:18:25Z</time></trkpt>
<trkpt lat="46.78906" lon="6.4946"><ele>1063</ele><time>2015-11-10T11:18:39Z</time></trkpt>
<trkpt lat="46.78899" lon="6.49434"><ele>1065.4</ele><time>2015-11-10T11:18:53Z</time></trkpt>
<trkpt lat="46.78891" lon="6.49409"><ele>1067</ele><time>2015-11-10T11:19:06Z</time></trkpt>
<trkpt lat="46.78883" lon="6.49385"><ele>1068.6</ele><time>2015-11-10T11:19:19Z</time></trkpt>
<trkpt lat="46.78876" lon="6.49367"><ele>1070.2</ele><time>2015-11-10T11:19:30Z</time></trkpt>
<trkpt lat="46.78868" lon="6.49343"><ele>1071.6</ele><time>2015-11-10T11:19:44Z</time></trkpt>
<trkpt lat="46.7886" lon="6.4932"><ele>1073.6</ele><time>2015-11-10T11:19:58Z</time></trkpt>
<trkpt lat="46.78858" lon="6.49315"><ele>1073.8</ele><time>2015-11-10T11:20:01Z</time></trkpt>
<trkpt lat="46.78849" lon="6.49293"><ele>1076.2</ele><time>2015-11-10T11:20:15Z</time></trkpt>
<trkpt lat="46.78836" lon="6.49272"><ele>1078.2</ele><time>2015-11-10T11:20:30Z</time></trkpt>
<trkpt lat="46.78825" lon="6.49251"><ele>1080.2</ele><time>2015-11-10T11:20:44Z</time></trkpt>
<trkpt lat="46.78815" lon="6.49229"><ele>1082.8</ele><time>2015-11-10T11:20:58Z</time></trkpt>
<trkpt lat="46.78804" lon="6.49206"><ele>1086</ele><time>2015-11-10T11:21:13Z</time></trkpt>
<trkpt lat="46.78794" lon="6.49183"><ele>1088.2</ele><time>2015-11-10T11:21:27Z</time></trkpt>
<trkpt lat="46.78787" lon="6.49167"><ele>1089.8</ele><time>2015-11-10T11:21:37Z</time></trkpt>
<trkpt lat="46.78782" lon="6.49156"><ele>1091</ele><time>2015-11-10T11:21:44Z</time></trkpt>
<trkpt lat="46.78777" lon="6.49146"><ele>1091.8</ele><time>2015-11-10T11:21:50Z</time></trkpt>
<trkpt lat="46.78766" lon="6.49126"><ele>1093.6</ele><time>2015-11-10T11:22:04Z</time></trkpt>
<trkpt lat="46.78754" lon="6.49105"><ele>1096.4</ele><time>2015-11-10T11:22:19Z</time></trkpt>
<trkpt lat="46.7874" lon="6.49085"><ele>1097.2</ele><time>2015-11-10T11:22:34Z</time></trkpt>
<trkpt lat="46.78737" lon="6.4908"><ele>1097.8</ele><time>2015-11-10T11:22:38Z</time></trkpt>
<trkpt lat="46.78723" lon="6.4906"><ele>1099.6</ele><time>2015-11-10T11:22:53Z</time></trkpt>
<trkpt lat="46.78719" lon="6.49052"><ele>1100</ele><time>2015-11-10T11:22:58Z</time></trkpt>
<trkpt lat="46.78712" lon="6.49038"><ele>1100.8</ele><time>2015-11-10T11:23:07Z</time></trkpt>
<trkpt lat="46.78705" lon="6.49011"><ele>1103.6</ele><time>2015-11-10T11:23:21Z</time></trkpt>
<trkpt lat="46.78703" lon="6.49002"><ele>1104.4</ele><time>2015-11-10T11:23:26Z</time></trkpt>
<trkpt lat="46.78699" lon="6.48983"><ele>1106.8</ele><time>2015-11-10T11:23:36Z</time></trkpt>
<trkpt lat="46.78698" lon="6.48982"><ele>1107.2</ele><time>2015-11-10T11:23:37Z</time></trkpt>
<trkpt lat="46.78693" lon="6.48965"><ele>1109</ele><time>2015-11-10T11:23:47Z</time></trkpt>
<trkpt lat="46.78693" lon="6.48964"><ele>1109.2</ele><time>2015-11-10T11:23:48Z</time></trkpt>
<trkpt lat="46.78683" lon="6.4894"><ele>1110.4</ele><time>2015-11-10T11:24:04Z</time></trkpt>
<trkpt lat="46.78679" lon="6.4893"><ele>1111.4</ele><time>2015-11-10T11:24:11Z</time></trkpt>
<trkpt lat="46.78676" lon="6.48923"><ele>1112.2</ele><time>2015-11-10T11:24:15Z</time></trkpt>
<trkpt lat="46.78669" lon="6.48899"><ele>1116.2</ele><time>2015-11-10T11:24:30Z</time></trkpt>
<trkpt lat="46.78665" lon="6.48884"><ele>1119.6</ele><time>2015-11-10T11:24:39Z</time></trkpt>
<trkpt lat="46.7866" lon="6.48859"><ele>1122</ele><time>2015-11-10T11:24:53Z</time></trkpt>
<trkpt lat="46.78649" lon="6.48837"><ele>1124</ele><time>2015-11-10T11:25:08Z</time></trkpt>
<trkpt lat="46.78644" lon="6.48831"><ele>1124.4</ele><time>2015-11-10T11:25:13Z</time></trkpt>
<trkpt lat="46.78639" lon="6.48824"><ele>1124.8</ele><time>2015-11-10T11:25:18Z</time></trkpt>
<trkpt lat="46.78634" lon="6.48816"><ele>1125.2</ele><time>2015-11-10T11:25:24Z</time></trkpt>
<trkpt lat="46.78622" lon="6.48795"><ele>1127.2</ele><time>2015-11-10T11:25:38Z</time></trkpt>
<trkpt lat="46.78612" lon="6.48773"><ele>1128.8</ele><time>2015-11-10T11:25:52Z</time></trkpt>
<trkpt lat="46.78601" lon="6.4875"><ele>1131.8</ele><time>2015-11-10T11:26:07Z</time></trkpt>
<trkpt lat="46.7859" lon="6.48728"><ele>1134.2</ele><time>2015-11-10T11:26:22Z</time></trkpt>
<trkpt lat="46.78586" lon="6.48717"><ele>1135.2</ele><time>2015-11-10T11:26:29Z</time></trkpt>
<trkpt lat="46.78575" lon="6.48695"><ele>1135.8</ele><time>2015-11-10T11:26:43Z</time></trkpt>
<trkpt lat="46.78569" lon="6.48684"><ele>1136.4</ele><time>2015-11-10T11:26:51Z</time></trkpt>
<trkpt lat="46.78564" lon="6.48673"><ele>1137.8</ele><time>2015-11-10T11:26:58Z</time></trkpt>
<trkpt lat="46.78555" lon="6.48651"><ele>1139.2</ele><time>2015-11-10T11:27:12Z</time></trkpt>
<trkpt lat="46.78546" lon="6.48628"><ele>1140.4</ele><time>2015-11-10T11:27:26Z</time></trkpt>
<trkpt lat="46.7854" lon="6.48609"><ele>1142</ele><time>2015-11-10T11:27:36Z</time></trkpt>
<trkpt lat="46.78533" lon="6.48584"><ele>1144.2</ele><time>2015-11-10T11:27:50Z</time></trkpt>
<trkpt lat="46.78525" lon="6.48561"><ele>1146.6</ele><time>2015-11-10T11:28:04Z</time></trkpt>
<trkpt lat="46.78522" lon="6.48546"><ele>1149</ele><time>2015-11-10T11:28:12Z</time></trkpt>
<trkpt lat="46.78521" lon="6.48543"><ele>1149.6</ele><time>2015-11-10T11:28:14Z</time></trkpt>
<trkpt lat="46.78518" lon="6.48535"><ele>1150.8</ele><time>2015-11-10T11:28:19Z</time></trkpt>
<trkpt lat="46.78517" lon="6.48523"><ele>1151.8</ele><time>2015-11-10T11:28:25Z</time></trkpt>
<trkpt lat="46.78515" lon="6.48513"><ele>1152.8</ele><time>2015-11-10T11:28:30Z</time></trkpt>
<trkpt lat="46.78513" lon="6.48495"><ele>1154</ele><time>2015-11-10T11:28:39Z</time></trkpt>
<trkpt lat="46.78512" lon="6.48491"><ele>1154.2</ele><time>2015-11-10T11:28:41Z</time></trkpt>
<trkpt lat="46.78511" lon="6.48486"><ele>1154.6</ele><time>2015-11-10T11:28:44Z</time></trkpt>
<trkpt lat="46.78508" lon="6.48464"><ele>1156</ele><time>2015-11-10T11:28:56Z</time></trkpt>
<trkpt lat="46.78507" lon="6.48458"><ele>1156.6</ele><time>2015-11-10T11:28:59Z</time></trkpt>
<trkpt lat="46.78506" lon="6.48457"><ele>1156.8</ele><time>2015-11-10T11:29:00Z</time></trkpt>
<trkpt lat="46.78506" lon="6.48453"><ele>1157</ele><time>2015-11-10T11:29:02Z</time></trkpt>
<trkpt lat="46.78502" lon="6.48434"><ele>1158</ele><time>2015-11-10T11:29:12Z</time></trkpt>
<trkpt lat="46.78501" lon="6.48427"><ele>1158.6</ele><time>2015-11-10T11:29:16Z</time></trkpt>
<trkpt lat="46.78499" lon="6.48418"><ele>1159.4</ele><time>2015-11-10T11:29:21Z</time></trkpt>
<trkpt lat="46.78497" lon="6.48409"><ele>1160.4</ele><time>2015-11-10T11:29:26Z</time></trkpt>
<trkpt lat="46.78497" lon="6.48408"><ele>1160.8</ele><time>2015-11-10T11:29:27Z</time></trkpt>
<trkpt lat="46.78497" lon="6.48406"><ele>1160.8</ele><time>2015-11-10T11:29:28Z</time></trkpt>
<trkpt lat="46.78495" lon="6.48396"><ele>1161.8</ele><time>2015-11-10T11:29:33Z</time></trkpt>
<trkpt lat="46.78491" lon="6.48377"><ele>1163.6</ele><time>2015-11-10T11:29:44Z</time></trkpt>
<trkpt lat="46.7849" lon="6.48375"><ele>1163.8</ele><time>2015-11-10T11:29:45Z</time></trkpt>
<trkpt lat="46.7849" lon="6.48373"><ele>1163.8</ele><time>2015-11-10T11:29:46Z</time></trkpt>
<trkpt lat="46.78486" lon="6.48351"><ele>1165.6</ele><time>2015-11-10T11:29:58Z</time></trkpt>
<trkpt lat="46.78479" lon="6.48325"><ele>1168</ele><time>2015-11-10T11:30:13Z</time></trkpt>
<trkpt lat="46.78472" lon="6.48303"><ele>1169.8</ele><time>2015-11-10T11:30:26Z</time></trkpt>
<trkpt lat="46.78465" lon="6.48278"><ele>1171.6</ele><time>2015-11-10T11:30:40Z</time></trkpt>
<trkpt lat="46.78461" lon="6.48262"><ele>1173</ele><time>2015-11-10T11:30:49Z</time></trkpt>
<trkpt lat="46.78454" lon="6.48236"><ele>1175.2</ele><time>2015-11-10T11:31:04Z</time></trkpt>
<trkpt lat="46.78449" lon="6.48216"><ele>1177.4</ele><time>2015-11-10T11:31:16Z</time></trkpt>
<trkpt lat="46.78443" lon="6.48198"><ele>1179.2</ele><time>2015-11-10T11:31:27Z</time></trkpt>
<trkpt lat="46.78438" lon="6.48172"><ele>1181.4</ele><time>2015-11-10T11:31:41Z</time></trkpt>
<trkpt lat="46.78434" lon="6.48146"><ele>1183.6</ele><time>2015-11-10T11:31:55Z</time></trkpt>
<trkpt lat="46.78432" lon="6.48134"><ele>1184.6</ele><time>2015-11-10T11:32:01Z</time></trkpt>
<trkpt lat="46.78429" lon="6.48108"><ele>1187.2</ele><time>2015-11-10T11:32:15Z</time></trkpt>
<trkpt lat="46.78426" lon="6.48081"><ele>1189.2</ele><time>2015-11-10T11:32:30Z</time></trkpt>
<trkpt lat="46.78422" lon="6.48055"><ele>1191</ele><time>2015-11-10T11:32:44Z</time></trkpt>
<trkpt lat="46.78419" lon="6.48029"><ele>1192.6</ele><time>2015-11-10T11:32:59Z</time></trkpt>
<trkpt lat="46.78419" lon="6.48024"><ele>1192.8</ele><time>2015-11-10T11:33:03Z</time></trkpt>
<trkpt lat="46.78417" lon="6.48014"><ele>1193.2</ele><time>2015-11-10T11:33:09Z</time></trkpt>
<trkpt lat="46.78414" lon="6.47987"><ele>1193.8</ele><time>2015-11-10T11:33:22Z</time></trkpt>
<trkpt lat="46.78407" lon="6.47961"><ele>1195.2</ele><time>2015-11-10T11:33:35Z</time></trkpt>
<trkpt lat="46.78404" lon="6.47952"><ele>1196</ele><time>2015-11-10T11:33:40Z</time></trkpt>
<trkpt lat="46.78401" lon="6.4794"><ele>1196.8</ele><time>2015-11-10T11:33:47Z</time></trkpt>
<trkpt lat="46.78395" lon="6.4792"><ele>1199.2</ele><time>2015-11-10T11:33:58Z</time></trkpt>
<trkpt lat="46.78389" lon="6.47895"><ele>1201</ele><time>2015-11-10T11:34:13Z</time></trkpt>
<trkpt lat="46.78382" lon="6.4787"><ele>1202.8</ele><time>2015-11-10T11:34:27Z</time></trkpt>
<trkpt lat="46.78377" lon="6.47855"><ele>1203.4</ele><time>2015-11-10T11:34:36Z</time></trkpt>
<trkpt lat="46.78371" lon="6.47839"><ele>1205.6</ele><time>2015-11-10T11:34:45Z</time></trkpt>
<trkpt lat="46.78365" lon="6.47829"><ele>1207.6</ele><time>2015-11-10T11:34:52Z</time></trkpt>
<trkpt lat="46.78359" lon="6.47821"><ele>1208.2</ele><time>2015-11-10T11:34:58Z</time></trkpt>
<trkpt lat="46.78352" lon="6.47812"><ele>1209</ele><time>2015-11-10T11:35:05Z</time></trkpt>
<trkpt lat="46.78349" lon="6.47808"><ele>1209.6</ele><time>2015-11-10T11:35:09Z</time></trkpt>
<trkpt lat="46.7834" lon="6.47795"><ele>1210.6</ele><time>2015-11-10T11:35:20Z</time></trkpt>
<trkpt lat="46.78327" lon="6.47776"><ele>1212.4</ele><time>2015-11-10T11:35:33Z</time></trkpt>
<trkpt lat="46.7831" lon="6.47764"><ele>1213.6</ele><time>2015-11-10T11:35:46Z</time></trkpt>
<trkpt lat="46.78308" lon="6.47763"><ele>1213.8</ele><time>2015-11-10T11:35:48Z</time></trkpt>
<trkpt lat="46.78294" lon="6.47754"><ele>1214.6</ele><time>2015-11-10T11:35:58Z</time></trkpt>
<trkpt lat="46.78284" lon="6.47734"><ele>1216.4</ele><time>2015-11-10T11:36:10Z</time></trkpt>
<trkpt lat="46.78285" lon="6.4773"><ele>1216.8</ele><time>2015-11-10T11:36:12Z</time></trkpt>
<trkpt lat="46.78303" lon="6.47728"><ele>1219</ele><time>2015-11-10T11:36:27Z</time></trkpt>
<trkpt lat="46.78303" lon="6.47728"><ele>1219</ele><time>2015-11-10T11:36:52Z</time></trkpt>
<trkpt lat="46.78308" lon="6.47732"><ele>1219</ele><time>2015-11-10T11:37:28Z</time></trkpt>
<trkpt lat="46.78308" lon="6.47732"><ele>1219</ele><time>2015-11-10T11:37:30Z</time></trkpt>
<trkpt lat="46.78308" lon="6.47733"><ele>1219.2</ele><time>2015-11-10T11:37:31Z</time></trkpt>
<trkpt lat="46.78308" lon="6.47733"><ele>1219.4</ele><time>2015-11-10T11:37:32Z</time></trkpt>
<trkpt lat="46.78306" lon="6.47733"><ele>1220.2</ele><time>2015-11-10T11:37:40Z</time></trkpt>
<trkpt lat="46.78306" lon="6.4773"><ele>1219</ele><time>2015-11-10T11:37:55Z</time></trkpt>
<trkpt lat="46.78304" lon="6.47731"><ele>1219.4</ele><time>2015-11-10T11:38:11Z</time></trkpt>
<trkpt lat="46.78301" lon="6.47732"><ele>1219.6</ele><time>2015-11-10T11:38:48Z</time></trkpt>
<trkpt lat="46.783" lon="6.47733"><ele>1219.8</ele><time>2015-11-10T11:39:08Z</time></trkpt>
<trkpt lat="46.783" lon="6.47734"><ele>1219.8</ele><time>2015-11-10T11:39:12Z</time></trkpt>
<trkpt lat="46.783" lon="6.47733"><ele>1219.6</ele><time>2015-11-10T11:39:18Z</time></trkpt>
<trkpt lat="46.78301" lon="6.47731"><ele>1219.4</ele><time>2015-11-10T11:39:32Z</time></trkpt>
<trkpt lat="46.78301" lon="6.47731"><ele>1219.2</ele><time>2015-11-10T11:39:38Z</time></trkpt>
<trkpt lat="46.783" lon="6.47732"><ele>1219.8</ele><time>2015-11-10T11:39:54Z</time></trkpt>
<trkpt lat="46.78301" lon="6.47732"><ele>1220.6</ele><time>2015-11-10T11:40:24Z</time></trkpt>
<trkpt lat="46.78301" lon="6.47733"><ele>1220.4</ele><time>2015-11-10T11:40:27Z</time></trkpt>
<trkpt lat="46.78302" lon="6.47733"><ele>1220.4</ele><time>2015-11-10T11:40:32Z</time></trkpt>
<trkpt lat="46.78302" lon="6.47733"><ele>1220.4</ele><time>2015-11-10T11:40:36Z</time></trkpt>
<trkpt lat="46.78301" lon="6.47734"><ele>1220.4</ele><time>2015-11-10T11:40:57Z</time></trkpt>
<trkpt lat="46.78301" lon="6.47733"><ele>1220.2</ele><time>2015-11-10T11:41:10Z</time></trkpt>
<trkpt lat="46.78302" lon="6.47733"><ele>1220.2</ele><time>2015-11-10T11:41:22Z</time></trkpt>
<trkpt lat="46.78302" lon="6.47735"><ele>1220.8</ele><time>2015-11-10T11:41:35Z</time></trkpt>
<trkpt lat="46.78302" lon="6.47735"><ele>1220.8</ele><time>2015-11-10T11:41:37Z</time></trkpt>
<trkpt lat="46.78302" lon="6.47735"><ele>1221.2</ele><time>2015-11-10T11:41:46Z</time></trkpt>
<trkpt lat="46.78301" lon="6.47735"><ele>1221.2</ele><time>2015-11-10T11:41:48Z</time></trkpt>
<trkpt lat="46.78301" lon="6.47734"><ele>1221.6</ele><time>2015-11-10T11:42:01Z</time></trkpt>
<trkpt lat="46.78301" lon="6.47735"><ele>1221.8</ele><time>2015-11-10T11:42:18Z</time></trkpt>
<trkpt lat="46.78301" lon="6.47735"><ele>1222</ele><time>2015-11-10T11:42:19Z</time></trkpt>
<trkpt lat="46.78301" lon="6.47735"><ele>1222</ele><time>2015-11-10T11:42:20Z</time></trkpt>
<trkpt lat="46.78318" lon="6.47735"><ele>1225.6</ele><time>2015-11-10T11:42:42Z</time></trkpt>
<trkpt lat="46.78337" lon="6.47736"><ele>1226.6</ele><time>2015-11-10T11:42:55Z</time></trkpt>
<trkpt lat="46.78349" lon="6.47737"><ele>1227</ele><time>2015-11-10T11:43:03Z</time></trkpt>
<trkpt lat="46.78356" lon="6.47738"><ele>1227.4</ele><time>2015-11-10T11:43:08Z</time></trkpt>
<trkpt lat="46.78374" lon="6.47748"><ele>1228.4</ele><time>2015-11-10T11:43:20Z</time></trkpt>
<trkpt lat="46.78387" lon="6.47767"><ele>1230</ele><time>2015-11-10T11:43:32Z</time></trkpt>
<trkpt lat="46.78392" lon="6.47773"><ele>1230.4</ele><time>2015-11-10T11:43:36Z</time></trkpt>
<trkpt lat="46.78399" lon="6.47782"><ele>1231.2</ele><time>2015-11-10T11:43:42Z</time></trkpt>
<trkpt lat="46.78411" lon="6.47803"><ele>1233.2</ele><time>2015-11-10T11:43:54Z</time></trkpt>
<trkpt lat="46.7842" lon="6.4782"><ele>1235</ele><time>2015-11-10T11:44:03Z</time></trkpt>
<trkpt lat="46.78425" lon="6.47827"><ele>1235.8</ele><time>2015-11-10T11:44:07Z</time></trkpt>
<trkpt lat="46.78432" lon="6.47838"><ele>1236</ele><time>2015-11-10T11:44:13Z</time></trkpt>
<trkpt lat="46.78433" lon="6.4784"><ele>1236</ele><time>2015-11-10T11:44:14Z</time></trkpt>
<trkpt lat="46.78434" lon="6.47842"><ele>1236.2</ele><time>2015-11-10T11:44:15Z</time></trkpt>
<trkpt lat="46.78446" lon="6.47862"><ele>1237.6</ele><time>2015-11-10T11:44:24Z</time></trkpt>
<trkpt lat="46.78453" lon="6.4787"><ele>1239.4</ele><time>2015-11-10T11:44:28Z</time></trkpt>
<trkpt lat="46.78465" lon="6.47893"><ele>1240.6</ele><time>2015-11-10T11:44:39Z</time></trkpt>
<trkpt lat="46.78471" lon="6.47909"><ele>1241</ele><time>2015-11-10T11:44:47Z</time></trkpt>
<trkpt lat="46.78472" lon="6.47911"><ele>1241</ele><time>2015-11-10T11:44:48Z</time></trkpt>
<trkpt lat="46.78482" lon="6.47935"><ele>1242.4</ele><time>2015-11-10T11:45:00Z</time></trkpt>
<trkpt lat="46.78492" lon="6.47957"><ele>1244.4</ele><time>2015-11-10T11:45:11Z</time></trkpt>
<trkpt lat="46.78502" lon="6.47981"><ele>1246.2</ele><time>2015-11-10T11:45:23Z</time></trkpt>
<trkpt lat="46.78513" lon="6.48002"><ele>1246.8</ele><time>2015-11-10T11:45:34Z</time></trkpt>
<trkpt lat="46.78525" lon="6.48023"><ele>1247.8</ele><time>2015-11-10T11:45:44Z</time></trkpt>
<trkpt lat="46.78531" lon="6.48033"><ele>1248.6</ele><time>2015-11-10T11:45:49Z</time></trkpt>
<trkpt lat="46.78544" lon="6.48052"><ele>1250.2</ele><time>2015-11-10T11:45:59Z</time></trkpt>
<trkpt lat="46.78556" lon="6.48071"><ele>1251.8</ele><time>2015-11-10T11:46:09Z</time></trkpt>
<trkpt lat="46.78571" lon="6.4809"><ele>1252.4</ele><time>2015-11-10T11:46:19Z</time></trkpt>
<trkpt lat="46.78585" lon="6.48108"><ele>1252.8</ele><time>2015-11-10T11:46:27Z</time></trkpt>
<trkpt lat="46.786" lon="6.48127"><ele>1253.6</ele><time>2015-11-10T11:46:35Z</time></trkpt>
<trkpt lat="46.78621" lon="6.48157"><ele>1254.4</ele><time>2015-11-10T11:46:46Z</time></trkpt>
<trkpt lat="46.78632" lon="6.48174"><ele>1255</ele><time>2015-11-10T11:46:52Z</time></trkpt>
<trkpt lat="46.78678" lon="6.48234"><ele>1258.8</ele><time>2015-11-10T11:47:16Z</time></trkpt>
<trkpt lat="46.78691" lon="6.48246"><ele>1259.8</ele><time>2015-11-10T11:47:22Z</time></trkpt>
<trkpt lat="46.78708" lon="6.4826"><ele>1260.4</ele><time>2015-11-10T11:47:30Z</time></trkpt>
<trkpt lat="46.78725" lon="6.48272"><ele>1260.6</ele><time>2015-11-10T11:47:38Z</time></trkpt>
<trkpt lat="46.78744" lon="6.4828"><ele>1260.6</ele><time>2015-11-10T11:47:46Z</time></trkpt>
<trkpt lat="46.78763" lon="6.48288"><ele>1260.2</ele><time>2015-11-10T11:47:54Z</time></trkpt>
<trkpt lat="46.78779" lon="6.48295"><ele>1260</ele><time>2015-11-10T11:48:01Z</time></trkpt>
<trkpt lat="46.78798" lon="6.48302"><ele>1260.4</ele><time>2015-11-10T11:48:09Z</time></trkpt>
<trkpt lat="46.78815" lon="6.48308"><ele>1260.8</ele><time>2015-11-10T11:48:18Z</time></trkpt>
<trkpt lat="46.78818" lon="6.48307"><ele>1261.2</ele><time>2015-11-10T11:48:20Z</time></trkpt>
<trkpt lat="46.78822" lon="6.483"><ele>1261.8</ele><time>2015-11-10T11:48:24Z</time></trkpt>
<trkpt lat="46.78826" lon="6.48287"><ele>1262</ele><time>2015-11-10T11:48:33Z</time></trkpt>
<trkpt lat="46.78828" lon="6.48286"><ele>1262</ele><time>2015-11-10T11:48:35Z</time></trkpt>
<trkpt lat="46.78832" lon="6.48284"><ele>1262.2</ele><time>2015-11-10T11:50:00Z</time></trkpt>
<trkpt lat="46.78831" lon="6.48287"><ele>1262</ele><time>2015-11-10T11:50:11Z</time></trkpt>
<trkpt lat="46.7883" lon="6.48288"><ele>1262.2</ele><time>2015-11-10T11:50:48Z</time></trkpt>
<trkpt lat="46.78834" lon="6.48285"><ele>1261.2</ele><time>2015-11-10T11:51:31Z</time></trkpt>
<trkpt lat="46.78834" lon="6.48284"><ele>1260.8</ele><time>2015-11-10T11:51:47Z</time></trkpt>
<trkpt lat="46.78832" lon="6.48285"><ele>1260.6</ele><time>2015-11-10T11:53:02Z</time></trkpt>
<trkpt lat="46.78832" lon="6.48286"><ele>1260.6</ele><time>2015-11-10T11:53:16Z</time></trkpt>
<trkpt lat="46.78833" lon="6.48285"><ele>1260.6</ele><time>2015-11-10T11:53:21Z</time></trkpt>
<trkpt lat="46.78833" lon="6.48284"><ele>1261</ele><time>2015-11-10T11:53:52Z</time></trkpt>
<trkpt lat="46.78833" lon="6.48281"><ele>1261</ele><time>2015-11-10T11:53:58Z</time></trkpt>
<trkpt lat="46.78833" lon="6.48287"><ele>1261.4</ele><time>2015-11-10T11:54:28Z</time></trkpt>
<trkpt lat="46.78833" lon="6.48287"><ele>1261.4</ele><time>2015-11-10T11:54:30Z</time></trkpt>
<trkpt lat="46.78833" lon="6.48287"><ele>1261.2</ele><time>2015-11-10T11:54:34Z</time></trkpt>
<trkpt lat="46.78834" lon="6.48287"><ele>1260.8</ele><time>2015-11-10T11:54:42Z</time></trkpt>
<trkpt lat="46.78832" lon="6.48285"><ele>1261.4</ele><time>2015-11-10T11:55:30Z</time></trkpt>
<trkpt lat="46.78831" lon="6.4829"><ele>1263</ele><time>2015-11-10T11:55:53Z</time></trkpt>
<trkpt lat="46.78832" lon="6.4829"><ele>1263</ele><time>2015-11-10T11:56:25Z</time></trkpt>
<trkpt lat="46.78833" lon="6.48288"><ele>1263.2</ele><time>2015-11-10T11:56:32Z</time></trkpt>
<trkpt lat="46.78833" lon="6.48286"><ele>1263.2</ele><time>2015-11-10T11:56:49Z</time></trkpt>
<trkpt lat="46.78833" lon="6.48285"><ele>1263.6</ele><time>2015-11-10T11:57:00Z</time></trkpt>
<trkpt lat="46.78831" lon="6.48287"><ele>1263.8</ele><time>2015-11-10T11:57:07Z</time></trkpt>
<trkpt lat="46.78831" lon="6.48286"><ele>1263.8</ele><time>2015-11-10T11:57:24Z</time></trkpt>
<trkpt lat="46.78831" lon="6.48286"><ele>1263.8</ele><time>2015-11-10T11:57:26Z</time></trkpt>
<trkpt lat="46.78831" lon="6.48286"><ele>1263.8</ele><time>2015-11-10T11:57:27Z</time></trkpt>
<trkpt lat="46.78831" lon="6.48285"><ele>1263.8</ele><time>2015-11-10T11:57:28Z</time></trkpt>
<trkpt lat="46.78832" lon="6.48285"><ele>1263.8</ele><time>2015-11-10T11:57:29Z</time></trkpt>
<trkpt lat="46.78832" lon="6.48285"><ele>1263.8</ele><time>2015-11-10T11:57:30Z</time></trkpt>
<trkpt lat="46.78832" lon="6.48285"><ele>1263.8</ele><time>2015-11-10T11:57:32Z</time></trkpt>
<trkpt lat="46.78832" lon="6.48285"><ele>1263.8</ele><time>2015-11-10T11:57:35Z</time></trkpt>
<trkpt lat="46.78832" lon="6.48286"><ele>1264</ele><time>2015-11-10T11:57:44Z</time></trkpt>
<trkpt lat="46.78832" lon="6.48287"><ele>1263.4</ele><time>2015-11-10T11:58:01Z</time></trkpt>
<trkpt lat="46.78832" lon="6.48287"><ele>1262.8</ele><time>2015-11-10T11:58:10Z</time></trkpt>
<trkpt lat="46.78832" lon="6.48286"><ele>1262.8</ele><time>2015-11-10T11:58:11Z</time></trkpt>
<trkpt lat="46.78833" lon="6.48285"><ele>1262</ele><time>2015-11-10T11:58:39Z</time></trkpt>
<trkpt lat="46.78833" lon="6.48286"><ele>1262</ele><time>2015-11-10T11:58:41Z</time></trkpt>
<trkpt lat="46.78833" lon="6.48286"><ele>1262</ele><time>2015-11-10T11:58:42Z</time></trkpt>
<trkpt lat="46.78832" lon="6.48286"><ele>1262</ele><time>2015-11-10T11:58:49Z</time></trkpt>
<trkpt lat="46.78832" lon="6.48286"><ele>1262.2</ele><time>2015-11-10T11:58:54Z</time></trkpt>
<trkpt lat="46.78832" lon="6.48286"><ele>1262</ele><time>2015-11-10T11:59:05Z</time></trkpt>
<trkpt lat="46.78833" lon="6.48286"><ele>1262</ele><time>2015-11-10T11:59:11Z</time></trkpt>
<trkpt lat="46.78832" lon="6.48287"><ele>1262.4</ele><time>2015-11-10T11:59:30Z</time></trkpt>
<trkpt lat="46.78833" lon="6.48285"><ele>1260.8</ele><time>2015-11-10T11:59:48Z</time></trkpt>
<trkpt lat="46.78832" lon="6.48285"><ele>1261</ele><time>2015-11-10T11:59:54Z</time></trkpt>
<trkpt lat="46.78832" lon="6.48285"><ele>1261.2</ele><time>2015-11-10T11:59:56Z</time></trkpt>
<trkpt lat="46.78832" lon="6.48286"><ele>1261.6</ele><time>2015-11-10T12:00:09Z</time></trkpt>
<trkpt lat="46.78832" lon="6.48286"><ele>1261.6</ele><time>2015-11-10T12:00:10Z</time></trkpt>
<trkpt lat="46.78832" lon="6.48287"><ele>1261.2</ele><time>2015-11-10T12:00:22Z</time></trkpt>
<trkpt lat="46.78833" lon="6.48286"><ele>1260.2</ele><time>2015-11-10T12:00:25Z</time></trkpt>
<trkpt lat="46.78832" lon="6.48287"><ele>1260.8</ele><time>2015-11-10T12:00:36Z</time></trkpt>
<trkpt lat="46.78831" lon="6.48287"><ele>1261</ele><time>2015-11-10T12:00:47Z</time></trkpt>
<trkpt lat="46.78831" lon="6.48287"><ele>1260.8</ele><time>2015-11-10T12:00:57Z</time></trkpt>
<trkpt lat="46.78832" lon="6.48287"><ele>1260.8</ele><time>2015-11-10T12:00:58Z</time></trkpt>
<trkpt lat="46.78832" lon="6.48287"><ele>1260.8</ele><time>2015-11-10T12:00:59Z</time></trkpt>
<trkpt lat="46.78832" lon="6.48288"><ele>1260.6</ele><time>2015-11-10T12:01:09Z</time></trkpt>
<trkpt lat="46.78832" lon="6.48288"><ele>1260.4</ele><time>2015-11-10T12:01:14Z</time></trkpt>
<trkpt lat="46.78832" lon="6.48288"><ele>1260.4</ele><time>2015-11-10T12:01:15Z</time></trkpt>
<trkpt lat="46.78832" lon="6.48288"><ele>1260.4</ele><time>2015-11-10T12:01:16Z</time></trkpt>
<trkpt lat="46.78832" lon="6.48288"><ele>1260.4</ele><time>2015-11-10T12:01:19Z</time></trkpt>
<trkpt lat="46.78833" lon="6.48286"><ele>1260.4</ele><time>2015-11-10T12:01:25Z</time></trkpt>
<trkpt lat="46.78832" lon="6.48286"><ele>1260.6</ele><time>2015-11-10T12:01:29Z</time></trkpt>
<trkpt lat="46.78831" lon="6.48289"><ele>1262.6</ele><time>2015-11-10T12:01:45Z</time></trkpt>
<trkpt lat="46.78831" lon="6.48289"><ele>1263</ele><time>2015-11-10T12:01:48Z</time></trkpt>
<trkpt lat="46.78831" lon="6.48289"><ele>1263.2</ele><time>2015-11-10T12:01:50Z</time></trkpt>
<trkpt lat="46.7883" lon="6.48289"><ele>1263.4</ele><time>2015-11-10T12:01:56Z</time></trkpt>
<trkpt lat="46.78831" lon="6.48289"><ele>1262.8</ele><time>2015-11-10T12:02:04Z</time></trkpt>
<trkpt lat="46.78831" lon="6.48289"><ele>1263.2</ele><time>2015-11-10T12:02:09Z</time></trkpt>
<trkpt lat="46.78831" lon="6.48288"><ele>1263.4</ele><time>2015-11-10T12:02:15Z</time></trkpt>
<trkpt lat="46.78831" lon="6.48285"><ele>1262.2</ele><time>2015-11-10T12:02:29Z</time></trkpt>
<trkpt lat="46.78831" lon="6.48285"><ele>1262.8</ele><time>2015-11-10T12:02:48Z</time></trkpt>
<trkpt lat="46.78831" lon="6.48286"><ele>1262.8</ele><time>2015-11-10T12:03:01Z</time></trkpt>
<trkpt lat="46.7883" lon="6.48286"><ele>1263</ele><time>2015-11-10T12:03:06Z</time></trkpt>
<trkpt lat="46.78831" lon="6.48288"><ele>1264.4</ele><time>2015-11-10T12:03:17Z</time></trkpt>
<trkpt lat="46.78832" lon="6.48286"><ele>1263.6</ele><time>2015-11-10T12:03:28Z</time></trkpt>
<trkpt lat="46.78832" lon="6.48287"><ele>1263.6</ele><time>2015-11-10T12:03:29Z</time></trkpt>
<trkpt lat="46.78832" lon="6.48287"><ele>1263.2</ele><time>2015-11-10T12:03:32Z</time></trkpt>
<trkpt lat="46.78834" lon="6.48284"><ele>1261.8</ele><time>2015-11-10T12:03:37Z</time></trkpt>
<trkpt lat="46.78834" lon="6.48279"><ele>1257.6</ele><time>2015-11-10T12:03:52Z</time></trkpt>
<trkpt lat="46.78834" lon="6.48279"><ele>1257.4</ele><time>2015-11-10T12:03:55Z</time></trkpt>
<trkpt lat="46.78834" lon="6.4828"><ele>1257.4</ele><time>2015-11-10T12:03:57Z</time></trkpt>
<trkpt lat="46.78834" lon="6.4828"><ele>1257.2</ele><time>2015-11-10T12:04:02Z</time></trkpt>
<trkpt lat="46.78834" lon="6.48281"><ele>1257.8</ele><time>2015-11-10T12:04:08Z</time></trkpt>
<trkpt lat="46.78833" lon="6.48282"><ele>1259.2</ele><time>2015-11-10T12:04:30Z</time></trkpt>
<trkpt lat="46.78833" lon="6.48282"><ele>1259.4</ele><time>2015-11-10T12:04:34Z</time></trkpt>
<trkpt lat="46.78832" lon="6.48283"><ele>1261.6</ele><time>2015-11-10T12:04:54Z</time></trkpt>
<trkpt lat="46.78832" lon="6.48284"><ele>1261.6</ele><time>2015-11-10T12:05:03Z</time></trkpt>
<trkpt lat="46.78832" lon="6.48284"><ele>1261.6</ele><time>2015-11-10T12:05:06Z</time></trkpt>
<trkpt lat="46.78832" lon="6.48284"><ele>1261.6</ele><time>2015-11-10T12:05:08Z</time></trkpt>
<trkpt lat="46.78831" lon="6.48284"><ele>1263.6</ele><time>2015-11-10T12:05:44Z</time></trkpt>
<trkpt lat="46.78831" lon="6.48285"><ele>1263.2</ele><time>2015-11-10T12:05:53Z</time></trkpt>
<trkpt lat="46.78831" lon="6.48285"><ele>1263</ele><time>2015-11-10T12:05:58Z</time></trkpt>
<trkpt lat="46.78833" lon="6.48285"><ele>1262.6</ele><time>2015-11-10T12:06:14Z</time></trkpt>
<trkpt lat="46.78833" lon="6.48285"><ele>1262.4</ele><time>2015-11-10T12:06:21Z</time></trkpt>
<trkpt lat="46.78833" lon="6.48285"><ele>1263</ele><time>2015-11-10T12:06:24Z</time></trkpt>
<trkpt lat="46.78833" lon="6.48285"><ele>1263.2</ele><time>2015-11-10T12:06:30Z</time></trkpt>
<trkpt lat="46.78833" lon="6.48286"><ele>1263</ele><time>2015-11-10T12:06:35Z</time></trkpt>
<trkpt lat="46.78832" lon="6.48286"><ele>1262.8</ele><time>2015-11-10T12:06:38Z</time></trkpt>
<trkpt lat="46.78832" lon="6.48283"><ele>1261.2</ele><time>2015-11-10T12:06:50Z</time></trkpt>
<trkpt lat="46.78832" lon="6.48287"><ele>1259.4</ele><time>2015-11-10T12:07:41Z</time></trkpt>
<trkpt lat="46.78832" lon="6.48288"><ele>1261</ele><time>2015-11-10T12:07:56Z</time></trkpt>
<trkpt lat="46.78831" lon="6.48288"><ele>1261.2</ele><time>2015-11-10T12:08:10Z</time></trkpt>
<trkpt lat="46.78831" lon="6.48288"><ele>1261</ele><time>2015-11-10T12:08:14Z</time></trkpt>
<trkpt lat="46.78831" lon="6.48289"><ele>1260.8</ele><time>2015-11-10T12:08:16Z</time></trkpt>
<trkpt lat="46.78831" lon="6.48288"><ele>1260.6</ele><time>2015-11-10T12:08:23Z</time></trkpt>
<trkpt lat="46.78831" lon="6.48289"><ele>1260.6</ele><time>2015-11-10T12:08:30Z</time></trkpt>
<trkpt lat="46.78829" lon="6.48289"><ele>1260.8</ele><time>2015-11-10T12:08:39Z</time></trkpt>
<trkpt lat="46.78828" lon="6.4829"><ele>1261.4</ele><time>2015-11-10T12:08:47Z</time></trkpt>
<trkpt lat="46.7883" lon="6.48288"><ele>1261.6</ele><time>2015-11-10T12:09:03Z</time></trkpt>
<trkpt lat="46.7883" lon="6.48288"><ele>1261.2</ele><time>2015-11-10T12:09:08Z</time></trkpt>
<trkpt lat="46.78828" lon="6.48295"><ele>1262</ele><time>2015-11-10T12:09:46Z</time></trkpt>
<trkpt lat="46.78826" lon="6.48294"><ele>1261.6</ele><time>2015-11-10T12:09:51Z</time></trkpt>
<trkpt lat="46.78826" lon="6.48292"><ele>1260.8</ele><time>2015-11-10T12:09:56Z</time></trkpt>
<trkpt lat="46.78828" lon="6.4829"><ele>1260.8</ele><time>2015-11-10T12:10:14Z</time></trkpt>
<trkpt lat="46.78828" lon="6.4829"><ele>1260.8</ele><time>2015-11-10T12:10:17Z</time></trkpt>
<trkpt lat="46.7883" lon="6.48288"><ele>1260.4</ele><time>2015-11-10T12:10:22Z</time></trkpt>
<trkpt lat="46.78831" lon="6.48285"><ele>1260.6</ele><time>2015-11-10T12:10:39Z</time></trkpt>
<trkpt lat="46.78831" lon="6.48282"><ele>1260.6</ele><time>2015-11-10T12:10:51Z</time></trkpt>
<trkpt lat="46.78831" lon="6.48282"><ele>1260.8</ele><time>2015-11-10T12:10:52Z</time></trkpt>
<trkpt lat="46.78831" lon="6.48283"><ele>1261.8</ele><time>2015-11-10T12:10:56Z</time></trkpt>
<trkpt lat="46.7883" lon="6.48283"><ele>1261.6</ele><time>2015-11-10T12:10:59Z</time></trkpt>
<trkpt lat="46.78831" lon="6.48283"><ele>1261.4</ele><time>2015-11-10T12:11:01Z</time></trkpt>
<trkpt lat="46.78831" lon="6.48283"><ele>1261.2</ele><time>2015-11-10T12:11:04Z</time></trkpt>
<trkpt lat="46.78831" lon="6.48283"><ele>1261</ele><time>2015-11-10T12:11:07Z</time></trkpt>
<trkpt lat="46.7883" lon="6.48284"><ele>1260</ele><time>2015-11-10T12:11:14Z</time></trkpt>
<trkpt lat="46.7883" lon="6.48292"><ele>1261.6</ele><time>2015-11-10T12:11:26Z</time></trkpt>
<trkpt lat="46.78831" lon="6.48292"><ele>1261.4</ele><time>2015-11-10T12:11:28Z</time></trkpt>
<trkpt lat="46.78832" lon="6.48292"><ele>1261.2</ele><time>2015-11-10T12:11:31Z</time></trkpt>
<trkpt lat="46.78831" lon="6.48285"><ele>1258.8</ele><time>2015-11-10T12:11:43Z</time></trkpt>
<trkpt lat="46.7883" lon="6.48286"><ele>1259.2</ele><time>2015-11-10T12:11:54Z</time></trkpt>
<trkpt lat="46.78829" lon="6.48288"><ele>1258.6</ele><time>2015-11-10T12:12:09Z</time></trkpt>
<trkpt lat="46.7883" lon="6.48289"><ele>1258.6</ele><time>2015-11-10T12:12:19Z</time></trkpt>
<trkpt lat="46.78831" lon="6.48285"><ele>1258</ele><time>2015-11-10T12:12:37Z</time></trkpt>
<trkpt lat="46.78831" lon="6.48284"><ele>1257.6</ele><time>2015-11-10T12:12:40Z</time></trkpt>
<trkpt lat="46.78832" lon="6.48283"><ele>1257.4</ele><time>2015-11-10T12:12:42Z</time></trkpt>
<trkpt lat="46.78831" lon="6.48284"><ele>1257.4</ele><time>2015-11-10T12:12:43Z</time></trkpt>
<trkpt lat="46.78831" lon="6.48284"><ele>1257.4</ele><time>2015-11-10T12:12:44Z</time></trkpt>
<trkpt lat="46.7883" lon="6.48281"><ele>1257.6</ele><time>2015-11-10T12:13:00Z</time></trkpt>
<trkpt lat="46.78831" lon="6.48281"><ele>1257.8</ele><time>2015-11-10T12:13:04Z</time></trkpt>
<trkpt lat="46.78831" lon="6.4828"><ele>1258.2</ele><time>2015-11-10T12:13:09Z</time></trkpt>
<trkpt lat="46.7883" lon="6.48281"><ele>1259.2</ele><time>2015-11-10T12:13:20Z</time></trkpt>
<trkpt lat="46.7883" lon="6.48282"><ele>1259.4</ele><time>2015-11-10T12:13:22Z</time></trkpt>
<trkpt lat="46.7883" lon="6.48283"><ele>1259.4</ele><time>2015-11-10T12:13:23Z</time></trkpt>
<trkpt lat="46.78829" lon="6.48285"><ele>1259.4</ele><time>2015-11-10T12:13:24Z</time></trkpt>
<trkpt lat="46.7883" lon="6.48288"><ele>1260</ele><time>2015-11-10T12:13:38Z</time></trkpt>
<trkpt lat="46.7883" lon="6.48288"><ele>1260</ele><time>2015-11-10T12:13:46Z</time></trkpt>
<trkpt lat="46.78829" lon="6.4829"><ele>1260</ele><time>2015-11-10T12:14:20Z</time></trkpt>
<trkpt lat="46.78829" lon="6.48288"><ele>1260</ele><time>2015-11-10T12:14:27Z</time></trkpt>
<trkpt lat="46.78831" lon="6.48285"><ele>1260</ele><time>2015-11-10T12:14:38Z</time></trkpt>
<trkpt lat="46.78832" lon="6.48285"><ele>1260.2</ele><time>2015-11-10T12:14:40Z</time></trkpt>
<trkpt lat="46.78831" lon="6.48287"><ele>1260.4</ele><time>2015-11-10T12:14:46Z</time></trkpt>
<trkpt lat="46.78831" lon="6.48288"><ele>1260.4</ele><time>2015-11-10T12:14:48Z</time></trkpt>
<trkpt lat="46.7883" lon="6.4829"><ele>1260.4</ele><time>2015-11-10T12:14:54Z</time></trkpt>
<trkpt lat="46.7883" lon="6.4829"><ele>1260.6</ele><time>2015-11-10T12:15:04Z</time></trkpt>
<trkpt lat="46.7883" lon="6.48289"><ele>1260.6</ele><time>2015-11-10T12:15:06Z</time></trkpt>
<trkpt lat="46.7883" lon="6.48289"><ele>1260.6</ele><time>2015-11-10T12:15:07Z</time></trkpt>
<trkpt lat="46.7883" lon="6.48289"><ele>1260.8</ele><time>2015-11-10T12:15:08Z</time></trkpt>
<trkpt lat="46.78831" lon="6.48288"><ele>1260.8</ele><time>2015-11-10T12:15:15Z</time></trkpt>
<trkpt lat="46.78831" lon="6.48289"><ele>1260.8</ele><time>2015-11-10T12:15:20Z</time></trkpt>
<trkpt lat="46.7883" lon="6.48289"><ele>1261.2</ele><time>2015-11-10T12:15:30Z</time></trkpt>
<trkpt lat="46.78829" lon="6.48288"><ele>1261.2</ele><time>2015-11-10T12:15:48Z</time></trkpt>
<trkpt lat="46.78828" lon="6.4829"><ele>1261.4</ele><time>2015-11-10T12:16:18Z</time></trkpt>
<trkpt lat="46.78828" lon="6.48289"><ele>1261.4</ele><time>2015-11-10T12:16:27Z</time></trkpt>
<trkpt lat="46.78829" lon="6.48289"><ele>1261.4</ele><time>2015-11-10T12:16:34Z</time></trkpt>
<trkpt lat="46.78829" lon="6.4829"><ele>1261.4</ele><time>2015-11-10T12:16:37Z</time></trkpt>
<trkpt lat="46.78829" lon="6.48287"><ele>1261.2</ele><time>2015-11-10T12:16:43Z</time></trkpt>
<trkpt lat="46.78829" lon="6.48287"><ele>1261.2</ele><time>2015-11-10T12:16:49Z</time></trkpt>
<trkpt lat="46.7882" lon="6.48269"><ele>1262.4</ele><time>2015-11-10T12:17:17Z</time></trkpt>
<trkpt lat="46.78818" lon="6.48259"><ele>1262.6</ele><time>2015-11-10T12:17:22Z</time></trkpt>
<trkpt lat="46.7881" lon="6.48234"><ele>1263.4</ele><time>2015-11-10T12:17:34Z</time></trkpt>
<trkpt lat="46.78798" lon="6.48213"><ele>1264.6</ele><time>2015-11-10T12:17:45Z</time></trkpt>
<trkpt lat="46.78792" lon="6.48204"><ele>1265.2</ele><time>2015-11-10T12:17:50Z</time></trkpt>
<trkpt lat="46.78781" lon="6.48184"><ele>1266.2</ele><time>2015-11-10T12:18:00Z</time></trkpt>
<trkpt lat="46.7877" lon="6.48161"><ele>1266.6</ele><time>2015-11-10T12:18:11Z</time></trkpt>
<trkpt lat="46.78758" lon="6.48138"><ele>1268</ele><time>2015-11-10T12:18:22Z</time></trkpt>
<trkpt lat="46.7875" lon="6.48112"><ele>1269.8</ele><time>2015-11-10T12:18:33Z</time></trkpt>
<trkpt lat="46.78743" lon="6.48087"><ele>1271.6</ele><time>2015-11-10T12:18:43Z</time></trkpt>
<trkpt lat="46.78737" lon="6.48061"><ele>1272.8</ele><time>2015-11-10T12:18:53Z</time></trkpt>
<trkpt lat="46.78733" lon="6.48034"><ele>1273.6</ele><time>2015-11-10T12:19:02Z</time></trkpt>
<trkpt lat="46.7873" lon="6.48008"><ele>1274.2</ele><time>2015-11-10T12:19:10Z</time></trkpt>
<trkpt lat="46.7873" lon="6.47979"><ele>1274.6</ele><time>2015-11-10T12:19:19Z</time></trkpt>
<trkpt lat="46.78732" lon="6.47952"><ele>1275.4</ele><time>2015-11-10T12:19:27Z</time></trkpt>
<trkpt lat="46.78735" lon="6.47925"><ele>1276</ele><time>2015-11-10T12:19:34Z</time></trkpt>
<trkpt lat="46.78738" lon="6.47895"><ele>1276.4</ele><time>2015-11-10T12:19:41Z</time></trkpt>
<trkpt lat="46.78739" lon="6.47881"><ele>1276.6</ele><time>2015-11-10T12:19:44Z</time></trkpt>
<trkpt lat="46.78743" lon="6.47851"><ele>1277</ele><time>2015-11-10T12:19:50Z</time></trkpt>
<trkpt lat="46.78743" lon="6.47846"><ele>1277.2</ele><time>2015-11-10T12:19:51Z</time></trkpt>
<trkpt lat="46.78747" lon="6.47817"><ele>1277.2</ele><time>2015-11-10T12:19:57Z</time></trkpt>
<trkpt lat="46.78749" lon="6.47791"><ele>1277.2</ele><time>2015-11-10T12:20:03Z</time></trkpt>
<trkpt lat="46.78753" lon="6.47762"><ele>1277.4</ele><time>2015-11-10T12:20:09Z</time></trkpt>
<trkpt lat="46.78756" lon="6.47735"><ele>1277.6</ele><time>2015-11-10T12:20:14Z</time></trkpt>
<trkpt lat="46.78759" lon="6.47708"><ele>1277.6</ele><time>2015-11-10T12:20:19Z</time></trkpt>
<trkpt lat="46.7876" lon="6.47697"><ele>1277.4</ele><time>2015-11-10T12:20:21Z</time></trkpt>
<trkpt lat="46.78763" lon="6.4767"><ele>1277.2</ele><time>2015-11-10T12:20:26Z</time></trkpt>
<trkpt lat="46.78765" lon="6.47641"><ele>1276.8</ele><time>2015-11-10T12:20:31Z</time></trkpt>
<trkpt lat="46.78768" lon="6.47614"><ele>1276.8</ele><time>2015-11-10T12:20:36Z</time></trkpt>
<trkpt lat="46.78769" lon="6.47586"><ele>1276.8</ele><time>2015-11-10T12:20:41Z</time></trkpt>
<trkpt lat="46.78771" lon="6.47558"><ele>1276.6</ele><time>2015-11-10T12:20:46Z</time></trkpt>
<trkpt lat="46.78771" lon="6.47529"><ele>1276.6</ele><time>2015-11-10T12:20:51Z</time></trkpt>
<trkpt lat="46.78772" lon="6.47501"><ele>1276.8</ele><time>2015-11-10T12:20:56Z</time></trkpt>
<trkpt lat="46.78773" lon="6.4747"><ele>1276.8</ele><time>2015-11-10T12:21:01Z</time></trkpt>
<trkpt lat="46.78774" lon="6.47438"><ele>1277</ele><time>2015-11-10T12:21:06Z</time></trkpt>
<trkpt lat="46.78775" lon="6.47411"><ele>1277.2</ele><time>2015-11-10T12:21:10Z</time></trkpt>
<trkpt lat="46.78776" lon="6.47382"><ele>1277.6</ele><time>2015-11-10T12:21:15Z</time></trkpt>
<trkpt lat="46.78776" lon="6.47355"><ele>1278.4</ele><time>2015-11-10T12:21:20Z</time></trkpt>
<trkpt lat="46.78777" lon="6.47325"><ele>1279.2</ele><time>2015-11-10T12:21:25Z</time></trkpt>
<trkpt lat="46.78778" lon="6.47297"><ele>1280</ele><time>2015-11-10T12:21:30Z</time></trkpt>
<trkpt lat="46.78778" lon="6.47267"><ele>1281</ele><time>2015-11-10T12:21:35Z</time></trkpt>
<trkpt lat="46.78779" lon="6.47237"><ele>1280.6</ele><time>2015-11-10T12:21:40Z</time></trkpt>
<trkpt lat="46.7878" lon="6.47206"><ele>1281.2</ele><time>2015-11-10T12:21:45Z</time></trkpt>
<trkpt lat="46.78779" lon="6.47176"><ele>1282.8</ele><time>2015-11-10T12:21:50Z</time></trkpt>
<trkpt lat="46.78779" lon="6.47148"><ele>1283.4</ele><time>2015-11-10T12:21:55Z</time></trkpt>
<trkpt lat="46.78779" lon="6.47133"><ele>1284.4</ele><time>2015-11-10T12:21:58Z</time></trkpt>
<trkpt lat="46.78778" lon="6.47106"><ele>1285.4</ele><time>2015-11-10T12:22:04Z</time></trkpt>
<trkpt lat="46.78779" lon="6.47081"><ele>1286.4</ele><time>2015-11-10T12:22:09Z</time></trkpt>
<trkpt lat="46.7878" lon="6.47054"><ele>1288.4</ele><time>2015-11-10T12:22:14Z</time></trkpt>
<trkpt lat="46.7878" lon="6.47043"><ele>1289.6</ele><time>2015-11-10T12:22:16Z</time></trkpt>
<trkpt lat="46.7878" lon="6.47014"><ele>1292.2</ele><time>2015-11-10T12:22:21Z</time></trkpt>
<trkpt lat="46.78778" lon="6.46985"><ele>1294.6</ele><time>2015-11-10T12:22:26Z</time></trkpt>
<trkpt lat="46.78778" lon="6.46957"><ele>1297.8</ele><time>2015-11-10T12:22:31Z</time></trkpt>
<trkpt lat="46.78778" lon="6.4694"><ele>1299.8</ele><time>2015-11-10T12:22:34Z</time></trkpt>
<trkpt lat="46.78777" lon="6.46924"><ele>1301.2</ele><time>2015-11-10T12:22:37Z</time></trkpt>
<trkpt lat="46.78776" lon="6.46891"><ele>1304</ele><time>2015-11-10T12:22:42Z</time></trkpt>
<trkpt lat="46.78775" lon="6.46877"><ele>1305.2</ele><time>2015-11-10T12:22:44Z</time></trkpt>
<trkpt lat="46.78774" lon="6.46852"><ele>1308</ele><time>2015-11-10T12:22:48Z</time></trkpt>
<trkpt lat="46.78773" lon="6.46845"><ele>1308.6</ele><time>2015-11-10T12:22:49Z</time></trkpt>
<trkpt lat="46.78771" lon="6.46819"><ele>1310.8</ele><time>2015-11-10T12:22:53Z</time></trkpt>
<trkpt lat="46.7877" lon="6.46805"><ele>1310.2</ele><time>2015-11-10T12:22:55Z</time></trkpt>
<trkpt lat="46.7877" lon="6.4678"><ele>1310</ele><time>2015-11-10T12:22:59Z</time></trkpt>
<trkpt lat="46.78772" lon="6.4675"><ele>1312</ele><time>2015-11-10T12:23:04Z</time></trkpt>
<trkpt lat="46.78784" lon="6.46721"><ele>1307.2</ele><time>2015-11-10T12:23:09Z</time></trkpt>
<trkpt lat="46.78798" lon="6.46694"><ele>1299.8</ele><time>2015-11-10T12:23:14Z</time></trkpt>
<trkpt lat="46.78813" lon="6.46671"><ele>1289.6</ele><time>2015-11-10T12:23:18Z</time></trkpt>
<trkpt lat="46.78821" lon="6.46663"><ele>1286.4</ele><time>2015-11-10T12:23:20Z</time></trkpt>
<trkpt lat="46.78836" lon="6.46653"><ele>1283.6</ele><time>2015-11-10T12:23:24Z</time></trkpt>
<trkpt lat="46.7884" lon="6.46651"><ele>1283.2</ele><time>2015-11-10T12:23:25Z</time></trkpt>
<trkpt lat="46.78858" lon="6.46646"><ele>1282.6</ele><time>2015-11-10T12:23:30Z</time></trkpt>
<trkpt lat="46.78869" lon="6.46643"><ele>1282.4</ele><time>2015-11-10T12:23:33Z</time></trkpt>
<trkpt lat="46.78876" lon="6.46642"><ele>1282.8</ele><time>2015-11-10T12:23:35Z</time></trkpt>
<trkpt lat="46.78882" lon="6.46641"><ele>1282.8</ele><time>2015-11-10T12:23:37Z</time></trkpt>
<trkpt lat="46.7889" lon="6.46638"><ele>1283</ele><time>2015-11-10T12:23:39Z</time></trkpt>
<trkpt lat="46.78898" lon="6.46634"><ele>1282</ele><time>2015-11-10T12:23:41Z</time></trkpt>
<trkpt lat="46.78905" lon="6.4663"><ele>1282.2</ele><time>2015-11-10T12:23:43Z</time></trkpt>
<trkpt lat="46.78914" lon="6.46618"><ele>1282.8</ele><time>2015-11-10T12:23:47Z</time></trkpt>
<trkpt lat="46.78916" lon="6.46614"><ele>1283.2</ele><time>2015-11-10T12:23:48Z</time></trkpt>
<trkpt lat="46.78923" lon="6.46598"><ele>1282.4</ele><time>2015-11-10T12:23:52Z</time></trkpt>
<trkpt lat="46.78925" lon="6.46594"><ele>1282.6</ele><time>2015-11-10T12:23:53Z</time></trkpt>
<trkpt lat="46.78939" lon="6.46577"><ele>1285.4</ele><time>2015-11-10T12:24:02Z</time></trkpt>
<trkpt lat="46.78942" lon="6.46576"><ele>1286.4</ele><time>2015-11-10T12:24:05Z</time></trkpt>
<trkpt lat="46.78948" lon="6.46573"><ele>1287.8</ele><time>2015-11-10T12:24:10Z</time></trkpt>
<trkpt lat="46.7895" lon="6.46572"><ele>1288.2</ele><time>2015-11-10T12:24:12Z</time></trkpt>
<trkpt lat="46.78954" lon="6.46572"><ele>1289</ele><time>2015-11-10T12:24:16Z</time></trkpt>
<trkpt lat="46.78963" lon="6.46571"><ele>1289.2</ele><time>2015-11-10T12:24:24Z</time></trkpt>
<trkpt lat="46.78972" lon="6.46573"><ele>1288.8</ele><time>2015-11-10T12:24:33Z</time></trkpt>
<trkpt lat="46.78976" lon="6.46575"><ele>1289.6</ele><time>2015-11-10T12:24:38Z</time></trkpt>
<trkpt lat="46.78981" lon="6.46576"><ele>1290.4</ele><time>2015-11-10T12:24:44Z</time></trkpt>
<trkpt lat="46.78986" lon="6.46576"><ele>1291.4</ele><time>2015-11-10T12:24:50Z</time></trkpt>
<trkpt lat="46.78992" lon="6.46576"><ele>1293.2</ele><time>2015-11-10T12:24:57Z</time></trkpt>
<trkpt lat="46.79001" lon="6.46574"><ele>1295</ele><time>2015-11-10T12:25:07Z</time></trkpt>
<trkpt lat="46.79008" lon="6.46571"><ele>1295.8</ele><time>2015-11-10T12:25:14Z</time></trkpt>
<trkpt lat="46.79009" lon="6.46571"><ele>1296</ele><time>2015-11-10T12:25:15Z</time></trkpt>
<trkpt lat="46.79014" lon="6.46573"><ele>1296.8</ele><time>2015-11-10T12:25:20Z</time></trkpt>
<trkpt lat="46.79015" lon="6.46573"><ele>1297</ele><time>2015-11-10T12:25:21Z</time></trkpt>
<trkpt lat="46.7902" lon="6.46573"><ele>1298.2</ele><time>2015-11-10T12:25:26Z</time></trkpt>
<trkpt lat="46.79038" lon="6.46579"><ele>1302.8</ele><time>2015-11-10T12:25:44Z</time></trkpt>
<trkpt lat="46.7904" lon="6.46579"><ele>1304</ele><time>2015-11-10T12:25:47Z</time></trkpt>
<trkpt lat="46.79047" lon="6.4658"><ele>1305.4</ele><time>2015-11-10T12:25:54Z</time></trkpt>
<trkpt lat="46.79051" lon="6.46579"><ele>1306.4</ele><time>2015-11-10T12:25:58Z</time></trkpt>
<trkpt lat="46.79069" lon="6.46573"><ele>1312.4</ele><time>2015-11-10T12:26:16Z</time></trkpt>
<trkpt lat="46.79076" lon="6.46573"><ele>1315</ele><time>2015-11-10T12:26:23Z</time></trkpt>
<trkpt lat="46.79088" lon="6.46571"><ele>1321.2</ele><time>2015-11-10T12:26:38Z</time></trkpt>
<trkpt lat="46.79095" lon="6.46571"><ele>1328</ele><time>2015-11-10T12:26:47Z</time></trkpt>
<trkpt lat="46.79099" lon="6.46572"><ele>1331</ele><time>2015-11-10T12:26:53Z</time></trkpt>
<trkpt lat="46.79116" lon="6.46582"><ele>1338</ele><time>2015-11-10T12:27:14Z</time></trkpt>
<trkpt lat="46.79134" lon="6.46594"><ele>1339.4</ele><time>2015-11-10T12:27:28Z</time></trkpt>
<trkpt lat="46.79152" lon="6.46602"><ele>1337.4</ele><time>2015-11-10T12:27:36Z</time></trkpt>
<trkpt lat="46.79166" lon="6.46609"><ele>1336</ele><time>2015-11-10T12:27:43Z</time></trkpt>
<trkpt lat="46.79178" lon="6.46628"><ele>1332.6</ele><time>2015-11-10T12:27:56Z</time></trkpt>
<trkpt lat="46.79185" lon="6.46641"><ele>1330.4</ele><time>2015-11-10T12:28:04Z</time></trkpt>
<trkpt lat="46.79196" lon="6.46664"><ele>1328.4</ele><time>2015-11-10T12:28:18Z</time></trkpt>
<trkpt lat="46.79198" lon="6.4667"><ele>1328.4</ele><time>2015-11-10T12:28:21Z</time></trkpt>
<trkpt lat="46.79204" lon="6.46681"><ele>1328.8</ele><time>2015-11-10T12:28:27Z</time></trkpt>
<trkpt lat="46.79211" lon="6.46694"><ele>1329.4</ele><time>2015-11-10T12:28:34Z</time></trkpt>
<trkpt lat="46.79223" lon="6.46715"><ele>1330.8</ele><time>2015-11-10T12:28:47Z</time></trkpt>
<trkpt lat="46.79229" lon="6.46728"><ele>1331.8</ele><time>2015-11-10T12:28:55Z</time></trkpt>
<trkpt lat="46.79235" lon="6.46737"><ele>1332.8</ele><time>2015-11-10T12:29:01Z</time></trkpt>
<trkpt lat="46.79243" lon="6.46751"><ele>1334</ele><time>2015-11-10T12:29:10Z</time></trkpt>
<trkpt lat="46.79247" lon="6.46763"><ele>1334</ele><time>2015-11-10T12:29:17Z</time></trkpt>
<trkpt lat="46.79242" lon="6.46762"><ele>1334.8</ele><time>2015-11-10T12:29:25Z</time></trkpt>
<trkpt lat="46.79242" lon="6.46762"><ele>1334.8</ele><time>2015-11-10T12:29:26Z</time></trkpt>
<trkpt lat="46.79241" lon="6.46764"><ele>1334.4</ele><time>2015-11-10T12:29:38Z</time></trkpt>
<trkpt lat="46.7924" lon="6.46763"><ele>1334.4</ele><time>2015-11-10T12:29:42Z</time></trkpt>
<trkpt lat="46.7924" lon="6.46763"><ele>1334.2</ele><time>2015-11-10T12:29:49Z</time></trkpt>
<trkpt lat="46.79237" lon="6.46762"><ele>1333.2</ele><time>2015-11-10T12:30:21Z</time></trkpt>
<trkpt lat="46.79237" lon="6.46762"><ele>1333</ele><time>2015-11-10T12:30:27Z</time></trkpt>
<trkpt lat="46.79237" lon="6.46764"><ele>1332</ele><time>2015-11-10T12:30:50Z</time></trkpt>
<trkpt lat="46.79222" lon="6.46749"><ele>1332</ele><time>2015-11-10T12:31:03Z</time></trkpt>
<trkpt lat="46.79219" lon="6.46746"><ele>1332</ele><time>2015-11-10T12:31:06Z</time></trkpt>
<trkpt lat="46.79214" lon="6.46744"><ele>1332.2</ele><time>2015-11-10T12:31:09Z</time></trkpt>
<trkpt lat="46.792" lon="6.46733"><ele>1332</ele><time>2015-11-10T12:31:21Z</time></trkpt>
<trkpt lat="46.79184" lon="6.46732"><ele>1333.4</ele><time>2015-11-10T12:31:33Z</time></trkpt>
<trkpt lat="46.7919" lon="6.46744"><ele>1334</ele><time>2015-11-10T12:31:41Z</time></trkpt>
<trkpt lat="46.79197" lon="6.46754"><ele>1334.4</ele><time>2015-11-10T12:31:47Z</time></trkpt>
<trkpt lat="46.79198" lon="6.46756"><ele>1335</ele><time>2015-11-10T12:31:49Z</time></trkpt>
<trkpt lat="46.792" lon="6.46758"><ele>1335.2</ele><time>2015-11-10T12:31:51Z</time></trkpt>
<trkpt lat="46.79201" lon="6.46759"><ele>1335.4</ele><time>2015-11-10T12:31:52Z</time></trkpt>
<trkpt lat="46.79204" lon="6.46764"><ele>1335.6</ele><time>2015-11-10T12:31:56Z</time></trkpt>
<trkpt lat="46.79207" lon="6.46769"><ele>1336</ele><time>2015-11-10T12:32:00Z</time></trkpt>
<trkpt lat="46.7921" lon="6.46772"><ele>1336.6</ele><time>2015-11-10T12:32:03Z</time></trkpt>
<trkpt lat="46.79224" lon="6.46786"><ele>1339.4</ele><time>2015-11-10T12:32:18Z</time></trkpt>
<trkpt lat="46.79225" lon="6.46788"><ele>1339.8</ele><time>2015-11-10T12:32:20Z</time></trkpt>
<trkpt lat="46.79226" lon="6.4679"><ele>1340.4</ele><time>2015-11-10T12:32:22Z</time></trkpt>
<trkpt lat="46.79229" lon="6.46795"><ele>1341</ele><time>2015-11-10T12:32:26Z</time></trkpt>
<trkpt lat="46.79231" lon="6.46798"><ele>1341.4</ele><time>2015-11-10T12:32:29Z</time></trkpt>
<trkpt lat="46.79233" lon="6.468"><ele>1342</ele><time>2015-11-10T12:32:31Z</time></trkpt>
<trkpt lat="46.79234" lon="6.46803"><ele>1342.2</ele><time>2015-11-10T12:32:33Z</time></trkpt>
<trkpt lat="46.79236" lon="6.46808"><ele>1343.4</ele><time>2015-11-10T12:32:37Z</time></trkpt>
<trkpt lat="46.79242" lon="6.46821"><ele>1344.6</ele><time>2015-11-10T12:32:47Z</time></trkpt>
<trkpt lat="46.79247" lon="6.46834"><ele>1345.6</ele><time>2015-11-10T12:32:57Z</time></trkpt>
<trkpt lat="46.79249" lon="6.46839"><ele>1346.2</ele><time>2015-11-10T12:33:01Z</time></trkpt>
<trkpt lat="46.79251" lon="6.46843"><ele>1347</ele><time>2015-11-10T12:33:05Z</time></trkpt>
<trkpt lat="46.79254" lon="6.46848"><ele>1347.8</ele><time>2015-11-10T12:33:09Z</time></trkpt>
<trkpt lat="46.79254" lon="6.4685"><ele>1348.2</ele><time>2015-11-10T12:33:10Z</time></trkpt>
<trkpt lat="46.79257" lon="6.46857"><ele>1349</ele><time>2015-11-10T12:33:15Z</time></trkpt>
<trkpt lat="46.7926" lon="6.46862"><ele>1349.8</ele><time>2015-11-10T12:33:19Z</time></trkpt>
<trkpt lat="46.79262" lon="6.46866"><ele>1350.4</ele><time>2015-11-10T12:33:22Z</time></trkpt>
<trkpt lat="46.79264" lon="6.46869"><ele>1350.8</ele><time>2015-11-10T12:33:24Z</time></trkpt>
<trkpt lat="46.79269" lon="6.46876"><ele>1351.4</ele><time>2015-11-10T12:33:30Z</time></trkpt>
<trkpt lat="46.79276" lon="6.46885"><ele>1352.4</ele><time>2015-11-10T12:33:38Z</time></trkpt>
<trkpt lat="46.79283" lon="6.46895"><ele>1354</ele><time>2015-11-10T12:33:47Z</time></trkpt>
<trkpt lat="46.79285" lon="6.46897"><ele>1354.2</ele><time>2015-11-10T12:33:49Z</time></trkpt>
<trkpt lat="46.79287" lon="6.46902"><ele>1354.4</ele><time>2015-11-10T12:33:53Z</time></trkpt>
<trkpt lat="46.79288" lon="6.46903"><ele>1354.6</ele><time>2015-11-10T12:33:54Z</time></trkpt>
<trkpt lat="46.79295" lon="6.46917"><ele>1355.8</ele><time>2015-11-10T12:34:06Z</time></trkpt>
<trkpt lat="46.79306" lon="6.46938"><ele>1359</ele><time>2015-11-10T12:34:23Z</time></trkpt>
<trkpt lat="46.79313" lon="6.46952"><ele>1361.2</ele><time>2015-11-10T12:34:35Z</time></trkpt>
<trkpt lat="46.7932" lon="6.46965"><ele>1363.4</ele><time>2015-11-10T12:34:46Z</time></trkpt>
<trkpt lat="46.79324" lon="6.4697"><ele>1364.4</ele><time>2015-11-10T12:34:51Z</time></trkpt>
<trkpt lat="46.79329" lon="6.46981"><ele>1366.2</ele><time>2015-11-10T12:35:00Z</time></trkpt>
<trkpt lat="46.79334" lon="6.46991"><ele>1367.6</ele><time>2015-11-10T12:35:08Z</time></trkpt>
<trkpt lat="46.79336" lon="6.46996"><ele>1368.2</ele><time>2015-11-10T12:35:12Z</time></trkpt>
<trkpt lat="46.79345" lon="6.47014"><ele>1371</ele><time>2015-11-10T12:35:25Z</time></trkpt>
<trkpt lat="46.7935" lon="6.47023"><ele>1372.6</ele><time>2015-11-10T12:35:32Z</time></trkpt>
<trkpt lat="46.79351" lon="6.47024"><ele>1372.8</ele><time>2015-11-10T12:35:33Z</time></trkpt>
<trkpt lat="46.79354" lon="6.47029"><ele>1373.6</ele><time>2015-11-10T12:35:37Z</time></trkpt>
<trkpt lat="46.79357" lon="6.4704"><ele>1374.6</ele><time>2015-11-10T12:35:44Z</time></trkpt>
<trkpt lat="46.79363" lon="6.47056"><ele>1377</ele><time>2015-11-10T12:35:55Z</time></trkpt>
<trkpt lat="46.79375" lon="6.47077"><ele>1379.4</ele><time>2015-11-10T12:36:10Z</time></trkpt>
<trkpt lat="46.79378" lon="6.47083"><ele>1380</ele><time>2015-11-10T12:36:14Z</time></trkpt>
<trkpt lat="46.79379" lon="6.47084"><ele>1380.2</ele><time>2015-11-10T12:36:15Z</time></trkpt>
<trkpt lat="46.79379" lon="6.47086"><ele>1380.4</ele><time>2015-11-10T12:36:16Z</time></trkpt>
<trkpt lat="46.79381" lon="6.47092"><ele>1381.2</ele><time>2015-11-10T12:36:20Z</time></trkpt>
<trkpt lat="46.79382" lon="6.47097"><ele>1381.4</ele><time>2015-11-10T12:36:23Z</time></trkpt>
<trkpt lat="46.79384" lon="6.471"><ele>1381.8</ele><time>2015-11-10T12:36:25Z</time></trkpt>
<trkpt lat="46.79385" lon="6.47104"><ele>1382.4</ele><time>2015-11-10T12:36:28Z</time></trkpt>
<trkpt lat="46.79386" lon="6.47109"><ele>1383</ele><time>2015-11-10T12:36:31Z</time></trkpt>
<trkpt lat="46.79387" lon="6.4711"><ele>1383.2</ele><time>2015-11-10T12:36:32Z</time></trkpt>
<trkpt lat="46.79389" lon="6.47115"><ele>1384</ele><time>2015-11-10T12:36:35Z</time></trkpt>
<trkpt lat="46.79392" lon="6.47121"><ele>1385.2</ele><time>2015-11-10T12:36:40Z</time></trkpt>
<trkpt lat="46.79395" lon="6.47126"><ele>1386.4</ele><time>2015-11-10T12:36:44Z</time></trkpt>
<trkpt lat="46.79399" lon="6.47133"><ele>1387.6</ele><time>2015-11-10T12:36:50Z</time></trkpt>
<trkpt lat="46.794" lon="6.47137"><ele>1388.6</ele><time>2015-11-10T12:36:53Z</time></trkpt>
<trkpt lat="46.79406" lon="6.47148"><ele>1390.6</ele><time>2015-11-10T12:37:01Z</time></trkpt>
<trkpt lat="46.79412" lon="6.47168"><ele>1391.6</ele><time>2015-11-10T12:37:12Z</time></trkpt>
<trkpt lat="46.79413" lon="6.47171"><ele>1391.6</ele><time>2015-11-10T12:37:14Z</time></trkpt>
<trkpt lat="46.79417" lon="6.4719"><ele>1391.6</ele><time>2015-11-10T12:37:25Z</time></trkpt>
<trkpt lat="46.7942" lon="6.47196"><ele>1391.6</ele><time>2015-11-10T12:37:29Z</time></trkpt>
<trkpt lat="46.79423" lon="6.47207"><ele>1392.4</ele><time>2015-11-10T12:37:37Z</time></trkpt>
<trkpt lat="46.79426" lon="6.47219"><ele>1392.6</ele><time>2015-11-10T12:37:45Z</time></trkpt>
<trkpt lat="46.79432" lon="6.47245"><ele>1393</ele><time>2015-11-10T12:38:01Z</time></trkpt>
<trkpt lat="46.79437" lon="6.47268"><ele>1395.6</ele><time>2015-11-10T12:38:15Z</time></trkpt>
<trkpt lat="46.7944" lon="6.4728"><ele>1397.2</ele><time>2015-11-10T12:38:22Z</time></trkpt>
<trkpt lat="46.79441" lon="6.47284"><ele>1397.6</ele><time>2015-11-10T12:38:25Z</time></trkpt>
<trkpt lat="46.79441" lon="6.47286"><ele>1397.6</ele><time>2015-11-10T12:38:26Z</time></trkpt>
<trkpt lat="46.79442" lon="6.47287"><ele>1397.8</ele><time>2015-11-10T12:38:27Z</time></trkpt>
<trkpt lat="46.79442" lon="6.4729"><ele>1398.2</ele><time>2015-11-10T12:38:29Z</time></trkpt>
<trkpt lat="46.79443" lon="6.47295"><ele>1398.6</ele><time>2015-11-10T12:38:32Z</time></trkpt>
<trkpt lat="46.7945" lon="6.47321"><ele>1402.2</ele><time>2015-11-10T12:38:48Z</time></trkpt>
<trkpt lat="46.79451" lon="6.4733"><ele>1403.4</ele><time>2015-11-10T12:38:54Z</time></trkpt>
<trkpt lat="46.79452" lon="6.47334"><ele>1404</ele><time>2015-11-10T12:38:57Z</time></trkpt>
<trkpt lat="46.79455" lon="6.47348"><ele>1407</ele><time>2015-11-10T12:39:07Z</time></trkpt>
<trkpt lat="46.79457" lon="6.47355"><ele>1407.8</ele><time>2015-11-10T12:39:12Z</time></trkpt>
<trkpt lat="46.79458" lon="6.47363"><ele>1408.6</ele><time>2015-11-10T12:39:17Z</time></trkpt>
<trkpt lat="46.79459" lon="6.47367"><ele>1409</ele><time>2015-11-10T12:39:19Z</time></trkpt>
<trkpt lat="46.7946" lon="6.47375"><ele>1409.8</ele><time>2015-11-10T12:39:24Z</time></trkpt>
<trkpt lat="46.79462" lon="6.47384"><ele>1410.8</ele><time>2015-11-10T12:39:30Z</time></trkpt>
<trkpt lat="46.79465" lon="6.47411"><ele>1414.4</ele><time>2015-11-10T12:39:46Z</time></trkpt>
<trkpt lat="46.79466" lon="6.47416"><ele>1414.6</ele><time>2015-11-10T12:39:49Z</time></trkpt>
<trkpt lat="46.79466" lon="6.47418"><ele>1414.6</ele><time>2015-11-10T12:39:50Z</time></trkpt>
<trkpt lat="46.79467" lon="6.47422"><ele>1415</ele><time>2015-11-10T12:39:53Z</time></trkpt>
<trkpt lat="46.79467" lon="6.47425"><ele>1415.2</ele><time>2015-11-10T12:39:54Z</time></trkpt>
<trkpt lat="46.79468" lon="6.4743"><ele>1415.8</ele><time>2015-11-10T12:39:57Z</time></trkpt>
<trkpt lat="46.79468" lon="6.47435"><ele>1416.4</ele><time>2015-11-10T12:40:00Z</time></trkpt>
<trkpt lat="46.79468" lon="6.47448"><ele>1418</ele><time>2015-11-10T12:40:08Z</time></trkpt>
<trkpt lat="46.79469" lon="6.4746"><ele>1419.8</ele><time>2015-11-10T12:40:16Z</time></trkpt>
<trkpt lat="46.79469" lon="6.47462"><ele>1420.2</ele><time>2015-11-10T12:40:17Z</time></trkpt>
<trkpt lat="46.79469" lon="6.47463"><ele>1420.4</ele><time>2015-11-10T12:40:18Z</time></trkpt>
<trkpt lat="46.79471" lon="6.47488"><ele>1423.6</ele><time>2015-11-10T12:40:35Z</time></trkpt>
<trkpt lat="46.79472" lon="6.47497"><ele>1424.4</ele><time>2015-11-10T12:40:41Z</time></trkpt>
<trkpt lat="46.79474" lon="6.47511"><ele>1425.6</ele><time>2015-11-10T12:40:50Z</time></trkpt>
<trkpt lat="46.79475" lon="6.47517"><ele>1426.6</ele><time>2015-11-10T12:40:54Z</time></trkpt>
<trkpt lat="46.79476" lon="6.47522"><ele>1427.4</ele><time>2015-11-10T12:40:58Z</time></trkpt>
<trkpt lat="46.79477" lon="6.47527"><ele>1428.2</ele><time>2015-11-10T12:41:01Z</time></trkpt>
<trkpt lat="46.79478" lon="6.4754"><ele>1430.2</ele><time>2015-11-10T12:41:08Z</time></trkpt>
<trkpt lat="46.79479" lon="6.47543"><ele>1430.6</ele><time>2015-11-10T12:41:10Z</time></trkpt>
<trkpt lat="46.79482" lon="6.4757"><ele>1433</ele><time>2015-11-10T12:41:25Z</time></trkpt>
<trkpt lat="46.79482" lon="6.47591"><ele>1434.4</ele><time>2015-11-10T12:41:37Z</time></trkpt>
<trkpt lat="46.79482" lon="6.47599"><ele>1435</ele><time>2015-11-10T12:41:41Z</time></trkpt>
<trkpt lat="46.79482" lon="6.47626"><ele>1438.6</ele><time>2015-11-10T12:41:56Z</time></trkpt>
<trkpt lat="46.79481" lon="6.47644"><ele>1439.2</ele><time>2015-11-10T12:42:05Z</time></trkpt>
<trkpt lat="46.79481" lon="6.47658"><ele>1440</ele><time>2015-11-10T12:42:12Z</time></trkpt>
<trkpt lat="46.79481" lon="6.47665"><ele>1440.4</ele><time>2015-11-10T12:42:16Z</time></trkpt>
<trkpt lat="46.79485" lon="6.47693"><ele>1442.4</ele><time>2015-11-10T12:42:31Z</time></trkpt>
<trkpt lat="46.79486" lon="6.47715"><ele>1445.6</ele><time>2015-11-10T12:42:44Z</time></trkpt>
<trkpt lat="46.79486" lon="6.47731"><ele>1448</ele><time>2015-11-10T12:42:55Z</time></trkpt>
<trkpt lat="46.79483" lon="6.47753"><ele>1451.2</ele><time>2015-11-10T12:43:09Z</time></trkpt>
<trkpt lat="46.79483" lon="6.47762"><ele>1452</ele><time>2015-11-10T12:43:14Z</time></trkpt>
<trkpt lat="46.79483" lon="6.4777"><ele>1452.8</ele><time>2015-11-10T12:43:19Z</time></trkpt>
<trkpt lat="46.79483" lon="6.47777"><ele>1452.8</ele><time>2015-11-10T12:43:23Z</time></trkpt>
<trkpt lat="46.79483" lon="6.47779"><ele>1453</ele><time>2015-11-10T12:43:24Z</time></trkpt>
<trkpt lat="46.79484" lon="6.47804"><ele>1454.4</ele><time>2015-11-10T12:43:37Z</time></trkpt>
<trkpt lat="46.79485" lon="6.47825"><ele>1457.4</ele><time>2015-11-10T12:43:47Z</time></trkpt>
<trkpt lat="46.79486" lon="6.47828"><ele>1457.8</ele><time>2015-11-10T12:43:48Z</time></trkpt>
<trkpt lat="46.79486" lon="6.47834"><ele>1458.6</ele><time>2015-11-10T12:43:51Z</time></trkpt>
<trkpt lat="46.79487" lon="6.47842"><ele>1459.4</ele><time>2015-11-10T12:43:55Z</time></trkpt>
<trkpt lat="46.79488" lon="6.47856"><ele>1460</ele><time>2015-11-10T12:44:02Z</time></trkpt>
<trkpt lat="46.79488" lon="6.47857"><ele>1460.2</ele><time>2015-11-10T12:44:03Z</time></trkpt>
<trkpt lat="46.79489" lon="6.47859"><ele>1461.2</ele><time>2015-11-10T12:44:22Z</time></trkpt>
<trkpt lat="46.7949" lon="6.4786"><ele>1461.6</ele><time>2015-11-10T12:44:38Z</time></trkpt>
<trkpt lat="46.79488" lon="6.4786"><ele>1462</ele><time>2015-11-10T12:44:49Z</time></trkpt>
<trkpt lat="46.7949" lon="6.4786"><ele>1461.6</ele><time>2015-11-10T12:45:00Z</time></trkpt>
<trkpt lat="46.79489" lon="6.47859"><ele>1461.4</ele><time>2015-11-10T12:45:11Z</time></trkpt>
<trkpt lat="46.79489" lon="6.47859"><ele>1461.4</ele><time>2015-11-10T12:45:18Z</time></trkpt>
<trkpt lat="46.7949" lon="6.47858"><ele>1461</ele><time>2015-11-10T12:45:25Z</time></trkpt>
<trkpt lat="46.7949" lon="6.47859"><ele>1460.2</ele><time>2015-11-10T12:46:02Z</time></trkpt>
<trkpt lat="46.7949" lon="6.47858"><ele>1460.4</ele><time>2015-11-10T12:46:10Z</time></trkpt>
<trkpt lat="46.79489" lon="6.47859"><ele>1460.4</ele><time>2015-11-10T12:46:25Z</time></trkpt>
<trkpt lat="46.79489" lon="6.4786"><ele>1460.8</ele><time>2015-11-10T12:46:31Z</time></trkpt>
<trkpt lat="46.7949" lon="6.47861"><ele>1460.8</ele><time>2015-11-10T12:46:36Z</time></trkpt>
<trkpt lat="46.7949" lon="6.47863"><ele>1460.8</ele><time>2015-11-10T12:46:42Z</time></trkpt>
<trkpt lat="46.7949" lon="6.47863"><ele>1460.8</ele><time>2015-11-10T12:46:44Z</time></trkpt>
<trkpt lat="46.7949" lon="6.47864"><ele>1460.6</ele><time>2015-11-10T12:46:51Z</time></trkpt>
<trkpt lat="46.7949" lon="6.47864"><ele>1460.6</ele><time>2015-11-10T12:46:54Z</time></trkpt>
<trkpt lat="46.7949" lon="6.47865"><ele>1460.4</ele><time>2015-11-10T12:46:58Z</time></trkpt>
<trkpt lat="46.7949" lon="6.47865"><ele>1460.2</ele><time>2015-11-10T12:47:01Z</time></trkpt>
<trkpt lat="46.7949" lon="6.47862"><ele>1459.6</ele><time>2015-11-10T12:47:10Z</time></trkpt>
<trkpt lat="46.7949" lon="6.47859"><ele>1459.8</ele><time>2015-11-10T12:47:52Z</time></trkpt>
<trkpt lat="46.7949" lon="6.47859"><ele>1460</ele><time>2015-11-10T12:47:53Z</time></trkpt>
<trkpt lat="46.79489" lon="6.47859"><ele>1460.2</ele><time>2015-11-10T12:47:55Z</time></trkpt>
<trkpt lat="46.79489" lon="6.47859"><ele>1460.2</ele><time>2015-11-10T12:48:06Z</time></trkpt>
<trkpt lat="46.7949" lon="6.4786"><ele>1460</ele><time>2015-11-10T12:48:22Z</time></trkpt>
<trkpt lat="46.7949" lon="6.4786"><ele>1460.2</ele><time>2015-11-10T12:48:36Z</time></trkpt>
<trkpt lat="46.79494" lon="6.47864"><ele>1461.6</ele><time>2015-11-10T12:48:52Z</time></trkpt>
<trkpt lat="46.79494" lon="6.47864"><ele>1462.2</ele><time>2015-11-10T12:49:00Z</time></trkpt>
<trkpt lat="46.79495" lon="6.47863"><ele>1462.8</ele><time>2015-11-10T12:49:13Z</time></trkpt>
<trkpt lat="46.79495" lon="6.47863"><ele>1462.6</ele><time>2015-11-10T12:49:16Z</time></trkpt>
<trkpt lat="46.79494" lon="6.47861"><ele>1461.6</ele><time>2015-11-10T12:49:30Z</time></trkpt>
<trkpt lat="46.79494" lon="6.47865"><ele>1462</ele><time>2015-11-10T12:49:35Z</time></trkpt>
<trkpt lat="46.79494" lon="6.47866"><ele>1462.2</ele><time>2015-11-10T12:49:36Z</time></trkpt>
<trkpt lat="46.79495" lon="6.47868"><ele>1462.4</ele><time>2015-11-10T12:49:37Z</time></trkpt>
<trkpt lat="46.795" lon="6.47888"><ele>1464.8</ele><time>2015-11-10T12:49:48Z</time></trkpt>
<trkpt lat="46.79506" lon="6.47902"><ele>1467.4</ele><time>2015-11-10T12:49:58Z</time></trkpt>
<trkpt lat="46.79506" lon="6.47904"><ele>1467.2</ele><time>2015-11-10T12:50:02Z</time></trkpt>
<trkpt lat="46.79509" lon="6.47925"><ele>1468.2</ele><time>2015-11-10T12:50:19Z</time></trkpt>
<trkpt lat="46.79508" lon="6.47931"><ele>1468.6</ele><time>2015-11-10T12:50:23Z</time></trkpt>
<trkpt lat="46.79507" lon="6.47935"><ele>1469</ele><time>2015-11-10T12:50:26Z</time></trkpt>
<trkpt lat="46.79505" lon="6.47939"><ele>1469.2</ele><time>2015-11-10T12:50:28Z</time></trkpt>
<trkpt lat="46.79504" lon="6.47941"><ele>1469.2</ele><time>2015-11-10T12:50:29Z</time></trkpt>
<trkpt lat="46.79504" lon="6.47942"><ele>1469.4</ele><time>2015-11-10T12:50:30Z</time></trkpt>
<trkpt lat="46.79498" lon="6.47961"><ele>1470.4</ele><time>2015-11-10T12:50:41Z</time></trkpt>
<trkpt lat="46.79498" lon="6.47961"><ele>1470.4</ele><time>2015-11-10T12:50:42Z</time></trkpt>
<trkpt lat="46.79498" lon="6.47963"><ele>1470.8</ele><time>2015-11-10T12:50:44Z</time></trkpt>
<trkpt lat="46.79499" lon="6.47963"><ele>1470</ele><time>2015-11-10T12:50:54Z</time></trkpt>
<trkpt lat="46.79499" lon="6.47963"><ele>1469.6</ele><time>2015-11-10T12:50:58Z</time></trkpt>
<trkpt lat="46.79499" lon="6.47963"><ele>1469.4</ele><time>2015-11-10T12:51:01Z</time></trkpt>
<trkpt lat="46.79499" lon="6.47964"><ele>1469.2</ele><time>2015-11-10T12:51:12Z</time></trkpt>
<trkpt lat="46.79499" lon="6.47964"><ele>1469.4</ele><time>2015-11-10T12:51:16Z</time></trkpt>
<trkpt lat="46.79495" lon="6.47968"><ele>1470.2</ele><time>2015-11-10T12:51:22Z</time></trkpt>
<trkpt lat="46.79493" lon="6.47966"><ele>1470.6</ele><time>2015-11-10T12:51:24Z</time></trkpt>
<trkpt lat="46.7948" lon="6.47946"><ele>1472.8</ele><time>2015-11-10T12:51:36Z</time></trkpt>
<trkpt lat="46.79479" lon="6.47944"><ele>1473</ele><time>2015-11-10T12:51:37Z</time></trkpt>
<trkpt lat="46.79465" lon="6.47931"><ele>1475.8</ele><time>2015-11-10T12:51:49Z</time></trkpt>
<trkpt lat="46.79459" lon="6.47925"><ele>1477.4</ele><time>2015-11-10T12:51:55Z</time></trkpt>
<trkpt lat="46.79455" lon="6.47923"><ele>1478.2</ele><time>2015-11-10T12:51:58Z</time></trkpt>
<trkpt lat="46.79454" lon="6.47922"><ele>1478.4</ele><time>2015-11-10T12:51:59Z</time></trkpt>
<trkpt lat="46.79453" lon="6.47922"><ele>1478.6</ele><time>2015-11-10T12:52:00Z</time></trkpt>
<trkpt lat="46.79452" lon="6.47921"><ele>1478.8</ele><time>2015-11-10T12:52:01Z</time></trkpt>
<trkpt lat="46.79447" lon="6.4792"><ele>1479.4</ele><time>2015-11-10T12:52:05Z</time></trkpt>
<trkpt lat="46.79438" lon="6.47913"><ele>1480.8</ele><time>2015-11-10T12:52:13Z</time></trkpt>
<trkpt lat="46.79435" lon="6.47909"><ele>1481.8</ele><time>2015-11-10T12:52:16Z</time></trkpt>
<trkpt lat="46.79427" lon="6.47903"><ele>1483.4</ele><time>2015-11-10T12:52:24Z</time></trkpt>
<trkpt lat="46.79424" lon="6.47897"><ele>1482.8</ele><time>2015-11-10T12:52:38Z</time></trkpt>
<trkpt lat="46.79418" lon="6.47882"><ele>1483.2</ele><time>2015-11-10T12:52:49Z</time></trkpt>
<trkpt lat="46.79414" lon="6.47878"><ele>1483.4</ele><time>2015-11-10T12:52:52Z</time></trkpt>
<trkpt lat="46.7941" lon="6.47868"><ele>1483.6</ele><time>2015-11-10T12:52:58Z</time></trkpt>
<trkpt lat="46.79409" lon="6.47865"><ele>1483.8</ele><time>2015-11-10T12:53:00Z</time></trkpt>
<trkpt lat="46.79407" lon="6.47859"><ele>1483.8</ele><time>2015-11-10T12:53:04Z</time></trkpt>
<trkpt lat="46.79404" lon="6.47855"><ele>1483.6</ele><time>2015-11-10T12:53:08Z</time></trkpt>
<trkpt lat="46.79402" lon="6.47853"><ele>1483.8</ele><time>2015-11-10T12:53:10Z</time></trkpt>
<trkpt lat="46.79401" lon="6.47853"><ele>1483.8</ele><time>2015-11-10T12:53:11Z</time></trkpt>
<trkpt lat="46.794" lon="6.47852"><ele>1483.8</ele><time>2015-11-10T12:53:13Z</time></trkpt>
<trkpt lat="46.79397" lon="6.47852"><ele>1483.8</ele><time>2015-11-10T12:53:16Z</time></trkpt>
<trkpt lat="46.79388" lon="6.4786"><ele>1484.4</ele><time>2015-11-10T12:53:24Z</time></trkpt>
<trkpt lat="46.7938" lon="6.47865"><ele>1485.2</ele><time>2015-11-10T12:53:32Z</time></trkpt>
<trkpt lat="46.79372" lon="6.47865"><ele>1486.6</ele><time>2015-11-10T12:53:41Z</time></trkpt>
<trkpt lat="46.79368" lon="6.47858"><ele>1487.2</ele><time>2015-11-10T12:53:46Z</time></trkpt>
<trkpt lat="46.79365" lon="6.47854"><ele>1487.6</ele><time>2015-11-10T12:53:49Z</time></trkpt>
<trkpt lat="46.79363" lon="6.47851"><ele>1487.8</ele><time>2015-11-10T12:53:51Z</time></trkpt>
<trkpt lat="46.79357" lon="6.47842"><ele>1489.6</ele><time>2015-11-10T12:53:58Z</time></trkpt>
<trkpt lat="46.79355" lon="6.47838"><ele>1490.6</ele><time>2015-11-10T12:54:01Z</time></trkpt>
<trkpt lat="46.79352" lon="6.47834"><ele>1491</ele><time>2015-11-10T12:54:10Z</time></trkpt>
<trkpt lat="46.79348" lon="6.47826"><ele>1492.6</ele><time>2015-11-10T12:54:20Z</time></trkpt>
<trkpt lat="46.79342" lon="6.47809"><ele>1496.2</ele><time>2015-11-10T12:54:35Z</time></trkpt>
<trkpt lat="46.7934" lon="6.47803"><ele>1497.4</ele><time>2015-11-10T12:54:41Z</time></trkpt>
<trkpt lat="46.79339" lon="6.47802"><ele>1497.8</ele><time>2015-11-10T12:54:44Z</time></trkpt>
<trkpt lat="46.79332" lon="6.47796"><ele>1498.6</ele><time>2015-11-10T12:55:07Z</time></trkpt>
<trkpt lat="46.79329" lon="6.47789"><ele>1499.6</ele><time>2015-11-10T12:55:15Z</time></trkpt>
<trkpt lat="46.7932" lon="6.4777"><ele>1502.4</ele><time>2015-11-10T12:55:28Z</time></trkpt>
<trkpt lat="46.79316" lon="6.47767"><ele>1503.2</ele><time>2015-11-10T12:55:31Z</time></trkpt>
<trkpt lat="46.79314" lon="6.47761"><ele>1504</ele><time>2015-11-10T12:55:35Z</time></trkpt>
<trkpt lat="46.79309" lon="6.47738"><ele>1505.4</ele><time>2015-11-10T12:55:46Z</time></trkpt>
<trkpt lat="46.79308" lon="6.47731"><ele>1505.8</ele><time>2015-11-10T12:55:50Z</time></trkpt>
<trkpt lat="46.79302" lon="6.47706"><ele>1509.8</ele><time>2015-11-10T12:56:08Z</time></trkpt>
<trkpt lat="46.793" lon="6.47702"><ele>1510.4</ele><time>2015-11-10T12:56:12Z</time></trkpt>
<trkpt lat="46.79295" lon="6.47687"><ele>1513.4</ele><time>2015-11-10T12:56:28Z</time></trkpt>
<trkpt lat="46.79292" lon="6.47684"><ele>1513.6</ele><time>2015-11-10T12:56:32Z</time></trkpt>
<trkpt lat="46.79291" lon="6.47683"><ele>1513.8</ele><time>2015-11-10T12:56:33Z</time></trkpt>
<trkpt lat="46.79288" lon="6.47666"><ele>1516</ele><time>2015-11-10T12:56:57Z</time></trkpt>
<trkpt lat="46.79277" lon="6.47645"><ele>1517.8</ele><time>2015-11-10T12:57:17Z</time></trkpt>
<trkpt lat="46.79268" lon="6.47628"><ele>1520.8</ele><time>2015-11-10T12:57:41Z</time></trkpt>
<trkpt lat="46.79258" lon="6.47625"><ele>1521.6</ele><time>2015-11-10T12:58:06Z</time></trkpt>
<trkpt lat="46.79255" lon="6.47625"><ele>1522.2</ele><time>2015-11-10T12:58:11Z</time></trkpt>
<trkpt lat="46.79246" lon="6.47623"><ele>1523.2</ele><time>2015-11-10T12:58:22Z</time></trkpt>
<trkpt lat="46.79246" lon="6.47623"><ele>1523.4</ele><time>2015-11-10T12:58:43Z</time></trkpt>
<trkpt lat="46.79246" lon="6.47626"><ele>1523.4</ele><time>2015-11-10T12:58:46Z</time></trkpt>
<trkpt lat="46.79245" lon="6.47627"><ele>1523.4</ele><time>2015-11-10T12:58:47Z</time></trkpt>
<trkpt lat="46.79248" lon="6.47625"><ele>1523.6</ele><time>2015-11-10T12:59:06Z</time></trkpt>
<trkpt lat="46.79248" lon="6.47626"><ele>1523.8</ele><time>2015-11-10T12:59:28Z</time></trkpt>
<trkpt lat="46.79248" lon="6.4763"><ele>1523.6</ele><time>2015-11-10T12:59:32Z</time></trkpt>
<trkpt lat="46.79249" lon="6.47639"><ele>1523.8</ele><time>2015-11-10T12:59:56Z</time></trkpt>
<trkpt lat="46.79246" lon="6.4763"><ele>1523.4</ele><time>2015-11-10T13:00:39Z</time></trkpt>
<trkpt lat="46.79246" lon="6.47629"><ele>1523.4</ele><time>2015-11-10T13:00:45Z</time></trkpt>
<trkpt lat="46.79245" lon="6.47629"><ele>1523.6</ele><time>2015-11-10T13:00:53Z</time></trkpt>
<trkpt lat="46.79245" lon="6.47629"><ele>1523.6</ele><time>2015-11-10T13:00:55Z</time></trkpt>
<trkpt lat="46.79247" lon="6.47626"><ele>1524</ele><time>2015-11-10T13:01:27Z</time></trkpt>
<trkpt lat="46.79247" lon="6.47626"><ele>1524</ele><time>2015-11-10T13:01:28Z</time></trkpt>
<trkpt lat="46.79247" lon="6.47626"><ele>1524</ele><time>2015-11-10T13:01:29Z</time></trkpt>
<trkpt lat="46.79247" lon="6.4763"><ele>1524.4</ele><time>2015-11-10T13:01:34Z</time></trkpt>
<trkpt lat="46.79247" lon="6.4763"><ele>1524.4</ele><time>2015-11-10T13:01:36Z</time></trkpt>
<trkpt lat="46.79247" lon="6.4763"><ele>1524.2</ele><time>2015-11-10T13:01:41Z</time></trkpt>
<trkpt lat="46.79247" lon="6.47629"><ele>1524.2</ele><time>2015-11-10T13:01:43Z</time></trkpt>
<trkpt lat="46.79247" lon="6.47626"><ele>1524.2</ele><time>2015-11-10T13:01:51Z</time></trkpt>
<trkpt lat="46.79246" lon="6.47633"><ele>1524.4</ele><time>2015-11-10T13:02:08Z</time></trkpt>
<trkpt lat="46.79246" lon="6.47628"><ele>1523.8</ele><time>2015-11-10T13:02:18Z</time></trkpt>
<trkpt lat="46.79246" lon="6.47629"><ele>1523.4</ele><time>2015-11-10T13:02:36Z</time></trkpt>
<trkpt lat="46.79248" lon="6.47628"><ele>1522.8</ele><time>2015-11-10T13:03:03Z</time></trkpt>
<trkpt lat="46.79249" lon="6.47629"><ele>1522.8</ele><time>2015-11-10T13:03:06Z</time></trkpt>
<trkpt lat="46.79247" lon="6.47627"><ele>1522.6</ele><time>2015-11-10T13:03:30Z</time></trkpt>
<trkpt lat="46.79247" lon="6.47625"><ele>1522.6</ele><time>2015-11-10T13:03:39Z</time></trkpt>
<trkpt lat="46.79246" lon="6.47624"><ele>1522.6</ele><time>2015-11-10T13:03:45Z</time></trkpt>
<trkpt lat="46.79246" lon="6.47624"><ele>1522.8</ele><time>2015-11-10T13:03:56Z</time></trkpt>
<trkpt lat="46.79246" lon="6.47624"><ele>1522.8</ele><time>2015-11-10T13:03:57Z</time></trkpt>
<trkpt lat="46.79246" lon="6.47625"><ele>1522.8</ele><time>2015-11-10T13:03:58Z</time></trkpt>
<trkpt lat="46.79245" lon="6.47625"><ele>1523.4</ele><time>2015-11-10T13:04:30Z</time></trkpt>
<trkpt lat="46.79245" lon="6.47626"><ele>1524.2</ele><time>2015-11-10T13:04:44Z</time></trkpt>
<trkpt lat="46.79245" lon="6.47626"><ele>1524.4</ele><time>2015-11-10T13:04:45Z</time></trkpt>
<trkpt lat="46.79245" lon="6.47626"><ele>1524.8</ele><time>2015-11-10T13:04:49Z</time></trkpt>
<trkpt lat="46.79245" lon="6.47626"><ele>1524.8</ele><time>2015-11-10T13:04:52Z</time></trkpt>
<trkpt lat="46.79245" lon="6.47629"><ele>1524.4</ele><time>2015-11-10T13:05:01Z</time></trkpt>
<trkpt lat="46.79245" lon="6.47627"><ele>1524.2</ele><time>2015-11-10T13:05:10Z</time></trkpt>
<trkpt lat="46.79246" lon="6.47626"><ele>1524.2</ele><time>2015-11-10T13:05:16Z</time></trkpt>
<trkpt lat="46.79246" lon="6.47626"><ele>1524</ele><time>2015-11-10T13:05:21Z</time></trkpt>
<trkpt lat="46.79246" lon="6.47627"><ele>1524</ele><time>2015-11-10T13:05:24Z</time></trkpt>
<trkpt lat="46.79246" lon="6.47627"><ele>1524</ele><time>2015-11-10T13:05:42Z</time></trkpt>
<trkpt lat="46.79245" lon="6.47628"><ele>1524</ele><time>2015-11-10T13:05:57Z</time></trkpt>
<trkpt lat="46.79245" lon="6.47627"><ele>1524.2</ele><time>2015-11-10T13:06:10Z</time></trkpt>
<trkpt lat="46.79245" lon="6.47627"><ele>1524.4</ele><time>2015-11-10T13:06:16Z</time></trkpt>
<trkpt lat="46.79246" lon="6.47628"><ele>1524.4</ele><time>2015-11-10T13:06:20Z</time></trkpt>
<trkpt lat="46.79246" lon="6.47627"><ele>1524.6</ele><time>2015-11-10T13:06:31Z</time></trkpt>
<trkpt lat="46.79246" lon="6.47627"><ele>1524.6</ele><time>2015-11-10T13:06:32Z</time></trkpt>
<trkpt lat="46.79246" lon="6.47626"><ele>1525</ele><time>2015-11-10T13:06:40Z</time></trkpt>
<trkpt lat="46.79246" lon="6.47626"><ele>1525</ele><time>2015-11-10T13:06:41Z</time></trkpt>
<trkpt lat="46.79246" lon="6.47626"><ele>1524.8</ele><time>2015-11-10T13:06:51Z</time></trkpt>
<trkpt lat="46.79246" lon="6.47626"><ele>1524.6</ele><time>2015-11-10T13:06:58Z</time></trkpt>
<trkpt lat="46.79246" lon="6.47625"><ele>1524.4</ele><time>2015-11-10T13:07:07Z</time></trkpt>
<trkpt lat="46.79246" lon="6.47624"><ele>1524.4</ele><time>2015-11-10T13:07:19Z</time></trkpt>
<trkpt lat="46.79246" lon="6.47624"><ele>1524.6</ele><time>2015-11-10T13:07:24Z</time></trkpt>
<trkpt lat="46.79247" lon="6.47624"><ele>1525.2</ele><time>2015-11-10T13:07:44Z</time></trkpt>
<trkpt lat="46.79246" lon="6.47624"><ele>1525.6</ele><time>2015-11-10T13:07:51Z</time></trkpt>
<trkpt lat="46.79246" lon="6.47623"><ele>1525.6</ele><time>2015-11-10T13:07:56Z</time></trkpt>
<trkpt lat="46.79246" lon="6.47624"><ele>1526.6</ele><time>2015-11-10T13:08:01Z</time></trkpt>
<trkpt lat="46.79247" lon="6.47623"><ele>1525</ele><time>2015-11-10T13:08:17Z</time></trkpt>
<trkpt lat="46.79248" lon="6.47623"><ele>1525.4</ele><time>2015-11-10T13:08:26Z</time></trkpt>
<trkpt lat="46.79248" lon="6.47623"><ele>1525.6</ele><time>2015-11-10T13:08:28Z</time></trkpt>
<trkpt lat="46.79248" lon="6.47623"><ele>1525.6</ele><time>2015-11-10T13:08:33Z</time></trkpt>
<trkpt lat="46.79248" lon="6.47626"><ele>1526.2</ele><time>2015-11-10T13:09:08Z</time></trkpt>
<trkpt lat="46.79248" lon="6.47626"><ele>1526.2</ele><time>2015-11-10T13:09:12Z</time></trkpt>
<trkpt lat="46.79247" lon="6.47627"><ele>1526.2</ele><time>2015-11-10T13:09:16Z</time></trkpt>
<trkpt lat="46.79247" lon="6.47627"><ele>1526</ele><time>2015-11-10T13:09:23Z</time></trkpt>
<trkpt lat="46.79247" lon="6.47627"><ele>1526</ele><time>2015-11-10T13:09:28Z</time></trkpt>
<trkpt lat="46.79247" lon="6.47627"><ele>1526</ele><time>2015-11-10T13:09:30Z</time></trkpt>
<trkpt lat="46.79247" lon="6.47628"><ele>1526</ele><time>2015-11-10T13:09:36Z</time></trkpt>
<trkpt lat="46.79247" lon="6.47628"><ele>1526.2</ele><time>2015-11-10T13:09:39Z</time></trkpt>
<trkpt lat="46.79247" lon="6.47627"><ele>1526</ele><time>2015-11-10T13:09:46Z</time></trkpt>
<trkpt lat="46.79247" lon="6.47626"><ele>1525.8</ele><time>2015-11-10T13:09:57Z</time></trkpt>
<trkpt lat="46.79247" lon="6.47625"><ele>1526</ele><time>2015-11-10T13:09:59Z</time></trkpt>
<trkpt lat="46.79247" lon="6.47625"><ele>1525.8</ele><time>2015-11-10T13:10:04Z</time></trkpt>
<trkpt lat="46.79246" lon="6.47625"><ele>1525.2</ele><time>2015-11-10T13:10:14Z</time></trkpt>
<trkpt lat="46.79246" lon="6.47626"><ele>1525.2</ele><time>2015-11-10T13:10:21Z</time></trkpt>
<trkpt lat="46.79246" lon="6.47626"><ele>1525</ele><time>2015-11-10T13:10:26Z</time></trkpt>
<trkpt lat="46.79246" lon="6.47627"><ele>1524.8</ele><time>2015-11-10T13:10:31Z</time></trkpt>
<trkpt lat="46.79246" lon="6.47626"><ele>1524.4</ele><time>2015-11-10T13:10:49Z</time></trkpt>
<trkpt lat="46.79246" lon="6.47627"><ele>1524.8</ele><time>2015-11-10T13:11:10Z</time></trkpt>
<trkpt lat="46.79246" lon="6.47628"><ele>1524.8</ele><time>2015-11-10T13:11:14Z</time></trkpt>
<trkpt lat="46.79246" lon="6.47626"><ele>1524.4</ele><time>2015-11-10T13:11:34Z</time></trkpt>
<trkpt lat="46.79246" lon="6.47624"><ele>1524.8</ele><time>2015-11-10T13:11:51Z</time></trkpt>
<trkpt lat="46.79246" lon="6.47622"><ele>1524.8</ele><time>2015-11-10T13:12:00Z</time></trkpt>
<trkpt lat="46.79246" lon="6.47623"><ele>1524.4</ele><time>2015-11-10T13:12:33Z</time></trkpt>
<trkpt lat="46.79245" lon="6.47623"><ele>1523.8</ele><time>2015-11-10T13:12:44Z</time></trkpt>
<trkpt lat="46.79246" lon="6.47622"><ele>1521.8</ele><time>2015-11-10T13:13:09Z</time></trkpt>
<trkpt lat="46.79246" lon="6.47621"><ele>1521.6</ele><time>2015-11-10T13:13:21Z</time></trkpt>
<trkpt lat="46.79246" lon="6.47621"><ele>1521.6</ele><time>2015-11-10T13:13:24Z</time></trkpt>
<trkpt lat="46.79247" lon="6.47622"><ele>1522.4</ele><time>2015-11-10T13:14:23Z</time></trkpt>
<trkpt lat="46.79245" lon="6.4762"><ele>1522.8</ele><time>2015-11-10T13:15:15Z</time></trkpt>
<trkpt lat="46.79244" lon="6.4762"><ele>1523</ele><time>2015-11-10T13:15:19Z</time></trkpt>
<trkpt lat="46.79244" lon="6.47619"><ele>1523.2</ele><time>2015-11-10T13:15:22Z</time></trkpt>
<trkpt lat="46.79245" lon="6.47619"><ele>1523</ele><time>2015-11-10T13:15:34Z</time></trkpt>
<trkpt lat="46.79246" lon="6.47621"><ele>1522.2</ele><time>2015-11-10T13:16:09Z</time></trkpt>
<trkpt lat="46.79245" lon="6.47622"><ele>1522.2</ele><time>2015-11-10T13:16:14Z</time></trkpt>
<trkpt lat="46.79245" lon="6.47622"><ele>1522.2</ele><time>2015-11-10T13:16:15Z</time></trkpt>
<trkpt lat="46.79255" lon="6.4763"><ele>1524</ele><time>2015-11-10T13:16:56Z</time></trkpt>
<trkpt lat="46.79257" lon="6.47648"><ele>1523</ele><time>2015-11-10T13:17:03Z</time></trkpt>
<trkpt lat="46.79267" lon="6.47665"><ele>1520.4</ele><time>2015-11-10T13:17:10Z</time></trkpt>
<trkpt lat="46.79267" lon="6.47667"><ele>1520</ele><time>2015-11-10T13:17:11Z</time></trkpt>
<trkpt lat="46.79271" lon="6.47683"><ele>1516.8</ele><time>2015-11-10T13:17:17Z</time></trkpt>
<trkpt lat="46.79279" lon="6.47697"><ele>1511.8</ele><time>2015-11-10T13:17:24Z</time></trkpt>
<trkpt lat="46.7928" lon="6.47697"><ele>1511.2</ele><time>2015-11-10T13:17:25Z</time></trkpt>
<trkpt lat="46.79281" lon="6.47697"><ele>1510.6</ele><time>2015-11-10T13:17:26Z</time></trkpt>
<trkpt lat="46.79281" lon="6.47697"><ele>1511</ele><time>2015-11-10T13:17:27Z</time></trkpt>
<trkpt lat="46.79288" lon="6.477"><ele>1509</ele><time>2015-11-10T13:17:33Z</time></trkpt>
<trkpt lat="46.79296" lon="6.47726"><ele>1504.4</ele><time>2015-11-10T13:17:40Z</time></trkpt>
<trkpt lat="46.79299" lon="6.47743"><ele>1503</ele><time>2015-11-10T13:17:43Z</time></trkpt>
<trkpt lat="46.79301" lon="6.47753"><ele>1502.4</ele><time>2015-11-10T13:17:45Z</time></trkpt>
<trkpt lat="46.7931" lon="6.47766"><ele>1501</ele><time>2015-11-10T13:17:52Z</time></trkpt>
<trkpt lat="46.79317" lon="6.47771"><ele>1501</ele><time>2015-11-10T13:17:56Z</time></trkpt>
<trkpt lat="46.79321" lon="6.47775"><ele>1500.6</ele><time>2015-11-10T13:17:58Z</time></trkpt>
<trkpt lat="46.79323" lon="6.47777"><ele>1499</ele><time>2015-11-10T13:17:59Z</time></trkpt>
<trkpt lat="46.79326" lon="6.47805"><ele>1497.4</ele><time>2015-11-10T13:18:06Z</time></trkpt>
<trkpt lat="46.79327" lon="6.47825"><ele>1495.6</ele><time>2015-11-10T13:18:10Z</time></trkpt>
<trkpt lat="46.79334" lon="6.47853"><ele>1493.4</ele><time>2015-11-10T13:18:15Z</time></trkpt>
<trkpt lat="46.79344" lon="6.47876"><ele>1490.6</ele><time>2015-11-10T13:18:23Z</time></trkpt>
<trkpt lat="46.79346" lon="6.47882"><ele>1490.6</ele><time>2015-11-10T13:18:27Z</time></trkpt>
<trkpt lat="46.79358" lon="6.4787"><ele>1490.8</ele><time>2015-11-10T13:18:57Z</time></trkpt>
<trkpt lat="46.79365" lon="6.4786"><ele>1490</ele><time>2015-11-10T13:19:01Z</time></trkpt>
<trkpt lat="46.79374" lon="6.47866"><ele>1489.8</ele><time>2015-11-10T13:19:04Z</time></trkpt>
<trkpt lat="46.79378" lon="6.47872"><ele>1490.2</ele><time>2015-11-10T13:19:06Z</time></trkpt>
<trkpt lat="46.79379" lon="6.47876"><ele>1490.4</ele><time>2015-11-10T13:19:07Z</time></trkpt>
<trkpt lat="46.79391" lon="6.47893"><ele>1490</ele><time>2015-11-10T13:19:14Z</time></trkpt>
<trkpt lat="46.794" lon="6.47919"><ele>1490.2</ele><time>2015-11-10T13:19:22Z</time></trkpt>
<trkpt lat="46.79417" lon="6.47933"><ele>1489.8</ele><time>2015-11-10T13:19:29Z</time></trkpt>
<trkpt lat="46.79436" lon="6.47944"><ele>1490</ele><time>2015-11-10T13:19:35Z</time></trkpt>
<trkpt lat="46.79443" lon="6.47946"><ele>1489.2</ele><time>2015-11-10T13:19:38Z</time></trkpt>
<trkpt lat="46.7945" lon="6.47949"><ele>1488.2</ele><time>2015-11-10T13:19:43Z</time></trkpt>
<trkpt lat="46.79464" lon="6.47959"><ele>1485.2</ele><time>2015-11-10T13:19:53Z</time></trkpt>
<trkpt lat="46.79464" lon="6.4796"><ele>1484.8</ele><time>2015-11-10T13:19:56Z</time></trkpt>
<trkpt lat="46.79475" lon="6.47969"><ele>1484.2</ele><time>2015-11-10T13:20:12Z</time></trkpt>
<trkpt lat="46.79491" lon="6.47985"><ele>1482.4</ele><time>2015-11-10T13:20:30Z</time></trkpt>
<trkpt lat="46.79495" lon="6.47989"><ele>1482.2</ele><time>2015-11-10T13:20:35Z</time></trkpt>
<trkpt lat="46.79497" lon="6.47996"><ele>1482</ele><time>2015-11-10T13:20:39Z</time></trkpt>
<trkpt lat="46.79505" lon="6.48021"><ele>1481.2</ele><time>2015-11-10T13:20:45Z</time></trkpt>
<trkpt lat="46.79514" lon="6.48045"><ele>1480.2</ele><time>2015-11-10T13:20:52Z</time></trkpt>
<trkpt lat="46.79521" lon="6.4807"><ele>1480.2</ele><time>2015-11-10T13:21:04Z</time></trkpt>
<trkpt lat="46.79535" lon="6.48088"><ele>1481.2</ele><time>2015-11-10T13:21:16Z</time></trkpt>
<trkpt lat="46.79536" lon="6.48089"><ele>1481.2</ele><time>2015-11-10T13:21:17Z</time></trkpt>
<trkpt lat="46.7954" lon="6.4809"><ele>1481.6</ele><time>2015-11-10T13:21:20Z</time></trkpt>
<trkpt lat="46.79552" lon="6.48103"><ele>1480.2</ele><time>2015-11-10T13:21:31Z</time></trkpt>
<trkpt lat="46.79553" lon="6.48105"><ele>1480.2</ele><time>2015-11-10T13:21:32Z</time></trkpt>
<trkpt lat="46.79558" lon="6.48126"><ele>1480</ele><time>2015-11-10T13:21:43Z</time></trkpt>
<trkpt lat="46.79558" lon="6.48129"><ele>1480</ele><time>2015-11-10T13:21:45Z</time></trkpt>
<trkpt lat="46.7956" lon="6.48135"><ele>1480.2</ele><time>2015-11-10T13:21:49Z</time></trkpt>
<trkpt lat="46.7956" lon="6.48135"><ele>1480</ele><time>2015-11-10T13:21:52Z</time></trkpt>
<trkpt lat="46.79561" lon="6.48137"><ele>1478.6</ele><time>2015-11-10T13:22:24Z</time></trkpt>
<trkpt lat="46.79567" lon="6.48162"><ele>1478.6</ele><time>2015-11-10T13:22:41Z</time></trkpt>
<trkpt lat="46.79571" lon="6.48181"><ele>1478.6</ele><time>2015-11-10T13:22:48Z</time></trkpt>
<trkpt lat="46.79576" lon="6.48206"><ele>1478.8</ele><time>2015-11-10T13:22:58Z</time></trkpt>
<trkpt lat="46.79576" lon="6.48233"><ele>1478.6</ele><time>2015-11-10T13:23:08Z</time></trkpt>
<trkpt lat="46.7958" lon="6.48243"><ele>1479</ele><time>2015-11-10T13:23:12Z</time></trkpt>
<trkpt lat="46.79585" lon="6.48261"><ele>1479.6</ele><time>2015-11-10T13:23:19Z</time></trkpt>
<trkpt lat="46.79586" lon="6.48269"><ele>1480</ele><time>2015-11-10T13:23:22Z</time></trkpt>
<trkpt lat="46.79585" lon="6.48297"><ele>1480.4</ele><time>2015-11-10T13:23:32Z</time></trkpt>
<trkpt lat="46.79591" lon="6.48323"><ele>1479.6</ele><time>2015-11-10T13:23:41Z</time></trkpt>
<trkpt lat="46.79596" lon="6.48349"><ele>1480.4</ele><time>2015-11-10T13:23:49Z</time></trkpt>
<trkpt lat="46.79597" lon="6.48361"><ele>1480</ele><time>2015-11-10T13:23:53Z</time></trkpt>
<trkpt lat="46.79594" lon="6.48388"><ele>1480.4</ele><time>2015-11-10T13:24:01Z</time></trkpt>
<trkpt lat="46.7959" lon="6.48416"><ele>1480</ele><time>2015-11-10T13:24:10Z</time></trkpt>
<trkpt lat="46.79598" lon="6.48442"><ele>1480.6</ele><time>2015-11-10T13:24:20Z</time></trkpt>
<trkpt lat="46.79603" lon="6.48469"><ele>1480.8</ele><time>2015-11-10T13:24:31Z</time></trkpt>
<trkpt lat="46.79606" lon="6.48496"><ele>1482.2</ele><time>2015-11-10T13:24:43Z</time></trkpt>
<trkpt lat="46.79611" lon="6.48522"><ele>1480.6</ele><time>2015-11-10T13:24:51Z</time></trkpt>
<trkpt lat="46.79617" lon="6.48547"><ele>1480.6</ele><time>2015-11-10T13:24:58Z</time></trkpt>
<trkpt lat="46.79619" lon="6.48556"><ele>1481.6</ele><time>2015-11-10T13:25:03Z</time></trkpt>
<trkpt lat="46.7962" lon="6.48562"><ele>1482.2</ele><time>2015-11-10T13:25:06Z</time></trkpt>
<trkpt lat="46.79621" lon="6.48565"><ele>1482.6</ele><time>2015-11-10T13:25:08Z</time></trkpt>
<trkpt lat="46.79625" lon="6.48593"><ele>1483.2</ele><time>2015-11-10T13:25:22Z</time></trkpt>
<trkpt lat="46.79625" lon="6.48604"><ele>1483.4</ele><time>2015-11-10T13:25:27Z</time></trkpt>
<trkpt lat="46.79635" lon="6.48626"><ele>1484.4</ele><time>2015-11-10T13:25:38Z</time></trkpt>
<trkpt lat="46.79636" lon="6.48628"><ele>1484.6</ele><time>2015-11-10T13:25:39Z</time></trkpt>
<trkpt lat="46.79637" lon="6.4863"><ele>1484.8</ele><time>2015-11-10T13:25:40Z</time></trkpt>
<trkpt lat="46.79642" lon="6.48645"><ele>1486.2</ele><time>2015-11-10T13:25:47Z</time></trkpt>
<trkpt lat="46.79646" lon="6.48657"><ele>1486.8</ele><time>2015-11-10T13:25:52Z</time></trkpt>
<trkpt lat="46.79653" lon="6.48674"><ele>1486.2</ele><time>2015-11-10T13:26:00Z</time></trkpt>
<trkpt lat="46.79656" lon="6.48679"><ele>1486.4</ele><time>2015-11-10T13:26:03Z</time></trkpt>
<trkpt lat="46.79668" lon="6.48698"><ele>1487</ele><time>2015-11-10T13:26:13Z</time></trkpt>
<trkpt lat="46.79672" lon="6.48706"><ele>1488</ele><time>2015-11-10T13:26:18Z</time></trkpt>
<trkpt lat="46.7968" lon="6.4873"><ele>1490.8</ele><time>2015-11-10T13:26:33Z</time></trkpt>
<trkpt lat="46.79683" lon="6.48756"><ele>1494.4</ele><time>2015-11-10T13:26:49Z</time></trkpt>
<trkpt lat="46.79684" lon="6.48758"><ele>1494.6</ele><time>2015-11-10T13:26:50Z</time></trkpt>
<trkpt lat="46.79685" lon="6.48767"><ele>1496</ele><time>2015-11-10T13:26:56Z</time></trkpt>
<trkpt lat="46.79686" lon="6.48772"><ele>1497</ele><time>2015-11-10T13:26:59Z</time></trkpt>
<trkpt lat="46.79687" lon="6.4879"><ele>1500</ele><time>2015-11-10T13:27:11Z</time></trkpt>
<trkpt lat="46.79698" lon="6.48812"><ele>1500.6</ele><time>2015-11-10T13:27:24Z</time></trkpt>
<trkpt lat="46.79704" lon="6.4882"><ele>1501</ele><time>2015-11-10T13:27:31Z</time></trkpt>
<trkpt lat="46.79704" lon="6.48821"><ele>1501</ele><time>2015-11-10T13:27:32Z</time></trkpt>
<trkpt lat="46.79712" lon="6.4883"><ele>1500</ele><time>2015-11-10T13:27:45Z</time></trkpt>
<trkpt lat="46.79712" lon="6.48829"><ele>1500.2</ele><time>2015-11-10T13:27:52Z</time></trkpt>
<trkpt lat="46.79716" lon="6.48829"><ele>1500.8</ele><time>2015-11-10T13:28:13Z</time></trkpt>
<trkpt lat="46.79717" lon="6.4883"><ele>1500.6</ele><time>2015-11-10T13:28:23Z</time></trkpt>
<trkpt lat="46.79714" lon="6.4883"><ele>1500.4</ele><time>2015-11-10T13:28:39Z</time></trkpt>
<trkpt lat="46.79714" lon="6.48829"><ele>1500.8</ele><time>2015-11-10T13:28:50Z</time></trkpt>
<trkpt lat="46.79713" lon="6.48829"><ele>1500.6</ele><time>2015-11-10T13:29:12Z</time></trkpt>
<trkpt lat="46.79711" lon="6.48826"><ele>1500.6</ele><time>2015-11-10T13:29:19Z</time></trkpt>
<trkpt lat="46.79711" lon="6.48826"><ele>1501</ele><time>2015-11-10T13:29:30Z</time></trkpt>
<trkpt lat="46.79714" lon="6.48826"><ele>1500.8</ele><time>2015-11-10T13:29:45Z</time></trkpt>
<trkpt lat="46.79716" lon="6.48827"><ele>1501</ele><time>2015-11-10T13:29:56Z</time></trkpt>
<trkpt lat="46.79714" lon="6.48827"><ele>1501</ele><time>2015-11-10T13:30:07Z</time></trkpt>
<trkpt lat="46.79715" lon="6.48828"><ele>1501.8</ele><time>2015-11-10T13:30:13Z</time></trkpt>
<trkpt lat="46.79734" lon="6.48834"><ele>1501.6</ele><time>2015-11-10T13:30:36Z</time></trkpt>
<trkpt lat="46.79749" lon="6.48853"><ele>1497.8</ele><time>2015-11-10T13:30:42Z</time></trkpt>
<trkpt lat="46.79755" lon="6.48864"><ele>1495.4</ele><time>2015-11-10T13:30:44Z</time></trkpt>
<trkpt lat="46.79773" lon="6.48885"><ele>1492.6</ele><time>2015-11-10T13:30:48Z</time></trkpt>
<trkpt lat="46.79776" lon="6.48889"><ele>1492.4</ele><time>2015-11-10T13:30:49Z</time></trkpt>
<trkpt lat="46.79779" lon="6.48894"><ele>1492.6</ele><time>2015-11-10T13:30:50Z</time></trkpt>
<trkpt lat="46.79787" lon="6.48902"><ele>1491.8</ele><time>2015-11-10T13:30:55Z</time></trkpt>
<trkpt lat="46.79798" lon="6.48912"><ele>1490</ele><time>2015-11-10T13:31:03Z</time></trkpt>
<trkpt lat="46.79803" lon="6.4892"><ele>1489.2</ele><time>2015-11-10T13:31:06Z</time></trkpt>
<trkpt lat="46.79815" lon="6.48944"><ele>1486.4</ele><time>2015-11-10T13:31:12Z</time></trkpt>
<trkpt lat="46.79826" lon="6.48965"><ele>1483.8</ele><time>2015-11-10T13:31:21Z</time></trkpt>
<trkpt lat="46.79833" lon="6.48989"><ele>1480</ele><time>2015-11-10T13:31:48Z</time></trkpt>
<trkpt lat="46.79834" lon="6.48992"><ele>1479.8</ele><time>2015-11-10T13:31:50Z</time></trkpt>
<trkpt lat="46.79836" lon="6.48998"><ele>1479</ele><time>2015-11-10T13:31:55Z</time></trkpt>
<trkpt lat="46.79838" lon="6.49001"><ele>1478.6</ele><time>2015-11-10T13:31:58Z</time></trkpt>
<trkpt lat="46.79839" lon="6.49002"><ele>1478.4</ele><time>2015-11-10T13:31:59Z</time></trkpt>
<trkpt lat="46.79845" lon="6.49013"><ele>1476.4</ele><time>2015-11-10T13:32:07Z</time></trkpt>
<trkpt lat="46.79846" lon="6.49015"><ele>1476</ele><time>2015-11-10T13:32:09Z</time></trkpt>
<trkpt lat="46.79848" lon="6.4902"><ele>1474.8</ele><time>2015-11-10T13:32:13Z</time></trkpt>
<trkpt lat="46.79854" lon="6.4903"><ele>1472.4</ele><time>2015-11-10T13:32:19Z</time></trkpt>
<trkpt lat="46.79856" lon="6.49037"><ele>1472.6</ele><time>2015-11-10T13:32:23Z</time></trkpt>
<trkpt lat="46.79856" lon="6.49038"><ele>1472.6</ele><time>2015-11-10T13:32:24Z</time></trkpt>
<trkpt lat="46.79856" lon="6.49038"><ele>1472.8</ele><time>2015-11-10T13:32:26Z</time></trkpt>
<trkpt lat="46.7986" lon="6.49048"><ele>1472.6</ele><time>2015-11-10T13:32:35Z</time></trkpt>
<trkpt lat="46.79869" lon="6.49061"><ele>1471.8</ele><time>2015-11-10T13:32:45Z</time></trkpt>
<trkpt lat="46.79876" lon="6.49086"><ele>1469.8</ele><time>2015-11-10T13:32:52Z</time></trkpt>
<trkpt lat="46.79882" lon="6.49103"><ele>1467.8</ele><time>2015-11-10T13:32:59Z</time></trkpt>
<trkpt lat="46.79885" lon="6.4911"><ele>1466.8</ele><time>2015-11-10T13:33:02Z</time></trkpt>
<trkpt lat="46.79889" lon="6.49124"><ele>1465</ele><time>2015-11-10T13:33:09Z</time></trkpt>
<trkpt lat="46.79892" lon="6.49136"><ele>1464.4</ele><time>2015-11-10T13:33:16Z</time></trkpt>
<trkpt lat="46.79898" lon="6.49151"><ele>1463.2</ele><time>2015-11-10T13:33:21Z</time></trkpt>
<trkpt lat="46.79901" lon="6.49156"><ele>1462.2</ele><time>2015-11-10T13:33:24Z</time></trkpt>
<trkpt lat="46.79908" lon="6.49168"><ele>1460</ele><time>2015-11-10T13:33:36Z</time></trkpt>
<trkpt lat="46.7991" lon="6.49175"><ele>1459.4</ele><time>2015-11-10T13:33:42Z</time></trkpt>
<trkpt lat="46.79911" lon="6.49175"><ele>1459.8</ele><time>2015-11-10T13:33:50Z</time></trkpt>
<trkpt lat="46.79911" lon="6.49175"><ele>1460</ele><time>2015-11-10T13:33:56Z</time></trkpt>
<trkpt lat="46.79913" lon="6.49175"><ele>1460</ele><time>2015-11-10T13:34:08Z</time></trkpt>
<trkpt lat="46.79914" lon="6.49175"><ele>1460</ele><time>2015-11-10T13:34:10Z</time></trkpt>
<trkpt lat="46.79918" lon="6.49187"><ele>1459.8</ele><time>2015-11-10T13:34:19Z</time></trkpt>
<trkpt lat="46.79924" lon="6.49206"><ele>1458.6</ele><time>2015-11-10T13:34:35Z</time></trkpt>
<trkpt lat="46.79925" lon="6.4921"><ele>1458</ele><time>2015-11-10T13:34:40Z</time></trkpt>
<trkpt lat="46.79926" lon="6.49213"><ele>1457.6</ele><time>2015-11-10T13:34:42Z</time></trkpt>
<trkpt lat="46.79927" lon="6.49216"><ele>1457</ele><time>2015-11-10T13:34:45Z</time></trkpt>
<trkpt lat="46.79929" lon="6.49223"><ele>1454.6</ele><time>2015-11-10T13:35:00Z</time></trkpt>
<trkpt lat="46.79936" lon="6.49237"><ele>1453.8</ele><time>2015-11-10T13:35:28Z</time></trkpt>
<trkpt lat="46.79944" lon="6.49263"><ele>1453.2</ele><time>2015-11-10T13:35:39Z</time></trkpt>
<trkpt lat="46.79954" lon="6.49287"><ele>1450</ele><time>2015-11-10T13:35:49Z</time></trkpt>
<trkpt lat="46.79964" lon="6.49309"><ele>1445.6</ele><time>2015-11-10T13:36:00Z</time></trkpt>
<trkpt lat="46.79969" lon="6.49316"><ele>1443.8</ele><time>2015-11-10T13:36:03Z</time></trkpt>
<trkpt lat="46.79971" lon="6.49323"><ele>1442</ele><time>2015-11-10T13:36:06Z</time></trkpt>
<trkpt lat="46.7998" lon="6.49335"><ele>1435</ele><time>2015-11-10T13:36:25Z</time></trkpt>
<trkpt lat="46.7998" lon="6.49336"><ele>1434.6</ele><time>2015-11-10T13:36:27Z</time></trkpt>
<trkpt lat="46.7998" lon="6.49336"><ele>1434.4</ele><time>2015-11-10T13:36:28Z</time></trkpt>
<trkpt lat="46.79981" lon="6.49338"><ele>1434.2</ele><time>2015-11-10T13:36:33Z</time></trkpt>
<trkpt lat="46.79985" lon="6.49346"><ele>1433.4</ele><time>2015-11-10T13:36:43Z</time></trkpt>
<trkpt lat="46.79988" lon="6.4935"><ele>1432.6</ele><time>2015-11-10T13:37:05Z</time></trkpt>
<trkpt lat="46.79987" lon="6.49349"><ele>1432.6</ele><time>2015-11-10T13:37:10Z</time></trkpt>
<trkpt lat="46.79987" lon="6.49349"><ele>1432.8</ele><time>2015-11-10T13:37:12Z</time></trkpt>
<trkpt lat="46.79988" lon="6.49349"><ele>1433</ele><time>2015-11-10T13:37:13Z</time></trkpt>
<trkpt lat="46.79988" lon="6.49349"><ele>1433.2</ele><time>2015-11-10T13:37:15Z</time></trkpt>
<trkpt lat="46.79988" lon="6.49349"><ele>1433.6</ele><time>2015-11-10T13:37:17Z</time></trkpt>
<trkpt lat="46.79988" lon="6.49349"><ele>1433.8</ele><time>2015-11-10T13:37:18Z</time></trkpt>
<trkpt lat="46.79988" lon="6.49349"><ele>1434</ele><time>2015-11-10T13:37:21Z</time></trkpt>
<trkpt lat="46.79989" lon="6.49349"><ele>1434.2</ele><time>2015-11-10T13:37:24Z</time></trkpt>
<trkpt lat="46.79989" lon="6.49349"><ele>1434.4</ele><time>2015-11-10T13:37:25Z</time></trkpt>
<trkpt lat="46.7999" lon="6.49349"><ele>1434.8</ele><time>2015-11-10T13:37:28Z</time></trkpt>
<trkpt lat="46.79991" lon="6.4935"><ele>1434.8</ele><time>2015-11-10T13:37:30Z</time></trkpt>
<trkpt lat="46.79992" lon="6.49351"><ele>1435</ele><time>2015-11-10T13:37:34Z</time></trkpt>
<trkpt lat="46.79993" lon="6.49353"><ele>1435.6</ele><time>2015-11-10T13:37:43Z</time></trkpt>
<trkpt lat="46.79993" lon="6.49354"><ele>1435.6</ele><time>2015-11-10T13:37:47Z</time></trkpt>
<trkpt lat="46.79994" lon="6.49355"><ele>1435.8</ele><time>2015-11-10T13:37:55Z</time></trkpt>
<trkpt lat="46.79998" lon="6.49363"><ele>1435</ele><time>2015-11-10T13:38:04Z</time></trkpt>
<trkpt lat="46.8" lon="6.49368"><ele>1434.4</ele><time>2015-11-10T13:38:07Z</time></trkpt>
<trkpt lat="46.80001" lon="6.4937"><ele>1434.2</ele><time>2015-11-10T13:38:08Z</time></trkpt>
<trkpt lat="46.80001" lon="6.49371"><ele>1434</ele><time>2015-11-10T13:38:09Z</time></trkpt>
<trkpt lat="46.80003" lon="6.49375"><ele>1433.6</ele><time>2015-11-10T13:38:11Z</time></trkpt>
<trkpt lat="46.80006" lon="6.49389"><ele>1431</ele><time>2015-11-10T13:38:18Z</time></trkpt>
<trkpt lat="46.80007" lon="6.49393"><ele>1430.4</ele><time>2015-11-10T13:38:20Z</time></trkpt>
<trkpt lat="46.80009" lon="6.49396"><ele>1429.8</ele><time>2015-11-10T13:38:22Z</time></trkpt>
<trkpt lat="46.80013" lon="6.49408"><ele>1427</ele><time>2015-11-10T13:38:30Z</time></trkpt>
<trkpt lat="46.80016" lon="6.49417"><ele>1425.4</ele><time>2015-11-10T13:38:35Z</time></trkpt>
<trkpt lat="46.80023" lon="6.49437"><ele>1424</ele><time>2015-11-10T13:38:44Z</time></trkpt>
<trkpt lat="46.80029" lon="6.49452"><ele>1421.6</ele><time>2015-11-10T13:38:49Z</time></trkpt>
<trkpt lat="46.80032" lon="6.49474"><ele>1420</ele><time>2015-11-10T13:38:59Z</time></trkpt>
<trkpt lat="46.80035" lon="6.49478"><ele>1420</ele><time>2015-11-10T13:39:09Z</time></trkpt>
<trkpt lat="46.80036" lon="6.49479"><ele>1420.2</ele><time>2015-11-10T13:39:10Z</time></trkpt>
<trkpt lat="46.80036" lon="6.49497"><ele>1420.6</ele><time>2015-11-10T13:39:24Z</time></trkpt>
<trkpt lat="46.80037" lon="6.49515"><ele>1421</ele><time>2015-11-10T13:39:38Z</time></trkpt>
<trkpt lat="46.80037" lon="6.49517"><ele>1421</ele><time>2015-11-10T13:39:39Z</time></trkpt>
<trkpt lat="46.80044" lon="6.49538"><ele>1421.6</ele><time>2015-11-10T13:39:58Z</time></trkpt>
<trkpt lat="46.80046" lon="6.49542"><ele>1421.2</ele><time>2015-11-10T13:40:04Z</time></trkpt>
<trkpt lat="46.80047" lon="6.49545"><ele>1421</ele><time>2015-11-10T13:40:06Z</time></trkpt>
<trkpt lat="46.80049" lon="6.49552"><ele>1420.8</ele><time>2015-11-10T13:40:10Z</time></trkpt>
<trkpt lat="46.80049" lon="6.49552"><ele>1420.6</ele><time>2015-11-10T13:40:14Z</time></trkpt>
<trkpt lat="46.80049" lon="6.49553"><ele>1420.6</ele><time>2015-11-10T13:40:15Z</time></trkpt>
<trkpt lat="46.8005" lon="6.49554"><ele>1420.6</ele><time>2015-11-10T13:40:16Z</time></trkpt>
<trkpt lat="46.80061" lon="6.4958"><ele>1418.6</ele><time>2015-11-10T13:40:24Z</time></trkpt>
<trkpt lat="46.8007" lon="6.49607"><ele>1414.4</ele><time>2015-11-10T13:40:30Z</time></trkpt>
<trkpt lat="46.80078" lon="6.49632"><ele>1408.6</ele><time>2015-11-10T13:40:36Z</time></trkpt>
<trkpt lat="46.80085" lon="6.49659"><ele>1403.2</ele><time>2015-11-10T13:40:42Z</time></trkpt>
<trkpt lat="46.80094" lon="6.49685"><ele>1397.4</ele><time>2015-11-10T13:40:48Z</time></trkpt>
<trkpt lat="46.80098" lon="6.49712"><ele>1394.8</ele><time>2015-11-10T13:40:53Z</time></trkpt>
<trkpt lat="46.80105" lon="6.4974"><ele>1389.4</ele><time>2015-11-10T13:40:59Z</time></trkpt>
<trkpt lat="46.80114" lon="6.49758"><ele>1385.4</ele><time>2015-11-10T13:41:03Z</time></trkpt>
<trkpt lat="46.80124" lon="6.49781"><ele>1382</ele><time>2015-11-10T13:41:09Z</time></trkpt>
<trkpt lat="46.80125" lon="6.49788"><ele>1381</ele><time>2015-11-10T13:41:11Z</time></trkpt>
<trkpt lat="46.80127" lon="6.49794"><ele>1380</ele><time>2015-11-10T13:41:15Z</time></trkpt>
<trkpt lat="46.80132" lon="6.4981"><ele>1378.2</ele><time>2015-11-10T13:41:21Z</time></trkpt>
<trkpt lat="46.80138" lon="6.49825"><ele>1376.2</ele><time>2015-11-10T13:41:25Z</time></trkpt>
<trkpt lat="46.80138" lon="6.4984"><ele>1375.6</ele><time>2015-11-10T13:41:28Z</time></trkpt>
<trkpt lat="46.80137" lon="6.4985"><ele>1375.4</ele><time>2015-11-10T13:41:32Z</time></trkpt>
<trkpt lat="46.80137" lon="6.49852"><ele>1375.2</ele><time>2015-11-10T13:41:33Z</time></trkpt>
<trkpt lat="46.80146" lon="6.49879"><ele>1373.6</ele><time>2015-11-10T13:41:42Z</time></trkpt>
<trkpt lat="46.80149" lon="6.49897"><ele>1372.2</ele><time>2015-11-10T13:41:46Z</time></trkpt>
<trkpt lat="46.80151" lon="6.49911"><ele>1370</ele><time>2015-11-10T13:41:50Z</time></trkpt>
<trkpt lat="46.8016" lon="6.49937"><ele>1370</ele><time>2015-11-10T13:41:56Z</time></trkpt>
<trkpt lat="46.8017" lon="6.49959"><ele>1369.4</ele><time>2015-11-10T13:42:02Z</time></trkpt>
<trkpt lat="46.8018" lon="6.49974"><ele>1367.6</ele><time>2015-11-10T13:42:07Z</time></trkpt>
<trkpt lat="46.80188" lon="6.49989"><ele>1368</ele><time>2015-11-10T13:42:25Z</time></trkpt>
<trkpt lat="46.80189" lon="6.49989"><ele>1369</ele><time>2015-11-10T13:42:43Z</time></trkpt>
<trkpt lat="46.80188" lon="6.4999"><ele>1370.2</ele><time>2015-11-10T13:42:51Z</time></trkpt>
<trkpt lat="46.80188" lon="6.4999"><ele>1369.4</ele><time>2015-11-10T13:42:59Z</time></trkpt>
<trkpt lat="46.80187" lon="6.49996"><ele>1370.8</ele><time>2015-11-10T13:43:17Z</time></trkpt>
<trkpt lat="46.80188" lon="6.49997"><ele>1371</ele><time>2015-11-10T13:43:18Z</time></trkpt>
<trkpt lat="46.80188" lon="6.49999"><ele>1371</ele><time>2015-11-10T13:43:19Z</time></trkpt>
<trkpt lat="46.8019" lon="6.50001"><ele>1371.2</ele><time>2015-11-10T13:43:20Z</time></trkpt>
<trkpt lat="46.80193" lon="6.5"><ele>1370.8</ele><time>2015-11-10T13:43:23Z</time></trkpt>
<trkpt lat="46.80199" lon="6.49996"><ele>1368.8</ele><time>2015-11-10T13:43:34Z</time></trkpt>
<trkpt lat="46.802" lon="6.49997"><ele>1368.6</ele><time>2015-11-10T13:43:35Z</time></trkpt>
<trkpt lat="46.80201" lon="6.49999"><ele>1368.4</ele><time>2015-11-10T13:43:39Z</time></trkpt>
<trkpt lat="46.80206" lon="6.5"><ele>1367.6</ele><time>2015-11-10T13:43:43Z</time></trkpt>
<trkpt lat="46.8021" lon="6.50003"><ele>1367</ele><time>2015-11-10T13:43:47Z</time></trkpt>
<trkpt lat="46.8022" lon="6.50027"><ele>1367</ele><time>2015-11-10T13:43:54Z</time></trkpt>
<trkpt lat="46.80223" lon="6.5004"><ele>1367.2</ele><time>2015-11-10T13:43:59Z</time></trkpt>
<trkpt lat="46.80229" lon="6.50057"><ele>1367.2</ele><time>2015-11-10T13:44:05Z</time></trkpt>
<trkpt lat="46.8023" lon="6.50059"><ele>1367</ele><time>2015-11-10T13:44:06Z</time></trkpt>
<trkpt lat="46.80232" lon="6.50069"><ele>1366.8</ele><time>2015-11-10T13:44:11Z</time></trkpt>
<trkpt lat="46.80237" lon="6.50094"><ele>1363.4</ele><time>2015-11-10T13:44:21Z</time></trkpt>
<trkpt lat="46.80241" lon="6.50111"><ele>1360</ele><time>2015-11-10T13:44:25Z</time></trkpt>
<trkpt lat="46.80242" lon="6.50139"><ele>1357</ele><time>2015-11-10T13:44:31Z</time></trkpt>
<trkpt lat="46.80242" lon="6.50152"><ele>1355</ele><time>2015-11-10T13:44:37Z</time></trkpt>
<trkpt lat="46.8025" lon="6.5016"><ele>1352.8</ele><time>2015-11-10T13:44:42Z</time></trkpt>
<trkpt lat="46.80258" lon="6.50188"><ele>1349.6</ele><time>2015-11-10T13:44:48Z</time></trkpt>
<trkpt lat="46.80261" lon="6.50197"><ele>1348.2</ele><time>2015-11-10T13:44:50Z</time></trkpt>
<trkpt lat="46.80267" lon="6.50223"><ele>1344</ele><time>2015-11-10T13:44:56Z</time></trkpt>
<trkpt lat="46.80274" lon="6.50252"><ele>1342</ele><time>2015-11-10T13:45:02Z</time></trkpt>
<trkpt lat="46.80275" lon="6.50275"><ele>1341.8</ele><time>2015-11-10T13:45:06Z</time></trkpt>
<trkpt lat="46.80275" lon="6.50285"><ele>1341</ele><time>2015-11-10T13:45:08Z</time></trkpt>
<trkpt lat="46.80275" lon="6.50296"><ele>1341.2</ele><time>2015-11-10T13:45:11Z</time></trkpt>
<trkpt lat="46.80272" lon="6.50323"><ele>1342</ele><time>2015-11-10T13:45:18Z</time></trkpt>
<trkpt lat="46.80271" lon="6.50345"><ele>1344.4</ele><time>2015-11-10T13:45:24Z</time></trkpt>
<trkpt lat="46.8027" lon="6.50362"><ele>1345.4</ele><time>2015-11-10T13:45:29Z</time></trkpt>
<trkpt lat="46.8027" lon="6.50364"><ele>1345.4</ele><time>2015-11-10T13:45:30Z</time></trkpt>
<trkpt lat="46.80269" lon="6.50373"><ele>1345.4</ele><time>2015-11-10T13:45:33Z</time></trkpt>
<trkpt lat="46.80269" lon="6.50376"><ele>1345.4</ele><time>2015-11-10T13:45:34Z</time></trkpt>
<trkpt lat="46.80275" lon="6.50404"><ele>1340.6</ele><time>2015-11-10T13:45:41Z</time></trkpt>
<trkpt lat="46.8028" lon="6.50412"><ele>1339.2</ele><time>2015-11-10T13:45:45Z</time></trkpt>
<trkpt lat="46.80285" lon="6.50426"><ele>1335.8</ele><time>2015-11-10T13:45:50Z</time></trkpt>
<trkpt lat="46.80286" lon="6.50433"><ele>1334.4</ele><time>2015-11-10T13:45:52Z</time></trkpt>
<trkpt lat="46.80283" lon="6.50454"><ele>1331.6</ele><time>2015-11-10T13:45:58Z</time></trkpt>
<trkpt lat="46.80284" lon="6.50454"><ele>1331.2</ele><time>2015-11-10T13:45:59Z</time></trkpt>
<trkpt lat="46.80297" lon="6.50465"><ele>1328.4</ele><time>2015-11-10T13:46:07Z</time></trkpt>
<trkpt lat="46.80305" lon="6.50487"><ele>1328.4</ele><time>2015-11-10T13:46:29Z</time></trkpt>
<trkpt lat="46.80311" lon="6.50502"><ele>1327.4</ele><time>2015-11-10T13:46:34Z</time></trkpt>
<trkpt lat="46.80319" lon="6.50529"><ele>1325.8</ele><time>2015-11-10T13:46:40Z</time></trkpt>
<trkpt lat="46.80323" lon="6.50557"><ele>1323.4</ele><time>2015-11-10T13:46:46Z</time></trkpt>
<trkpt lat="46.80324" lon="6.50571"><ele>1321.8</ele><time>2015-11-10T13:46:48Z</time></trkpt>
<trkpt lat="46.80326" lon="6.50585"><ele>1319.4</ele><time>2015-11-10T13:46:50Z</time></trkpt>
<trkpt lat="46.80327" lon="6.50596"><ele>1317.6</ele><time>2015-11-10T13:46:52Z</time></trkpt>
<trkpt lat="46.80337" lon="6.50624"><ele>1313.4</ele><time>2015-11-10T13:46:57Z</time></trkpt>
<trkpt lat="46.80346" lon="6.5065"><ele>1308.6</ele><time>2015-11-10T13:47:02Z</time></trkpt>
<trkpt lat="46.80348" lon="6.50656"><ele>1307.2</ele><time>2015-11-10T13:47:03Z</time></trkpt>
<trkpt lat="46.80351" lon="6.50663"><ele>1305.8</ele><time>2015-11-10T13:47:04Z</time></trkpt>
<trkpt lat="46.80358" lon="6.50691"><ele>1303.2</ele><time>2015-11-10T13:47:07Z</time></trkpt>
<trkpt lat="46.80362" lon="6.50699"><ele>1302.4</ele><time>2015-11-10T13:47:08Z</time></trkpt>
<trkpt lat="46.80371" lon="6.50715"><ele>1301.2</ele><time>2015-11-10T13:47:10Z</time></trkpt>
<trkpt lat="46.80381" lon="6.50738"><ele>1298.2</ele><time>2015-11-10T13:47:15Z</time></trkpt>
<trkpt lat="46.80382" lon="6.50742"><ele>1297.4</ele><time>2015-11-10T13:47:16Z</time></trkpt>
<trkpt lat="46.80382" lon="6.50745"><ele>1296.4</ele><time>2015-11-10T13:47:17Z</time></trkpt>
<trkpt lat="46.80382" lon="6.50749"><ele>1295</ele><time>2015-11-10T13:47:18Z</time></trkpt>
<trkpt lat="46.80381" lon="6.50755"><ele>1293</ele><time>2015-11-10T13:47:20Z</time></trkpt>
<trkpt lat="46.80381" lon="6.50757"><ele>1292.4</ele><time>2015-11-10T13:47:21Z</time></trkpt>
<trkpt lat="46.80379" lon="6.50758"><ele>1291.6</ele><time>2015-11-10T13:47:22Z</time></trkpt>
<trkpt lat="46.80378" lon="6.50759"><ele>1290.6</ele><time>2015-11-10T13:47:23Z</time></trkpt>
<trkpt lat="46.80377" lon="6.5076"><ele>1289.8</ele><time>2015-11-10T13:47:24Z</time></trkpt>
<trkpt lat="46.80377" lon="6.50762"><ele>1291.8</ele><time>2015-11-10T13:47:30Z</time></trkpt>
<trkpt lat="46.80376" lon="6.50766"><ele>1293</ele><time>2015-11-10T13:47:40Z</time></trkpt>
<trkpt lat="46.80375" lon="6.50769"><ele>1293.8</ele><time>2015-11-10T13:47:45Z</time></trkpt>
<trkpt lat="46.80376" lon="6.50769"><ele>1293.8</ele><time>2015-11-10T13:47:46Z</time></trkpt>
<trkpt lat="46.80375" lon="6.50769"><ele>1294</ele><time>2015-11-10T13:47:47Z</time></trkpt>
<trkpt lat="46.80375" lon="6.50769"><ele>1293.8</ele><time>2015-11-10T13:47:51Z</time></trkpt>
<trkpt lat="46.80376" lon="6.50767"><ele>1293.6</ele><time>2015-11-10T13:47:57Z</time></trkpt>
<trkpt lat="46.80376" lon="6.50767"><ele>1293.6</ele><time>2015-11-10T13:48:00Z</time></trkpt>
<trkpt lat="46.80374" lon="6.50765"><ele>1293.4</ele><time>2015-11-10T13:48:15Z</time></trkpt>
<trkpt lat="46.80369" lon="6.50771"><ele>1293.8</ele><time>2015-11-10T13:48:43Z</time></trkpt>
<trkpt lat="46.80369" lon="6.50771"><ele>1293.6</ele><time>2015-11-10T13:48:44Z</time></trkpt>
<trkpt lat="46.80369" lon="6.50772"><ele>1293.4</ele><time>2015-11-10T13:48:45Z</time></trkpt>
<trkpt lat="46.80368" lon="6.50773"><ele>1293.2</ele><time>2015-11-10T13:48:47Z</time></trkpt>
<trkpt lat="46.80369" lon="6.50772"><ele>1293.6</ele><time>2015-11-10T13:49:04Z</time></trkpt>
<trkpt lat="46.80368" lon="6.50769"><ele>1293.4</ele><time>2015-11-10T13:49:20Z</time></trkpt>
<trkpt lat="46.80368" lon="6.50769"><ele>1293.4</ele><time>2015-11-10T13:49:21Z</time></trkpt>
<trkpt lat="46.80369" lon="6.50769"><ele>1293.4</ele><time>2015-11-10T13:49:22Z</time></trkpt>
<trkpt lat="46.80368" lon="6.50769"><ele>1292.6</ele><time>2015-11-10T13:49:34Z</time></trkpt>
<trkpt lat="46.80368" lon="6.50769"><ele>1292.6</ele><time>2015-11-10T13:49:41Z</time></trkpt>
<trkpt lat="46.80368" lon="6.50768"><ele>1292.8</ele><time>2015-11-10T13:49:45Z</time></trkpt>
<trkpt lat="46.80368" lon="6.50767"><ele>1292.6</ele><time>2015-11-10T13:49:50Z</time></trkpt>
<trkpt lat="46.80369" lon="6.50767"><ele>1292.6</ele><time>2015-11-10T13:49:54Z</time></trkpt>
<trkpt lat="46.8037" lon="6.50767"><ele>1292.6</ele><time>2015-11-10T13:49:56Z</time></trkpt>
<trkpt lat="46.80371" lon="6.50766"><ele>1292.4</ele><time>2015-11-10T13:50:02Z</time></trkpt>
<trkpt lat="46.8036" lon="6.50778"><ele>1291.2</ele><time>2015-11-10T13:50:16Z</time></trkpt>
<trkpt lat="46.80341" lon="6.50792"><ele>1290.8</ele><time>2015-11-10T13:50:20Z</time></trkpt>
<trkpt lat="46.80326" lon="6.50802"><ele>1290.4</ele><time>2015-11-10T13:50:23Z</time></trkpt>
<trkpt lat="46.80309" lon="6.50811"><ele>1289</ele><time>2015-11-10T13:50:27Z</time></trkpt>
<trkpt lat="46.80301" lon="6.50834"><ele>1284.6</ele><time>2015-11-10T13:50:32Z</time></trkpt>
<trkpt lat="46.80306" lon="6.50849"><ele>1281.6</ele><time>2015-11-10T13:50:35Z</time></trkpt>
<trkpt lat="46.80308" lon="6.50852"><ele>1280.8</ele><time>2015-11-10T13:50:36Z</time></trkpt>
<trkpt lat="46.8031" lon="6.5086"><ele>1279.4</ele><time>2015-11-10T13:50:39Z</time></trkpt>
<trkpt lat="46.80308" lon="6.50888"><ele>1277.4</ele><time>2015-11-10T13:50:45Z</time></trkpt>
<trkpt lat="46.80311" lon="6.50909"><ele>1275.6</ele><time>2015-11-10T13:50:49Z</time></trkpt>
<trkpt lat="46.80313" lon="6.50939"><ele>1275.2</ele><time>2015-11-10T13:50:55Z</time></trkpt>
<trkpt lat="46.80314" lon="6.50948"><ele>1275.4</ele><time>2015-11-10T13:50:57Z</time></trkpt>
<trkpt lat="46.80315" lon="6.50953"><ele>1275.6</ele><time>2015-11-10T13:50:58Z</time></trkpt>
<trkpt lat="46.80315" lon="6.50963"><ele>1276.2</ele><time>2015-11-10T13:51:01Z</time></trkpt>
<trkpt lat="46.80318" lon="6.50989"><ele>1276</ele><time>2015-11-10T13:51:08Z</time></trkpt>
<trkpt lat="46.80326" lon="6.51018"><ele>1273.2</ele><time>2015-11-10T13:51:14Z</time></trkpt>
<trkpt lat="46.80333" lon="6.51049"><ele>1272.6</ele><time>2015-11-10T13:51:19Z</time></trkpt>
<trkpt lat="46.80337" lon="6.51075"><ele>1271.6</ele><time>2015-11-10T13:51:24Z</time></trkpt>
<trkpt lat="46.80338" lon="6.51085"><ele>1272.4</ele><time>2015-11-10T13:51:26Z</time></trkpt>
<trkpt lat="46.8034" lon="6.51094"><ele>1272.6</ele><time>2015-11-10T13:51:28Z</time></trkpt>
<trkpt lat="46.8035" lon="6.51119"><ele>1272.4</ele><time>2015-11-10T13:51:35Z</time></trkpt>
<trkpt lat="46.80357" lon="6.51146"><ele>1276.4</ele><time>2015-11-10T13:51:42Z</time></trkpt>
<trkpt lat="46.80359" lon="6.51169"><ele>1278.4</ele><time>2015-11-10T13:51:50Z</time></trkpt>
<trkpt lat="46.80361" lon="6.51172"><ele>1278.8</ele><time>2015-11-10T13:52:12Z</time></trkpt>
<trkpt lat="46.80361" lon="6.51172"><ele>1279</ele><time>2015-11-10T13:52:13Z</time></trkpt>
<trkpt lat="46.80366" lon="6.51176"><ele>1281.2</ele><time>2015-11-10T13:52:31Z</time></trkpt>
<trkpt lat="46.80371" lon="6.51175"><ele>1282</ele><time>2015-11-10T13:52:37Z</time></trkpt>
<trkpt lat="46.80375" lon="6.51176"><ele>1283.2</ele><time>2015-11-10T13:52:49Z</time></trkpt>
<trkpt lat="46.80384" lon="6.51186"><ele>1282.8</ele><time>2015-11-10T13:52:54Z</time></trkpt>
<trkpt lat="46.80385" lon="6.51188"><ele>1282.8</ele><time>2015-11-10T13:52:55Z</time></trkpt>
<trkpt lat="46.80388" lon="6.51196"><ele>1282.4</ele><time>2015-11-10T13:52:59Z</time></trkpt>
<trkpt lat="46.8039" lon="6.51202"><ele>1282</ele><time>2015-11-10T13:53:02Z</time></trkpt>
<trkpt lat="46.80392" lon="6.5123"><ele>1279.2</ele><time>2015-11-10T13:53:13Z</time></trkpt>
<trkpt lat="46.80387" lon="6.51246"><ele>1278.6</ele><time>2015-11-10T13:53:19Z</time></trkpt>
<trkpt lat="46.80377" lon="6.51271"><ele>1277.4</ele><time>2015-11-10T13:53:25Z</time></trkpt>
<trkpt lat="46.80374" lon="6.51282"><ele>1277</ele><time>2015-11-10T13:53:29Z</time></trkpt>
<trkpt lat="46.80374" lon="6.5131"><ele>1275.8</ele><time>2015-11-10T13:53:39Z</time></trkpt>
<trkpt lat="46.80375" lon="6.51311"><ele>1275.4</ele><time>2015-11-10T13:53:40Z</time></trkpt>
<trkpt lat="46.80385" lon="6.5131"><ele>1275.6</ele><time>2015-11-10T13:53:46Z</time></trkpt>
<trkpt lat="46.80402" lon="6.51312"><ele>1272.8</ele><time>2015-11-10T13:53:52Z</time></trkpt>
<trkpt lat="46.80404" lon="6.51311"><ele>1272.6</ele><time>2015-11-10T13:53:55Z</time></trkpt>
<trkpt lat="46.80405" lon="6.51312"><ele>1273.2</ele><time>2015-11-10T13:54:08Z</time></trkpt>
<trkpt lat="46.80402" lon="6.51308"><ele>1272.4</ele><time>2015-11-10T13:54:26Z</time></trkpt>
<trkpt lat="46.8042" lon="6.51308"><ele>1272.2</ele><time>2015-11-10T13:55:11Z</time></trkpt>
<trkpt lat="46.8044" lon="6.51306"><ele>1271.4</ele><time>2015-11-10T13:55:17Z</time></trkpt>
<trkpt lat="46.8046" lon="6.51301"><ele>1270.6</ele><time>2015-11-10T13:55:21Z</time></trkpt>
<trkpt lat="46.80481" lon="6.51299"><ele>1268.8</ele><time>2015-11-10T13:55:26Z</time></trkpt>
<trkpt lat="46.80496" lon="6.51311"><ele>1267.8</ele><time>2015-11-10T13:55:31Z</time></trkpt>
<trkpt lat="46.80496" lon="6.51319"><ele>1266.2</ele><time>2015-11-10T13:55:35Z</time></trkpt>
<trkpt lat="46.80496" lon="6.5132"><ele>1265.8</ele><time>2015-11-10T13:55:36Z</time></trkpt>
<trkpt lat="46.80496" lon="6.51323"><ele>1265</ele><time>2015-11-10T13:55:46Z</time></trkpt>
<trkpt lat="46.8051" lon="6.51341"><ele>1264.2</ele><time>2015-11-10T13:55:56Z</time></trkpt>
<trkpt lat="46.80513" lon="6.51345"><ele>1264</ele><time>2015-11-10T13:55:59Z</time></trkpt>
<trkpt lat="46.80534" lon="6.51345"><ele>1262.2</ele><time>2015-11-10T13:56:06Z</time></trkpt>
<trkpt lat="46.80555" lon="6.51332"><ele>1261.2</ele><time>2015-11-10T13:56:10Z</time></trkpt>
<trkpt lat="46.80572" lon="6.5132"><ele>1259.8</ele><time>2015-11-10T13:56:13Z</time></trkpt>
<trkpt lat="46.80578" lon="6.51317"><ele>1259.6</ele><time>2015-11-10T13:56:14Z</time></trkpt>
<trkpt lat="46.80599" lon="6.51322"><ele>1257.8</ele><time>2015-11-10T13:56:18Z</time></trkpt>
<trkpt lat="46.80609" lon="6.51333"><ele>1256.6</ele><time>2015-11-10T13:56:20Z</time></trkpt>
<trkpt lat="46.80623" lon="6.51353"><ele>1254.6</ele><time>2015-11-10T13:56:23Z</time></trkpt>
<trkpt lat="46.80636" lon="6.51373"><ele>1253.2</ele><time>2015-11-10T13:56:26Z</time></trkpt>
<trkpt lat="46.80639" lon="6.5138"><ele>1252.6</ele><time>2015-11-10T13:56:27Z</time></trkpt>
<trkpt lat="46.80649" lon="6.51412"><ele>1249.8</ele><time>2015-11-10T13:56:31Z</time></trkpt>
<trkpt lat="46.80658" lon="6.51437"><ele>1247.6</ele><time>2015-11-10T13:56:34Z</time></trkpt>
<trkpt lat="46.80666" lon="6.51462"><ele>1245.6</ele><time>2015-11-10T13:56:37Z</time></trkpt>
<trkpt lat="46.80671" lon="6.51479"><ele>1244</ele><time>2015-11-10T13:56:39Z</time></trkpt>
<trkpt lat="46.80678" lon="6.51502"><ele>1241.8</ele><time>2015-11-10T13:56:42Z</time></trkpt>
<trkpt lat="46.80689" lon="6.51524"><ele>1239.6</ele><time>2015-11-10T13:56:45Z</time></trkpt>
<trkpt lat="46.80705" lon="6.51545"><ele>1237.4</ele><time>2015-11-10T13:56:49Z</time></trkpt>
<trkpt lat="46.80708" lon="6.5155"><ele>1236.8</ele><time>2015-11-10T13:56:50Z</time></trkpt>
<trkpt lat="46.80722" lon="6.51566"><ele>1235.6</ele><time>2015-11-10T13:56:54Z</time></trkpt>
<trkpt lat="46.80725" lon="6.51573"><ele>1234.6</ele><time>2015-11-10T13:56:55Z</time></trkpt>
<trkpt lat="46.80736" lon="6.51599"><ele>1230</ele><time>2015-11-10T13:56:59Z</time></trkpt>
<trkpt lat="46.80741" lon="6.51615"><ele>1225.6</ele><time>2015-11-10T13:57:02Z</time></trkpt>
<trkpt lat="46.80745" lon="6.51629"><ele>1223.2</ele><time>2015-11-10T13:57:04Z</time></trkpt>
<trkpt lat="46.8076" lon="6.51652"><ele>1218.8</ele><time>2015-11-10T13:57:08Z</time></trkpt>
<trkpt lat="46.80778" lon="6.5166"><ele>1215.2</ele><time>2015-11-10T13:57:12Z</time></trkpt>
<trkpt lat="46.80784" lon="6.5166"><ele>1214.2</ele><time>2015-11-10T13:57:13Z</time></trkpt>
<trkpt lat="46.80789" lon="6.51661"><ele>1212.8</ele><time>2015-11-10T13:57:14Z</time></trkpt>
<trkpt lat="46.80803" lon="6.51686"><ele>1211.8</ele><time>2015-11-10T13:57:18Z</time></trkpt>
<trkpt lat="46.80805" lon="6.51693"><ele>1211</ele><time>2015-11-10T13:57:19Z</time></trkpt>
<trkpt lat="46.80809" lon="6.51707"><ele>1210.2</ele><time>2015-11-10T13:57:21Z</time></trkpt>
<trkpt lat="46.80818" lon="6.51732"><ele>1208.6</ele><time>2015-11-10T13:57:24Z</time></trkpt>
<trkpt lat="46.80821" lon="6.51739"><ele>1207.8</ele><time>2015-11-10T13:57:25Z</time></trkpt>
<trkpt lat="46.80831" lon="6.51763"><ele>1205.8</ele><time>2015-11-10T13:57:28Z</time></trkpt>
<trkpt lat="46.80842" lon="6.51791"><ele>1203.8</ele><time>2015-11-10T13:57:32Z</time></trkpt>
<trkpt lat="46.80847" lon="6.51799"><ele>1202.6</ele><time>2015-11-10T13:57:34Z</time></trkpt>
<trkpt lat="46.80861" lon="6.518"><ele>1205.8</ele><time>2015-11-10T13:58:08Z</time></trkpt>
<trkpt lat="46.80862" lon="6.51796"><ele>1205.8</ele><time>2015-11-10T13:58:12Z</time></trkpt>
<trkpt lat="46.80864" lon="6.51765"><ele>1205.2</ele><time>2015-11-10T13:58:18Z</time></trkpt>
<trkpt lat="46.80864" lon="6.51733"><ele>1203.2</ele><time>2015-11-10T13:58:22Z</time></trkpt>
<trkpt lat="46.80867" lon="6.51707"><ele>1200.4</ele><time>2015-11-10T13:58:25Z</time></trkpt>
<trkpt lat="46.80872" lon="6.5168"><ele>1198.2</ele><time>2015-11-10T13:58:28Z</time></trkpt>
<trkpt lat="46.80872" lon="6.5167"><ele>1198</ele><time>2015-11-10T13:58:29Z</time></trkpt>
<trkpt lat="46.80869" lon="6.51639"><ele>1196.2</ele><time>2015-11-10T13:58:32Z</time></trkpt>
<trkpt lat="46.80864" lon="6.51605"><ele>1194.2</ele><time>2015-11-10T13:58:35Z</time></trkpt>
<trkpt lat="46.80861" lon="6.51569"><ele>1191.6</ele><time>2015-11-10T13:58:38Z</time></trkpt>
<trkpt lat="46.80858" lon="6.51537"><ele>1189.4</ele><time>2015-11-10T13:58:41Z</time></trkpt>
<trkpt lat="46.80852" lon="6.51508"><ele>1186.8</ele><time>2015-11-10T13:58:44Z</time></trkpt>
<trkpt lat="46.80849" lon="6.51488"><ele>1183.4</ele><time>2015-11-10T13:58:49Z</time></trkpt>
<trkpt lat="46.80855" lon="6.51503"><ele>1175.2</ele><time>2015-11-10T13:59:04Z</time></trkpt>
<trkpt lat="46.80861" lon="6.51528"><ele>1172.4</ele><time>2015-11-10T13:59:10Z</time></trkpt>
<trkpt lat="46.80869" lon="6.51553"><ele>1171.4</ele><time>2015-11-10T13:59:15Z</time></trkpt>
<trkpt lat="46.80879" lon="6.51582"><ele>1170.4</ele><time>2015-11-10T13:59:20Z</time></trkpt>
<trkpt lat="46.8089" lon="6.51605"><ele>1170.2</ele><time>2015-11-10T13:59:24Z</time></trkpt>
<trkpt lat="46.80899" lon="6.5163"><ele>1170.2</ele><time>2015-11-10T13:59:28Z</time></trkpt>
<trkpt lat="46.80901" lon="6.51635"><ele>1170.8</ele><time>2015-11-10T13:59:29Z</time></trkpt>
<trkpt lat="46.80905" lon="6.51645"><ele>1171.2</ele><time>2015-11-10T13:59:31Z</time></trkpt>
<trkpt lat="46.80914" lon="6.51667"><ele>1171.8</ele><time>2015-11-10T13:59:35Z</time></trkpt>
<trkpt lat="46.80923" lon="6.51694"><ele>1172.4</ele><time>2015-11-10T13:59:39Z</time></trkpt>
<trkpt lat="46.80925" lon="6.51701"><ele>1172.6</ele><time>2015-11-10T13:59:40Z</time></trkpt>
<trkpt lat="46.80932" lon="6.51731"><ele>1173.2</ele><time>2015-11-10T13:59:44Z</time></trkpt>
<trkpt lat="46.8094" lon="6.5176"><ele>1173.8</ele><time>2015-11-10T13:59:48Z</time></trkpt>
<trkpt lat="46.80945" lon="6.51774"><ele>1173.6</ele><time>2015-11-10T13:59:50Z</time></trkpt>
<trkpt lat="46.80954" lon="6.51804"><ele>1173</ele><time>2015-11-10T13:59:54Z</time></trkpt>
<trkpt lat="46.80966" lon="6.51832"><ele>1170.4</ele><time>2015-11-10T13:59:58Z</time></trkpt>
<trkpt lat="46.80976" lon="6.51858"><ele>1168.2</ele><time>2015-11-10T14:00:02Z</time></trkpt>
<trkpt lat="46.80986" lon="6.51883"><ele>1166.8</ele><time>2015-11-10T14:00:06Z</time></trkpt>
<trkpt lat="46.8099" lon="6.51894"><ele>1165.8</ele><time>2015-11-10T14:00:08Z</time></trkpt>
<trkpt lat="46.80999" lon="6.51911"><ele>1165.4</ele><time>2015-11-10T14:00:11Z</time></trkpt>
<trkpt lat="46.81002" lon="6.51916"><ele>1165.8</ele><time>2015-11-10T14:00:12Z</time></trkpt>
<trkpt lat="46.81017" lon="6.51938"><ele>1166</ele><time>2015-11-10T14:00:16Z</time></trkpt>
<trkpt lat="46.8102" lon="6.51944"><ele>1166</ele><time>2015-11-10T14:00:17Z</time></trkpt>
<trkpt lat="46.81028" lon="6.51968"><ele>1164.6</ele><time>2015-11-10T14:00:20Z</time></trkpt>
<trkpt lat="46.81036" lon="6.51986"><ele>1163.8</ele><time>2015-11-10T14:00:22Z</time></trkpt>
<trkpt lat="46.81046" lon="6.52005"><ele>1162.4</ele><time>2015-11-10T14:00:24Z</time></trkpt>
<trkpt lat="46.81051" lon="6.52015"><ele>1161.6</ele><time>2015-11-10T14:00:25Z</time></trkpt>
<trkpt lat="46.81057" lon="6.52025"><ele>1160.4</ele><time>2015-11-10T14:00:26Z</time></trkpt>
<trkpt lat="46.8107" lon="6.52057"><ele>1156.4</ele><time>2015-11-10T14:00:29Z</time></trkpt>
<trkpt lat="46.81084" lon="6.52087"><ele>1154.4</ele><time>2015-11-10T14:00:32Z</time></trkpt>
<trkpt lat="46.81093" lon="6.5211"><ele>1151.4</ele><time>2015-11-10T14:00:34Z</time></trkpt>
<trkpt lat="46.81105" lon="6.52145"><ele>1147.8</ele><time>2015-11-10T14:00:37Z</time></trkpt>
<trkpt lat="46.81115" lon="6.52178"><ele>1144.2</ele><time>2015-11-10T14:00:40Z</time></trkpt>
<trkpt lat="46.81127" lon="6.52208"><ele>1141.2</ele><time>2015-11-10T14:00:43Z</time></trkpt>
<trkpt lat="46.81138" lon="6.52236"><ele>1138.2</ele><time>2015-11-10T14:00:46Z</time></trkpt>
<trkpt lat="46.8114" lon="6.52245"><ele>1137.2</ele><time>2015-11-10T14:00:47Z</time></trkpt>
<trkpt lat="46.8115" lon="6.52273"><ele>1135</ele><time>2015-11-10T14:00:50Z</time></trkpt>
<trkpt lat="46.81157" lon="6.52301"><ele>1131.8</ele><time>2015-11-10T14:00:53Z</time></trkpt>
<trkpt lat="46.81165" lon="6.52329"><ele>1129.2</ele><time>2015-11-10T14:00:56Z</time></trkpt>
<trkpt lat="46.81167" lon="6.52338"><ele>1128.8</ele><time>2015-11-10T14:00:57Z</time></trkpt>
<trkpt lat="46.81169" lon="6.52356"><ele>1127.8</ele><time>2015-11-10T14:00:59Z</time></trkpt>
<trkpt lat="46.81173" lon="6.52385"><ele>1126.2</ele><time>2015-11-10T14:01:02Z</time></trkpt>
<trkpt lat="46.81178" lon="6.52418"><ele>1124.6</ele><time>2015-11-10T14:01:05Z</time></trkpt>
<trkpt lat="46.81186" lon="6.52453"><ele>1123.4</ele><time>2015-11-10T14:01:08Z</time></trkpt>
<trkpt lat="46.81191" lon="6.52486"><ele>1121</ele><time>2015-11-10T14:01:11Z</time></trkpt>
<trkpt lat="46.81196" lon="6.52513"><ele>1119.6</ele><time>2015-11-10T14:01:14Z</time></trkpt>
<trkpt lat="46.81199" lon="6.52541"><ele>1118.4</ele><time>2015-11-10T14:01:17Z</time></trkpt>
<trkpt lat="46.81199" lon="6.52567"><ele>1117.4</ele><time>2015-11-10T14:01:20Z</time></trkpt>
<trkpt lat="46.81198" lon="6.52577"><ele>1116.4</ele><time>2015-11-10T14:01:21Z</time></trkpt>
<trkpt lat="46.81196" lon="6.52606"><ele>1115.4</ele><time>2015-11-10T14:01:24Z</time></trkpt>
<trkpt lat="46.81193" lon="6.52639"><ele>1112.8</ele><time>2015-11-10T14:01:27Z</time></trkpt>
<trkpt lat="46.81191" lon="6.52671"><ele>1110</ele><time>2015-11-10T14:01:30Z</time></trkpt>
<trkpt lat="46.81189" lon="6.52692"><ele>1108.4</ele><time>2015-11-10T14:01:32Z</time></trkpt>
<trkpt lat="46.81184" lon="6.52719"><ele>1106.6</ele><time>2015-11-10T14:01:35Z</time></trkpt>
<trkpt lat="46.81182" lon="6.52728"><ele>1105.8</ele><time>2015-11-10T14:01:36Z</time></trkpt>
<trkpt lat="46.81176" lon="6.52754"><ele>1103.4</ele><time>2015-11-10T14:01:39Z</time></trkpt>
<trkpt lat="46.81173" lon="6.52762"><ele>1102.6</ele><time>2015-11-10T14:01:40Z</time></trkpt>
<trkpt lat="46.81162" lon="6.52786"><ele>1100</ele><time>2015-11-10T14:01:44Z</time></trkpt>
<trkpt lat="46.81161" lon="6.52815"><ele>1098.2</ele><time>2015-11-10T14:01:47Z</time></trkpt>
<trkpt lat="46.81161" lon="6.52826"><ele>1097.2</ele><time>2015-11-10T14:01:48Z</time></trkpt>
<trkpt lat="46.81159" lon="6.52856"><ele>1095.6</ele><time>2015-11-10T14:01:51Z</time></trkpt>
<trkpt lat="46.81151" lon="6.52882"><ele>1093.8</ele><time>2015-11-10T14:01:54Z</time></trkpt>
<trkpt lat="46.81144" lon="6.529"><ele>1091.4</ele><time>2015-11-10T14:01:56Z</time></trkpt>
<trkpt lat="46.81134" lon="6.52926"><ele>1088.2</ele><time>2015-11-10T14:01:59Z</time></trkpt>
<trkpt lat="46.81126" lon="6.52946"><ele>1086.2</ele><time>2015-11-10T14:02:02Z</time></trkpt>
<trkpt lat="46.81122" lon="6.52955"><ele>1085.6</ele><time>2015-11-10T14:02:04Z</time></trkpt>
<trkpt lat="46.81114" lon="6.52965"><ele>1087</ele><time>2015-11-10T14:02:38Z</time></trkpt>
<trkpt lat="46.81114" lon="6.52965"><ele>1086.8</ele><time>2015-11-10T14:02:40Z</time></trkpt>
<trkpt lat="46.81096" lon="6.5297"><ele>1087.6</ele><time>2015-11-10T14:03:00Z</time></trkpt>
<trkpt lat="46.81078" lon="6.52978"><ele>1087.8</ele><time>2015-11-10T14:03:08Z</time></trkpt>
<trkpt lat="46.8106" lon="6.52989"><ele>1087.4</ele><time>2015-11-10T14:03:16Z</time></trkpt>
<trkpt lat="46.81043" lon="6.52999"><ele>1086.8</ele><time>2015-11-10T14:03:23Z</time></trkpt>
<trkpt lat="46.81026" lon="6.53014"><ele>1086.2</ele><time>2015-11-10T14:03:31Z</time></trkpt>
<trkpt lat="46.81019" lon="6.53021"><ele>1088.2</ele><time>2015-11-10T14:03:34Z</time></trkpt>
<trkpt lat="46.81017" lon="6.53023"><ele>1088.6</ele><time>2015-11-10T14:03:35Z</time></trkpt>
<trkpt lat="46.81002" lon="6.5304"><ele>1087.8</ele><time>2015-11-10T14:03:43Z</time></trkpt>
<trkpt lat="46.80986" lon="6.53056"><ele>1089.8</ele><time>2015-11-10T14:03:51Z</time></trkpt>
<trkpt lat="46.80972" lon="6.53074"><ele>1092.8</ele><time>2015-11-10T14:03:59Z</time></trkpt>
<trkpt lat="46.80962" lon="6.53098"><ele>1095.8</ele><time>2015-11-10T14:04:07Z</time></trkpt>
<trkpt lat="46.80956" lon="6.53122"><ele>1093.4</ele><time>2015-11-10T14:04:35Z</time></trkpt>
<trkpt lat="46.8096" lon="6.53144"><ele>1093</ele><time>2015-11-10T14:04:57Z</time></trkpt>
<trkpt lat="46.80958" lon="6.53159"><ele>1090.6</ele><time>2015-11-10T14:05:22Z</time></trkpt>
<trkpt lat="46.80958" lon="6.53159"><ele>1090.6</ele><time>2015-11-10T14:05:23Z</time></trkpt>
<trkpt lat="46.80959" lon="6.53186"><ele>1089.6</ele><time>2015-11-10T14:05:42Z</time></trkpt>
<trkpt lat="46.8096" lon="6.53211"><ele>1085.2</ele><time>2015-11-10T14:06:02Z</time></trkpt>
<trkpt lat="46.80962" lon="6.5321"><ele>1084.6</ele><time>2015-11-10T14:06:05Z</time></trkpt>
<trkpt lat="46.80979" lon="6.53202"><ele>1080.4</ele><time>2015-11-10T14:06:23Z</time></trkpt>
<trkpt lat="46.80988" lon="6.53206"><ele>1078.4</ele><time>2015-11-10T14:06:28Z</time></trkpt>
<trkpt lat="46.80989" lon="6.53213"><ele>1077.8</ele><time>2015-11-10T14:06:39Z</time></trkpt>
<trkpt lat="46.80992" lon="6.53236"><ele>1076.4</ele><time>2015-11-10T14:06:46Z</time></trkpt>
<trkpt lat="46.81009" lon="6.53228"><ele>1073.4</ele><time>2015-11-10T14:06:52Z</time></trkpt>
<trkpt lat="46.81011" lon="6.53226"><ele>1072.8</ele><time>2015-11-10T14:06:53Z</time></trkpt>
<trkpt lat="46.8102" lon="6.53216"><ele>1069.2</ele><time>2015-11-10T14:07:00Z</time></trkpt>
<trkpt lat="46.81026" lon="6.53197"><ele>1066.6</ele><time>2015-11-10T14:07:31Z</time></trkpt>
<trkpt lat="46.81031" lon="6.53196"><ele>1066.4</ele><time>2015-11-10T14:07:34Z</time></trkpt>
<trkpt lat="46.81053" lon="6.53199"><ele>1064.4</ele><time>2015-11-10T14:07:42Z</time></trkpt>
<trkpt lat="46.81071" lon="6.53194"><ele>1060</ele><time>2015-11-10T14:07:46Z</time></trkpt>
<trkpt lat="46.81084" lon="6.53189"><ele>1055.8</ele><time>2015-11-10T14:07:49Z</time></trkpt>
<trkpt lat="46.81103" lon="6.53181"><ele>1049.2</ele><time>2015-11-10T14:07:53Z</time></trkpt>
<trkpt lat="46.81107" lon="6.5318"><ele>1048.4</ele><time>2015-11-10T14:07:54Z</time></trkpt>
<trkpt lat="46.81111" lon="6.53179"><ele>1047.2</ele><time>2015-11-10T14:07:55Z</time></trkpt>
<trkpt lat="46.81114" lon="6.53178"><ele>1046.2</ele><time>2015-11-10T14:07:56Z</time></trkpt>
<trkpt lat="46.81133" lon="6.53171"><ele>1037.2</ele><time>2015-11-10T14:08:02Z</time></trkpt>
<trkpt lat="46.81151" lon="6.53151"><ele>1029</ele><time>2015-11-10T14:08:07Z</time></trkpt>
<trkpt lat="46.81166" lon="6.53135"><ele>1025</ele><time>2015-11-10T14:08:11Z</time></trkpt>
<trkpt lat="46.81178" lon="6.53132"><ele>1021.2</ele><time>2015-11-10T14:08:15Z</time></trkpt>
<trkpt lat="46.8119" lon="6.53132"><ele>1014.6</ele><time>2015-11-10T14:08:22Z</time></trkpt>
<trkpt lat="46.81209" lon="6.53114"><ele>1009.8</ele><time>2015-11-10T14:08:28Z</time></trkpt>
<trkpt lat="46.81219" lon="6.53105"><ele>1007.6</ele><time>2015-11-10T14:08:31Z</time></trkpt>
<trkpt lat="46.8123" lon="6.53095"><ele>1004.6</ele><time>2015-11-10T14:08:34Z</time></trkpt>
<trkpt lat="46.81241" lon="6.53083"><ele>1001.4</ele><time>2015-11-10T14:08:37Z</time></trkpt>
<trkpt lat="46.81247" lon="6.53075"><ele>999.4</ele><time>2015-11-10T14:08:39Z</time></trkpt>
<trkpt lat="46.81253" lon="6.53068"><ele>997.6</ele><time>2015-11-10T14:08:41Z</time></trkpt>
<trkpt lat="46.81255" lon="6.53065"><ele>996.8</ele><time>2015-11-10T14:08:42Z</time></trkpt>
<trkpt lat="46.81259" lon="6.53059"><ele>994</ele><time>2015-11-10T14:08:47Z</time></trkpt>
<trkpt lat="46.81262" lon="6.53061"><ele>996</ele><time>2015-11-10T14:08:51Z</time></trkpt>
<trkpt lat="46.8128" lon="6.53049"><ele>995.4</ele><time>2015-11-10T14:09:13Z</time></trkpt>
<trkpt lat="46.81296" lon="6.53036"><ele>992.4</ele><time>2015-11-10T14:09:18Z</time></trkpt>
<trkpt lat="46.81313" lon="6.53023"><ele>987.8</ele><time>2015-11-10T14:09:23Z</time></trkpt>
<trkpt lat="46.81334" lon="6.52994"><ele>979.2</ele><time>2015-11-10T14:09:30Z</time></trkpt>
<trkpt lat="46.81349" lon="6.52964"><ele>970.8</ele><time>2015-11-10T14:09:37Z</time></trkpt>
<trkpt lat="46.81354" lon="6.52944"><ele>966.4</ele><time>2015-11-10T14:09:40Z</time></trkpt>
<trkpt lat="46.8136" lon="6.52924"><ele>958.2</ele><time>2015-11-10T14:09:47Z</time></trkpt>
<trkpt lat="46.81368" lon="6.52917"><ele>954.8</ele><time>2015-11-10T14:09:50Z</time></trkpt>
<trkpt lat="46.81386" lon="6.52898"><ele>950</ele><time>2015-11-10T14:09:55Z</time></trkpt>
<trkpt lat="46.81396" lon="6.5289"><ele>948.2</ele><time>2015-11-10T14:09:57Z</time></trkpt>
<trkpt lat="46.81413" lon="6.52878"><ele>947.2</ele><time>2015-11-10T14:10:01Z</time></trkpt>
<trkpt lat="46.81424" lon="6.52856"><ele>944</ele><time>2015-11-10T14:10:06Z</time></trkpt>
<trkpt lat="46.81433" lon="6.52839"><ele>942</ele><time>2015-11-10T14:10:10Z</time></trkpt>
<trkpt lat="46.81445" lon="6.5282"><ele>942</ele><time>2015-11-10T14:10:15Z</time></trkpt>
<trkpt lat="46.81456" lon="6.52799"><ele>941.2</ele><time>2015-11-10T14:10:20Z</time></trkpt>
<trkpt lat="46.81471" lon="6.52779"><ele>941.6</ele><time>2015-11-10T14:10:26Z</time></trkpt>
<trkpt lat="46.81479" lon="6.52754"><ele>940</ele><time>2015-11-10T14:10:32Z</time></trkpt>
<trkpt lat="46.81482" lon="6.52725"><ele>938.6</ele><time>2015-11-10T14:10:38Z</time></trkpt>
<trkpt lat="46.81484" lon="6.52697"><ele>938.6</ele><time>2015-11-10T14:10:44Z</time></trkpt>
<trkpt lat="46.81488" lon="6.52677"><ele>940.2</ele><time>2015-11-10T14:10:49Z</time></trkpt>
<trkpt lat="46.81499" lon="6.52654"><ele>940.2</ele><time>2015-11-10T14:10:55Z</time></trkpt>
<trkpt lat="46.81514" lon="6.52633"><ele>940.4</ele><time>2015-11-10T14:11:01Z</time></trkpt>
<trkpt lat="46.81525" lon="6.5261"><ele>939.6</ele><time>2015-11-10T14:11:06Z</time></trkpt>
<trkpt lat="46.81532" lon="6.52583"><ele>939</ele><time>2015-11-10T14:11:11Z</time></trkpt>
<trkpt lat="46.81537" lon="6.52557"><ele>937.6</ele><time>2015-11-10T14:11:15Z</time></trkpt>
<trkpt lat="46.81542" lon="6.52528"><ele>935.8</ele><time>2015-11-10T14:11:19Z</time></trkpt>
<trkpt lat="46.81551" lon="6.52505"><ele>934.4</ele><time>2015-11-10T14:11:22Z</time></trkpt>
<trkpt lat="46.81556" lon="6.52486"><ele>933</ele><time>2015-11-10T14:11:24Z</time></trkpt>
<trkpt lat="46.81561" lon="6.52466"><ele>931.6</ele><time>2015-11-10T14:11:26Z</time></trkpt>
<trkpt lat="46.81573" lon="6.52433"><ele>928.6</ele><time>2015-11-10T14:11:29Z</time></trkpt>
<trkpt lat="46.81582" lon="6.52401"><ele>925</ele><time>2015-11-10T14:11:32Z</time></trkpt>
<trkpt lat="46.81587" lon="6.52382"><ele>923.4</ele><time>2015-11-10T14:11:34Z</time></trkpt>
<trkpt lat="46.81592" lon="6.52366"><ele>922.2</ele><time>2015-11-10T14:11:36Z</time></trkpt>
<trkpt lat="46.81599" lon="6.52349"><ele>920.2</ele><time>2015-11-10T14:11:39Z</time></trkpt>
<trkpt lat="46.81606" lon="6.52321"><ele>916.8</ele><time>2015-11-10T14:11:44Z</time></trkpt>
<trkpt lat="46.81606" lon="6.52318"><ele>916.4</ele><time>2015-11-10T14:11:45Z</time></trkpt>
<trkpt lat="46.81612" lon="6.52317"><ele>913.8</ele><time>2015-11-10T14:11:55Z</time></trkpt>
<trkpt lat="46.81614" lon="6.52326"><ele>911.4</ele><time>2015-11-10T14:12:00Z</time></trkpt>
<trkpt lat="46.81622" lon="6.5235"><ele>907.6</ele><time>2015-11-10T14:12:07Z</time></trkpt>
<trkpt lat="46.81624" lon="6.52351"><ele>907.8</ele><time>2015-11-10T14:12:08Z</time></trkpt>
<trkpt lat="46.81627" lon="6.52358"><ele>906.6</ele><time>2015-11-10T14:12:12Z</time></trkpt>
<trkpt lat="46.81633" lon="6.52365"><ele>905.8</ele><time>2015-11-10T14:12:28Z</time></trkpt>
<trkpt lat="46.81647" lon="6.52367"><ele>904.2</ele><time>2015-11-10T14:12:51Z</time></trkpt>
<trkpt lat="46.81647" lon="6.52377"><ele>903.4</ele><time>2015-11-10T14:12:56Z</time></trkpt>
<trkpt lat="46.81651" lon="6.52383"><ele>902.4</ele><time>2015-11-10T14:13:01Z</time></trkpt>
<trkpt lat="46.81651" lon="6.52384"><ele>902.2</ele><time>2015-11-10T14:13:02Z</time></trkpt>
<trkpt lat="46.81664" lon="6.52404"><ele>899.8</ele><time>2015-11-10T14:13:13Z</time></trkpt>
<trkpt lat="46.81672" lon="6.52414"><ele>898.6</ele><time>2015-11-10T14:13:16Z</time></trkpt>
<trkpt lat="46.81678" lon="6.52421"><ele>897.6</ele><time>2015-11-10T14:13:18Z</time></trkpt>
<trkpt lat="46.81685" lon="6.52429"><ele>895.8</ele><time>2015-11-10T14:13:22Z</time></trkpt>
<trkpt lat="46.81694" lon="6.52455"><ele>889.8</ele><time>2015-11-10T14:13:35Z</time></trkpt>
<trkpt lat="46.81704" lon="6.5248"><ele>885.8</ele><time>2015-11-10T14:13:43Z</time></trkpt>
<trkpt lat="46.81717" lon="6.52503"><ele>882.8</ele><time>2015-11-10T14:13:49Z</time></trkpt>
<trkpt lat="46.81727" lon="6.52525"><ele>880.6</ele><time>2015-11-10T14:13:56Z</time></trkpt>
<trkpt lat="46.81729" lon="6.52533"><ele>879.6</ele><time>2015-11-10T14:14:00Z</time></trkpt>
<trkpt lat="46.8174" lon="6.52555"><ele>879.4</ele><time>2015-11-10T14:14:11Z</time></trkpt>
<trkpt lat="46.81741" lon="6.52558"><ele>879.4</ele><time>2015-11-10T14:14:13Z</time></trkpt>
<trkpt lat="46.81744" lon="6.52582"><ele>877.8</ele><time>2015-11-10T14:14:18Z</time></trkpt>
<trkpt lat="46.81743" lon="6.52612"><ele>874.6</ele><time>2015-11-10T14:14:24Z</time></trkpt>
<trkpt lat="46.81738" lon="6.52623"><ele>872.8</ele><time>2015-11-10T14:14:28Z</time></trkpt>
<trkpt lat="46.81721" lon="6.5263"><ele>869.6</ele><time>2015-11-10T14:14:35Z</time></trkpt>
<trkpt lat="46.81719" lon="6.52632"><ele>869</ele><time>2015-11-10T14:14:36Z</time></trkpt>
<trkpt lat="46.81717" lon="6.52636"><ele>868.8</ele><time>2015-11-10T14:14:37Z</time></trkpt>
<trkpt lat="46.81716" lon="6.52641"><ele>868.4</ele><time>2015-11-10T14:14:38Z</time></trkpt>
<trkpt lat="46.81703" lon="6.52665"><ele>865.8</ele><time>2015-11-10T14:14:43Z</time></trkpt>
<trkpt lat="46.8169" lon="6.52685"><ele>863.8</ele><time>2015-11-10T14:14:47Z</time></trkpt>
<trkpt lat="46.81677" lon="6.52705"><ele>862.2</ele><time>2015-11-10T14:14:50Z</time></trkpt>
<trkpt lat="46.81674" lon="6.52711"><ele>861.6</ele><time>2015-11-10T14:14:51Z</time></trkpt>
<trkpt lat="46.81667" lon="6.52727"><ele>860.2</ele><time>2015-11-10T14:14:54Z</time></trkpt>
<trkpt lat="46.81661" lon="6.52745"><ele>858.8</ele><time>2015-11-10T14:14:57Z</time></trkpt>
<trkpt lat="46.81657" lon="6.52759"><ele>858.2</ele><time>2015-11-10T14:14:59Z</time></trkpt>
<trkpt lat="46.81651" lon="6.52784"><ele>858</ele><time>2015-11-10T14:15:02Z</time></trkpt>
<trkpt lat="46.81646" lon="6.52806"><ele>857.4</ele><time>2015-11-10T14:15:05Z</time></trkpt>
<trkpt lat="46.81643" lon="6.5282"><ele>857.6</ele><time>2015-11-10T14:15:07Z</time></trkpt>
<trkpt lat="46.81641" lon="6.52827"><ele>857.8</ele><time>2015-11-10T14:15:08Z</time></trkpt>
<trkpt lat="46.8164" lon="6.52832"><ele>858.4</ele><time>2015-11-10T14:15:09Z</time></trkpt>
<trkpt lat="46.81638" lon="6.52837"><ele>858.8</ele><time>2015-11-10T14:15:10Z</time></trkpt>
<trkpt lat="46.8163" lon="6.52855"><ele>861.2</ele><time>2015-11-10T14:15:15Z</time></trkpt>
<trkpt lat="46.81627" lon="6.52864"><ele>865.6</ele><time>2015-11-10T14:15:25Z</time></trkpt>
<trkpt lat="46.81627" lon="6.52873"><ele>867</ele><time>2015-11-10T14:15:38Z</time></trkpt>
<trkpt lat="46.81628" lon="6.52878"><ele>869.6</ele><time>2015-11-10T14:15:52Z</time></trkpt>
<trkpt lat="46.81625" lon="6.52894"><ele>875.6</ele><time>2015-11-10T14:16:37Z</time></trkpt>
<trkpt lat="46.81622" lon="6.52901"><ele>875.8</ele><time>2015-11-10T14:16:39Z</time></trkpt>
<trkpt lat="46.81609" lon="6.52923"><ele>876</ele><time>2015-11-10T14:16:43Z</time></trkpt>
<trkpt lat="46.81597" lon="6.52939"><ele>875.4</ele><time>2015-11-10T14:16:46Z</time></trkpt>
<trkpt lat="46.81588" lon="6.52956"><ele>874.4</ele><time>2015-11-10T14:16:49Z</time></trkpt>
<trkpt lat="46.81583" lon="6.52982"><ele>872.2</ele><time>2015-11-10T14:16:53Z</time></trkpt>
<trkpt lat="46.81574" lon="6.52998"><ele>870.2</ele><time>2015-11-10T14:16:56Z</time></trkpt>
<trkpt lat="46.81571" lon="6.53005"><ele>869</ele><time>2015-11-10T14:16:58Z</time></trkpt>
<trkpt lat="46.81571" lon="6.53013"><ele>867.2</ele><time>2015-11-10T14:17:00Z</time></trkpt>
<trkpt lat="46.81577" lon="6.53041"><ele>860.6</ele><time>2015-11-10T14:17:06Z</time></trkpt>
<trkpt lat="46.81578" lon="6.53046"><ele>858.4</ele><time>2015-11-10T14:17:07Z</time></trkpt>
<trkpt lat="46.81578" lon="6.5305"><ele>856.8</ele><time>2015-11-10T14:17:08Z</time></trkpt>
<trkpt lat="46.81579" lon="6.53054"><ele>855.6</ele><time>2015-11-10T14:17:09Z</time></trkpt>
<trkpt lat="46.81576" lon="6.53082"><ele>848</ele><time>2015-11-10T14:17:16Z</time></trkpt>
<trkpt lat="46.81573" lon="6.53092"><ele>845.2</ele><time>2015-11-10T14:17:19Z</time></trkpt>
<trkpt lat="46.81569" lon="6.53106"><ele>840.4</ele><time>2015-11-10T14:17:25Z</time></trkpt>
<trkpt lat="46.8157" lon="6.53114"><ele>839.6</ele><time>2015-11-10T14:17:28Z</time></trkpt>
<trkpt lat="46.81569" lon="6.53122"><ele>837.8</ele><time>2015-11-10T14:17:32Z</time></trkpt>
<trkpt lat="46.81555" lon="6.53143"><ele>834.8</ele><time>2015-11-10T14:17:39Z</time></trkpt>
<trkpt lat="46.81548" lon="6.53147"><ele>834.2</ele><time>2015-11-10T14:17:41Z</time></trkpt>
<trkpt lat="46.81547" lon="6.53149"><ele>834</ele><time>2015-11-10T14:17:42Z</time></trkpt>
<trkpt lat="46.81535" lon="6.53161"><ele>831.8</ele><time>2015-11-10T14:17:51Z</time></trkpt>
<trkpt lat="46.81529" lon="6.53173"><ele>830.8</ele><time>2015-11-10T14:17:55Z</time></trkpt>
<trkpt lat="46.81532" lon="6.5319"><ele>829.4</ele><time>2015-11-10T14:18:00Z</time></trkpt>
<trkpt lat="46.81531" lon="6.53205"><ele>829</ele><time>2015-11-10T14:18:04Z</time></trkpt>
<trkpt lat="46.81519" lon="6.53229"><ele>827.6</ele><time>2015-11-10T14:18:08Z</time></trkpt>
<trkpt lat="46.81506" lon="6.53238"><ele>825.4</ele><time>2015-11-10T14:18:10Z</time></trkpt>
<trkpt lat="46.8149" lon="6.5324"><ele>825.8</ele><time>2015-11-10T14:18:14Z</time></trkpt>
<trkpt lat="46.81469" lon="6.5325"><ele>827</ele><time>2015-11-10T14:18:20Z</time></trkpt>
<trkpt lat="46.81462" lon="6.53251"><ele>828</ele><time>2015-11-10T14:18:22Z</time></trkpt>
<trkpt lat="46.81448" lon="6.53271"><ele>828.8</ele><time>2015-11-10T14:18:27Z</time></trkpt>
<trkpt lat="46.81448" lon="6.53282"><ele>829.6</ele><time>2015-11-10T14:18:29Z</time></trkpt>
<trkpt lat="46.81442" lon="6.5331"><ele>829.6</ele><time>2015-11-10T14:18:36Z</time></trkpt>
<trkpt lat="46.81437" lon="6.53335"><ele>828.8</ele><time>2015-11-10T14:18:42Z</time></trkpt>
<trkpt lat="46.81435" lon="6.5335"><ele>827.4</ele><time>2015-11-10T14:18:45Z</time></trkpt>
<trkpt lat="46.81443" lon="6.5338"><ele>801.2</ele><time>2015-11-10T14:18:56Z</time></trkpt>
<trkpt lat="46.81443" lon="6.53411"><ele>794</ele><time>2015-11-10T14:19:02Z</time></trkpt>
<trkpt lat="46.81439" lon="6.53431"><ele>789.2</ele><time>2015-11-10T14:19:06Z</time></trkpt>
<trkpt lat="46.81434" lon="6.53441"><ele>786</ele><time>2015-11-10T14:19:09Z</time></trkpt>
<trkpt lat="46.81419" lon="6.53461"><ele>776.8</ele><time>2015-11-10T14:19:15Z</time></trkpt>
<trkpt lat="46.81407" lon="6.53483"><ele>768.8</ele><time>2015-11-10T14:19:21Z</time></trkpt>
<trkpt lat="46.81391" lon="6.53501"><ele>762.8</ele><time>2015-11-10T14:19:25Z</time></trkpt>
<trkpt lat="46.81374" lon="6.53516"><ele>758</ele><time>2015-11-10T14:19:29Z</time></trkpt>
<trkpt lat="46.81372" lon="6.53519"><ele>756.4</ele><time>2015-11-10T14:19:31Z</time></trkpt>
<trkpt lat="46.81364" lon="6.53521"><ele>754.8</ele><time>2015-11-10T14:19:49Z</time></trkpt>
<trkpt lat="46.81358" lon="6.53529"><ele>753.2</ele><time>2015-11-10T14:20:07Z</time></trkpt>
<trkpt lat="46.81359" lon="6.53524"><ele>752.4</ele><time>2015-11-10T14:20:31Z</time></trkpt>
<trkpt lat="46.81368" lon="6.53515"><ele>752.2</ele><time>2015-11-10T14:20:35Z</time></trkpt>
<trkpt lat="46.81372" lon="6.53512"><ele>751.8</ele><time>2015-11-10T14:20:38Z</time></trkpt>
<trkpt lat="46.81363" lon="6.53534"><ele>749.2</ele><time>2015-11-10T14:20:48Z</time></trkpt>
<trkpt lat="46.81362" lon="6.5354"><ele>748.8</ele><time>2015-11-10T14:20:49Z</time></trkpt>
<trkpt lat="46.81358" lon="6.53556"><ele>747.2</ele><time>2015-11-10T14:20:52Z</time></trkpt>
<trkpt lat="46.81357" lon="6.53565"><ele>746.2</ele><time>2015-11-10T14:20:57Z</time></trkpt>
<trkpt lat="46.81359" lon="6.53593"><ele>744.8</ele><time>2015-11-10T14:21:08Z</time></trkpt>
<trkpt lat="46.81357" lon="6.5362"><ele>743.8</ele><time>2015-11-10T14:21:12Z</time></trkpt>
<trkpt lat="46.81353" lon="6.53643"><ele>742.8</ele><time>2015-11-10T14:21:15Z</time></trkpt>
<trkpt lat="46.81351" lon="6.53659"><ele>742</ele><time>2015-11-10T14:21:17Z</time></trkpt>
<trkpt lat="46.81349" lon="6.53665"><ele>741.6</ele><time>2015-11-10T14:21:18Z</time></trkpt>
<trkpt lat="46.81346" lon="6.5367"><ele>741.2</ele><time>2015-11-10T14:21:19Z</time></trkpt>
<trkpt lat="46.81325" lon="6.53689"><ele>738.8</ele><time>2015-11-10T14:21:23Z</time></trkpt>
<trkpt lat="46.81315" lon="6.53697"><ele>737.8</ele><time>2015-11-10T14:21:25Z</time></trkpt>
<trkpt lat="46.81302" lon="6.53704"><ele>736.6</ele><time>2015-11-10T14:21:27Z</time></trkpt>
<trkpt lat="46.81291" lon="6.53723"><ele>734.2</ele><time>2015-11-10T14:21:32Z</time></trkpt>
<trkpt lat="46.81278" lon="6.53744"><ele>729.2</ele><time>2015-11-10T14:21:37Z</time></trkpt>
<trkpt lat="46.81277" lon="6.53746"><ele>728.4</ele><time>2015-11-10T14:21:38Z</time></trkpt>
<trkpt lat="46.81275" lon="6.53747"><ele>727.4</ele><time>2015-11-10T14:21:39Z</time></trkpt>
<trkpt lat="46.81273" lon="6.53755"><ele>725.6</ele><time>2015-11-10T14:21:45Z</time></trkpt>
<trkpt lat="46.81272" lon="6.53756"><ele>725.2</ele><time>2015-11-10T14:21:46Z</time></trkpt>
<trkpt lat="46.81268" lon="6.53764"><ele>721.4</ele><time>2015-11-10T14:21:56Z</time></trkpt>
<trkpt lat="46.81256" lon="6.53785"><ele>718.2</ele><time>2015-11-10T14:22:10Z</time></trkpt>
<trkpt lat="46.81236" lon="6.53801"><ele>717.8</ele><time>2015-11-10T14:22:14Z</time></trkpt>
<trkpt lat="46.81226" lon="6.53812"><ele>717</ele><time>2015-11-10T14:22:16Z</time></trkpt>
<trkpt lat="46.81213" lon="6.53839"><ele>715.2</ele><time>2015-11-10T14:22:20Z</time></trkpt>
<trkpt lat="46.81208" lon="6.53849"><ele>714.2</ele><time>2015-11-10T14:22:22Z</time></trkpt>
<trkpt lat="46.81203" lon="6.53863"><ele>712.4</ele><time>2015-11-10T14:22:25Z</time></trkpt>
<trkpt lat="46.81195" lon="6.53885"><ele>708.8</ele><time>2015-11-10T14:22:29Z</time></trkpt>
<trkpt lat="46.81192" lon="6.53895"><ele>706.4</ele><time>2015-11-10T14:22:32Z</time></trkpt>
<trkpt lat="46.8119" lon="6.53899"><ele>705.2</ele><time>2015-11-10T14:22:38Z</time></trkpt>
<trkpt lat="46.81185" lon="6.53925"><ele>700.6</ele><time>2015-11-10T14:23:05Z</time></trkpt>
<trkpt lat="46.8118" lon="6.53951"><ele>698.4</ele><time>2015-11-10T14:23:16Z</time></trkpt>
<trkpt lat="46.8117" lon="6.53981"><ele>695.6</ele><time>2015-11-10T14:23:20Z</time></trkpt>
<trkpt lat="46.81163" lon="6.53996"><ele>694.2</ele><time>2015-11-10T14:23:22Z</time></trkpt>
<trkpt lat="46.81151" lon="6.54019"><ele>692.6</ele><time>2015-11-10T14:23:25Z</time></trkpt>
<trkpt lat="46.8114" lon="6.54047"><ele>691</ele><time>2015-11-10T14:23:28Z</time></trkpt>
<trkpt lat="46.81126" lon="6.54076"><ele>689.2</ele><time>2015-11-10T14:23:31Z</time></trkpt>
<trkpt lat="46.81115" lon="6.54105"><ele>688.2</ele><time>2015-11-10T14:23:34Z</time></trkpt>
<trkpt lat="46.81102" lon="6.5413"><ele>686.4</ele><time>2015-11-10T14:23:37Z</time></trkpt>
<trkpt lat="46.81092" lon="6.54146"><ele>684.8</ele><time>2015-11-10T14:23:39Z</time></trkpt>
<trkpt lat="46.81074" lon="6.54163"><ele>683</ele><time>2015-11-10T14:23:42Z</time></trkpt>
<trkpt lat="46.81058" lon="6.54183"><ele>681.2</ele><time>2015-11-10T14:23:46Z</time></trkpt>
<trkpt lat="46.81055" lon="6.54195"><ele>680.2</ele><time>2015-11-10T14:23:48Z</time></trkpt>
<trkpt lat="46.81052" lon="6.54212"><ele>678.8</ele><time>2015-11-10T14:23:50Z</time></trkpt>
<trkpt lat="46.81039" lon="6.54231"><ele>676.6</ele><time>2015-11-10T14:23:53Z</time></trkpt>
<trkpt lat="46.81024" lon="6.5424"><ele>674.8</ele><time>2015-11-10T14:23:56Z</time></trkpt>
<trkpt lat="46.8102" lon="6.54244"><ele>674.6</ele><time>2015-11-10T14:23:57Z</time></trkpt>
<trkpt lat="46.81006" lon="6.54256"><ele>673.4</ele><time>2015-11-10T14:24:00Z</time></trkpt>
<trkpt lat="46.80985" lon="6.54267"><ele>671.4</ele><time>2015-11-10T14:24:04Z</time></trkpt>
<trkpt lat="46.80976" lon="6.54291"><ele>668.2</ele><time>2015-11-10T14:24:08Z</time></trkpt>
<trkpt lat="46.80964" lon="6.54315"><ele>665.6</ele><time>2015-11-10T14:24:12Z</time></trkpt>
<trkpt lat="46.80945" lon="6.54324"><ele>665.6</ele><time>2015-11-10T14:24:18Z</time></trkpt>
<trkpt lat="46.80938" lon="6.54353"><ele>669.2</ele><time>2015-11-10T14:24:24Z</time></trkpt>
<trkpt lat="46.80941" lon="6.5436"><ele>669.4</ele><time>2015-11-10T14:24:25Z</time></trkpt>
<trkpt lat="46.80943" lon="6.54366"><ele>669.6</ele><time>2015-11-10T14:24:26Z</time></trkpt>
<trkpt lat="46.80953" lon="6.54384"><ele>669.6</ele><time>2015-11-10T14:24:30Z</time></trkpt>
<trkpt lat="46.80947" lon="6.54395"><ele>669.4</ele><time>2015-11-10T14:24:34Z</time></trkpt>
<trkpt lat="46.80943" lon="6.54398"><ele>669.6</ele><time>2015-11-10T14:24:35Z</time></trkpt>
<trkpt lat="46.8093" lon="6.54412"><ele>673</ele><time>2015-11-10T14:24:40Z</time></trkpt>
<trkpt lat="46.80929" lon="6.54412"><ele>673.4</ele><time>2015-11-10T14:24:41Z</time></trkpt>
<trkpt lat="46.80927" lon="6.54415"><ele>673</ele><time>2015-11-10T14:24:45Z</time></trkpt>
<trkpt lat="46.80923" lon="6.54422"><ele>672.6</ele><time>2015-11-10T14:24:49Z</time></trkpt>
<trkpt lat="46.80919" lon="6.54422"><ele>670</ele><time>2015-11-10T14:24:53Z</time></trkpt>
<trkpt lat="46.80912" lon="6.54427"><ele>665</ele><time>2015-11-10T14:25:08Z</time></trkpt>
<trkpt lat="46.80907" lon="6.54436"><ele>664</ele><time>2015-11-10T14:25:12Z</time></trkpt>
<trkpt lat="46.80901" lon="6.54443"><ele>661.8</ele><time>2015-11-10T14:25:18Z</time></trkpt>
<trkpt lat="46.80883" lon="6.54443"><ele>657.8</ele><time>2015-11-10T14:25:32Z</time></trkpt>
<trkpt lat="46.80875" lon="6.54448"><ele>657</ele><time>2015-11-10T14:25:36Z</time></trkpt>
<trkpt lat="46.80871" lon="6.5445"><ele>656.6</ele><time>2015-11-10T14:25:41Z</time></trkpt>
<trkpt lat="46.80857" lon="6.54453"><ele>650.4</ele><time>2015-11-10T14:25:54Z</time></trkpt>
<trkpt lat="46.80857" lon="6.54453"><ele>649.8</ele><time>2015-11-10T14:25:55Z</time></trkpt>
<trkpt lat="46.80851" lon="6.54457"><ele>649.2</ele><time>2015-11-10T14:25:59Z</time></trkpt>
<trkpt lat="46.80849" lon="6.54459"><ele>649</ele><time>2015-11-10T14:26:00Z</time></trkpt>
<trkpt lat="46.80844" lon="6.54481"><ele>646.2</ele><time>2015-11-10T14:26:06Z</time></trkpt>
<trkpt lat="46.80838" lon="6.54494"><ele>643.8</ele><time>2015-11-10T14:26:10Z</time></trkpt>
<trkpt lat="46.80836" lon="6.54498"><ele>643.4</ele><time>2015-11-10T14:26:11Z</time></trkpt>
<trkpt lat="46.80837" lon="6.54524"><ele>638.6</ele><time>2015-11-10T14:26:18Z</time></trkpt>
<trkpt lat="46.80833" lon="6.54536"><ele>634.6</ele><time>2015-11-10T14:26:22Z</time></trkpt>
<trkpt lat="46.80832" lon="6.5454"><ele>633.4</ele><time>2015-11-10T14:26:24Z</time></trkpt>
<trkpt lat="46.80819" lon="6.54561"><ele>625.6</ele><time>2015-11-10T14:26:31Z</time></trkpt>
<trkpt lat="46.80806" lon="6.54581"><ele>618.8</ele><time>2015-11-10T14:26:37Z</time></trkpt>
<trkpt lat="46.80794" lon="6.54607"><ele>613.2</ele><time>2015-11-10T14:26:43Z</time></trkpt>
<trkpt lat="46.8079" lon="6.54616"><ele>610.2</ele><time>2015-11-10T14:26:47Z</time></trkpt>
<trkpt lat="46.8079" lon="6.54621"><ele>610.2</ele><time>2015-11-10T14:27:04Z</time></trkpt>
<trkpt lat="46.8079" lon="6.54628"><ele>608.8</ele><time>2015-11-10T14:27:36Z</time></trkpt>
<trkpt lat="46.8079" lon="6.5463"><ele>608.4</ele><time>2015-11-10T14:27:39Z</time></trkpt>
<trkpt lat="46.8079" lon="6.54629"><ele>608</ele><time>2015-11-10T14:27:43Z</time></trkpt>
<trkpt lat="46.80789" lon="6.5463"><ele>607.6</ele><time>2015-11-10T14:27:50Z</time></trkpt>
<trkpt lat="46.80789" lon="6.54628"><ele>607.2</ele><time>2015-11-10T14:28:01Z</time></trkpt>
<trkpt lat="46.8079" lon="6.54626"><ele>607</ele><time>2015-11-10T14:28:05Z</time></trkpt>
<trkpt lat="46.80783" lon="6.54632"><ele>606.6</ele><time>2015-11-10T14:28:11Z</time></trkpt>
<trkpt lat="46.80763" lon="6.54648"><ele>605.2</ele><time>2015-11-10T14:28:16Z</time></trkpt>
<trkpt lat="46.80759" lon="6.54651"><ele>605</ele><time>2015-11-10T14:28:17Z</time></trkpt>
<trkpt lat="46.80751" lon="6.54659"><ele>604.4</ele><time>2015-11-10T14:28:19Z</time></trkpt>
<trkpt lat="46.80744" lon="6.54666"><ele>603.6</ele><time>2015-11-10T14:28:21Z</time></trkpt>
<trkpt lat="46.80729" lon="6.54677"><ele>602.4</ele><time>2015-11-10T14:28:25Z</time></trkpt>
<trkpt lat="46.80713" lon="6.54661"><ele>600</ele><time>2015-11-10T14:28:29Z</time></trkpt>
<trkpt lat="46.80697" lon="6.54639"><ele>596.8</ele><time>2015-11-10T14:28:32Z</time></trkpt>
<trkpt lat="46.80682" lon="6.54614"><ele>595.8</ele><time>2015-11-10T14:28:35Z</time></trkpt>
<trkpt lat="46.80671" lon="6.54586"><ele>594</ele><time>2015-11-10T14:28:38Z</time></trkpt>
<trkpt lat="46.80662" lon="6.5457"><ele>592.8</ele><time>2015-11-10T14:28:40Z</time></trkpt>
<trkpt lat="46.80658" lon="6.54564"><ele>592.8</ele><time>2015-11-10T14:28:41Z</time></trkpt>
<trkpt lat="46.80643" lon="6.54545"><ele>593.4</ele><time>2015-11-10T14:28:44Z</time></trkpt>
<trkpt lat="46.80628" lon="6.54529"><ele>593.2</ele><time>2015-11-10T14:28:47Z</time></trkpt>
<trkpt lat="46.80612" lon="6.54513"><ele>593</ele><time>2015-11-10T14:28:50Z</time></trkpt>
<trkpt lat="46.80595" lon="6.54494"><ele>592.2</ele><time>2015-11-10T14:28:54Z</time></trkpt>
<trkpt lat="46.80587" lon="6.54485"><ele>592.2</ele><time>2015-11-10T14:28:56Z</time></trkpt>
<trkpt lat="46.80571" lon="6.54463"><ele>592.4</ele><time>2015-11-10T14:29:01Z</time></trkpt>
<trkpt lat="46.80556" lon="6.54442"><ele>593.2</ele><time>2015-11-10T14:29:06Z</time></trkpt>
<trkpt lat="46.80543" lon="6.54421"><ele>594.2</ele><time>2015-11-10T14:29:11Z</time></trkpt>
<trkpt lat="46.80538" lon="6.54412"><ele>594.2</ele><time>2015-11-10T14:29:13Z</time></trkpt>
<trkpt lat="46.8053" lon="6.54399"><ele>593.8</ele><time>2015-11-10T14:29:16Z</time></trkpt>
<trkpt lat="46.8052" lon="6.54379"><ele>594.4</ele><time>2015-11-10T14:29:20Z</time></trkpt>
<trkpt lat="46.80513" lon="6.54364"><ele>594.8</ele><time>2015-11-10T14:29:23Z</time></trkpt>
<trkpt lat="46.80499" lon="6.54341"><ele>595</ele><time>2015-11-10T14:29:28Z</time></trkpt>
<trkpt lat="46.80484" lon="6.54321"><ele>596.2</ele><time>2015-11-10T14:29:33Z</time></trkpt>
<trkpt lat="46.80482" lon="6.54316"><ele>596.2</ele><time>2015-11-10T14:29:34Z</time></trkpt>
<trkpt lat="46.80472" lon="6.543"><ele>596.8</ele><time>2015-11-10T14:29:38Z</time></trkpt>
<trkpt lat="46.80458" lon="6.54283"><ele>596</ele><time>2015-11-10T14:29:45Z</time></trkpt>
<trkpt lat="46.80451" lon="6.54276"><ele>595.8</ele><time>2015-11-10T14:29:50Z</time></trkpt>
<trkpt lat="46.80444" lon="6.54269"><ele>595</ele><time>2015-11-10T14:29:54Z</time></trkpt>
<trkpt lat="46.80429" lon="6.54252"><ele>595.2</ele><time>2015-11-10T14:30:00Z</time></trkpt>
<trkpt lat="46.80426" lon="6.54248"><ele>595.2</ele><time>2015-11-10T14:30:01Z</time></trkpt>
<trkpt lat="46.80424" lon="6.54243"><ele>595</ele><time>2015-11-10T14:30:02Z</time></trkpt>
<trkpt lat="46.80421" lon="6.54239"><ele>595</ele><time>2015-11-10T14:30:03Z</time></trkpt>
<trkpt lat="46.80408" lon="6.5422"><ele>596</ele><time>2015-11-10T14:30:08Z</time></trkpt>
<trkpt lat="46.80392" lon="6.54198"><ele>596.8</ele><time>2015-11-10T14:30:14Z</time></trkpt>
<trkpt lat="46.80377" lon="6.54183"><ele>597.2</ele><time>2015-11-10T14:30:19Z</time></trkpt>
<trkpt lat="46.80362" lon="6.54169"><ele>595.4</ele><time>2015-11-10T14:30:24Z</time></trkpt>
<trkpt lat="46.80347" lon="6.54158"><ele>595.2</ele><time>2015-11-10T14:30:29Z</time></trkpt>
<trkpt lat="46.80336" lon="6.5415"><ele>595.6</ele><time>2015-11-10T14:30:33Z</time></trkpt>
<trkpt lat="46.8033" lon="6.54146"><ele>597.2</ele><time>2015-11-10T14:30:35Z</time></trkpt>
<trkpt lat="46.80311" lon="6.54136"><ele>598</ele><time>2015-11-10T14:30:40Z</time></trkpt>
<trkpt lat="46.80295" lon="6.54124"><ele>597.4</ele><time>2015-11-10T14:30:45Z</time></trkpt>
<trkpt lat="46.80276" lon="6.54113"><ele>599.2</ele><time>2015-11-10T14:30:50Z</time></trkpt>
<trkpt lat="46.80261" lon="6.54104"><ele>600.8</ele><time>2015-11-10T14:30:54Z</time></trkpt>
<trkpt lat="46.80258" lon="6.54102"><ele>600.8</ele><time>2015-11-10T14:30:55Z</time></trkpt>
<trkpt lat="46.80254" lon="6.541"><ele>600.6</ele><time>2015-11-10T14:30:56Z</time></trkpt>
<trkpt lat="46.80237" lon="6.54088"><ele>597.6</ele><time>2015-11-10T14:31:00Z</time></trkpt>
<trkpt lat="46.80219" lon="6.54076"><ele>595.8</ele><time>2015-11-10T14:31:04Z</time></trkpt>
<trkpt lat="46.80202" lon="6.54059"><ele>594.8</ele><time>2015-11-10T14:31:08Z</time></trkpt>
<trkpt lat="46.80185" lon="6.5404"><ele>594.2</ele><time>2015-11-10T14:31:12Z</time></trkpt>
<trkpt lat="46.80168" lon="6.54024"><ele>594.2</ele><time>2015-11-10T14:31:16Z</time></trkpt>
<trkpt lat="46.80151" lon="6.54008"><ele>594.8</ele><time>2015-11-10T14:31:20Z</time></trkpt>
<trkpt lat="46.80134" lon="6.53989"><ele>595.4</ele><time>2015-11-10T14:31:25Z</time></trkpt>
<trkpt lat="46.80128" lon="6.53981"><ele>595.4</ele><time>2015-11-10T14:31:27Z</time></trkpt>
<trkpt lat="46.80122" lon="6.53972"><ele>595.6</ele><time>2015-11-10T14:31:29Z</time></trkpt>
<trkpt lat="46.80108" lon="6.53947"><ele>595.2</ele><time>2015-11-10T14:31:34Z</time></trkpt>
<trkpt lat="46.80093" lon="6.53933"><ele>595</ele><time>2015-11-10T14:31:38Z</time></trkpt>
<trkpt lat="46.80076" lon="6.53921"><ele>595</ele><time>2015-11-10T14:31:42Z</time></trkpt>
<trkpt lat="46.80067" lon="6.53915"><ele>595.4</ele><time>2015-11-10T14:31:44Z</time></trkpt>
<trkpt lat="46.80063" lon="6.53912"><ele>595.6</ele><time>2015-11-10T14:31:45Z</time></trkpt>
<trkpt lat="46.80044" lon="6.53896"><ele>595.8</ele><time>2015-11-10T14:31:50Z</time></trkpt>
<trkpt lat="46.80026" lon="6.53879"><ele>596.4</ele><time>2015-11-10T14:31:55Z</time></trkpt>
<trkpt lat="46.80009" lon="6.53866"><ele>598.4</ele><time>2015-11-10T14:32:00Z</time></trkpt>
<trkpt lat="46.80002" lon="6.53858"><ele>599</ele><time>2015-11-10T14:32:03Z</time></trkpt>
<trkpt lat="46.79998" lon="6.53853"><ele>599.6</ele><time>2015-11-10T14:32:06Z</time></trkpt>
<trkpt lat="46.79997" lon="6.53852"><ele>599</ele><time>2015-11-10T14:32:16Z</time></trkpt>
<trkpt lat="46.79996" lon="6.53853"><ele>598.8</ele><time>2015-11-10T14:32:18Z</time></trkpt>
<trkpt lat="46.79992" lon="6.53825"><ele>599.2</ele><time>2015-11-10T14:32:30Z</time></trkpt>
<trkpt lat="46.79985" lon="6.53798"><ele>600.8</ele><time>2015-11-10T14:32:39Z</time></trkpt>
<trkpt lat="46.79977" lon="6.53773"><ele>603.4</ele><time>2015-11-10T14:32:47Z</time></trkpt>
<trkpt lat="46.79975" lon="6.53771"><ele>603.8</ele><time>2015-11-10T14:32:48Z</time></trkpt>
<trkpt lat="46.79963" lon="6.5375"><ele>605.8</ele><time>2015-11-10T14:32:56Z</time></trkpt>
<trkpt lat="46.79946" lon="6.53735"><ele>607.8</ele><time>2015-11-10T14:33:04Z</time></trkpt>
<trkpt lat="46.7993" lon="6.53718"><ele>608.8</ele><time>2015-11-10T14:33:12Z</time></trkpt>
<trkpt lat="46.79917" lon="6.53698"><ele>610.8</ele><time>2015-11-10T14:33:19Z</time></trkpt>
<trkpt lat="46.79904" lon="6.53676"><ele>613.6</ele><time>2015-11-10T14:33:27Z</time></trkpt>
<trkpt lat="46.79891" lon="6.53652"><ele>614.6</ele><time>2015-11-10T14:33:35Z</time></trkpt>
<trkpt lat="46.79876" lon="6.53636"><ele>613</ele><time>2015-11-10T14:33:43Z</time></trkpt>
<trkpt lat="46.79859" lon="6.53627"><ele>615.8</ele><time>2015-11-10T14:33:51Z</time></trkpt>
<trkpt lat="46.79842" lon="6.53617"><ele>618.6</ele><time>2015-11-10T14:33:59Z</time></trkpt>
<trkpt lat="46.79825" lon="6.53607"><ele>619.6</ele><time>2015-11-10T14:34:07Z</time></trkpt>
<trkpt lat="46.79808" lon="6.53593"><ele>620.8</ele><time>2015-11-10T14:34:15Z</time></trkpt>
<trkpt lat="46.79792" lon="6.53577"><ele>623.8</ele><time>2015-11-10T14:34:23Z</time></trkpt>
<trkpt lat="46.79779" lon="6.53563"><ele>625.2</ele><time>2015-11-10T14:34:30Z</time></trkpt>
<trkpt lat="46.79764" lon="6.53546"><ele>626.8</ele><time>2015-11-10T14:34:38Z</time></trkpt>
<trkpt lat="46.79749" lon="6.53529"><ele>627</ele><time>2015-11-10T14:34:46Z</time></trkpt>
<trkpt lat="46.79742" lon="6.53515"><ele>627.8</ele><time>2015-11-10T14:34:51Z</time></trkpt>
<trkpt lat="46.79732" lon="6.53493"><ele>626.4</ele><time>2015-11-10T14:34:57Z</time></trkpt>
<trkpt lat="46.79721" lon="6.53473"><ele>625.4</ele><time>2015-11-10T14:35:03Z</time></trkpt>
<trkpt lat="46.79707" lon="6.53456"><ele>625.4</ele><time>2015-11-10T14:35:09Z</time></trkpt>
<trkpt lat="46.79695" lon="6.53437"><ele>624.4</ele><time>2015-11-10T14:35:16Z</time></trkpt>
<trkpt lat="46.79688" lon="6.53427"><ele>624.8</ele><time>2015-11-10T14:35:20Z</time></trkpt>
<trkpt lat="46.79673" lon="6.5341"><ele>627</ele><time>2015-11-10T14:35:27Z</time></trkpt>
<trkpt lat="46.79662" lon="6.53396"><ele>628.6</ele><time>2015-11-10T14:35:32Z</time></trkpt>
<trkpt lat="46.79651" lon="6.53376"><ele>629.6</ele><time>2015-11-10T14:35:38Z</time></trkpt>
<trkpt lat="46.79644" lon="6.53368"><ele>628.4</ele><time>2015-11-10T14:35:41Z</time></trkpt>
<trkpt lat="46.79629" lon="6.53348"><ele>628.2</ele><time>2015-11-10T14:35:48Z</time></trkpt>
<trkpt lat="46.79616" lon="6.53334"><ele>628.8</ele><time>2015-11-10T14:35:53Z</time></trkpt>
<trkpt lat="46.796" lon="6.53318"><ele>627.8</ele><time>2015-11-10T14:35:59Z</time></trkpt>
<trkpt lat="46.79584" lon="6.533"><ele>628</ele><time>2015-11-10T14:36:05Z</time></trkpt>
<trkpt lat="46.79568" lon="6.53282"><ele>628.8</ele><time>2015-11-10T14:36:12Z</time></trkpt>
<trkpt lat="46.79553" lon="6.53263"><ele>630.2</ele><time>2015-11-10T14:36:19Z</time></trkpt>
<trkpt lat="46.79539" lon="6.53243"><ele>629.8</ele><time>2015-11-10T14:36:26Z</time></trkpt>
<trkpt lat="46.79525" lon="6.53225"><ele>630.4</ele><time>2015-11-10T14:36:33Z</time></trkpt>
<trkpt lat="46.79511" lon="6.53207"><ele>631.4</ele><time>2015-11-10T14:36:40Z</time></trkpt>
<trkpt lat="46.79497" lon="6.53188"><ele>632.2</ele><time>2015-11-10T14:36:47Z</time></trkpt>
<trkpt lat="46.79482" lon="6.53171"><ele>632</ele><time>2015-11-10T14:36:54Z</time></trkpt>
<trkpt lat="46.79465" lon="6.5316"><ele>631.8</ele><time>2015-11-10T14:37:01Z</time></trkpt>
<trkpt lat="46.79445" lon="6.53157"><ele>631.4</ele><time>2015-11-10T14:37:07Z</time></trkpt>
<trkpt lat="46.79424" lon="6.53151"><ele>630.6</ele><time>2015-11-10T14:37:12Z</time></trkpt>
<trkpt lat="46.79414" lon="6.53147"><ele>630.4</ele><time>2015-11-10T14:37:14Z</time></trkpt>
<trkpt lat="46.79391" lon="6.53139"><ele>630</ele><time>2015-11-10T14:37:18Z</time></trkpt>
<trkpt lat="46.79385" lon="6.53136"><ele>629.6</ele><time>2015-11-10T14:37:19Z</time></trkpt>
<trkpt lat="46.79369" lon="6.53121"><ele>628.4</ele><time>2015-11-10T14:37:22Z</time></trkpt>
<trkpt lat="46.79355" lon="6.53101"><ele>627.4</ele><time>2015-11-10T14:37:25Z</time></trkpt>
<trkpt lat="46.79347" lon="6.53084"><ele>626.4</ele><time>2015-11-10T14:37:27Z</time></trkpt>
<trkpt lat="46.79335" lon="6.53058"><ele>625.6</ele><time>2015-11-10T14:37:30Z</time></trkpt>
<trkpt lat="46.79327" lon="6.53029"><ele>624.6</ele><time>2015-11-10T14:37:33Z</time></trkpt>
<trkpt lat="46.79322" lon="6.52998"><ele>623.2</ele><time>2015-11-10T14:37:36Z</time></trkpt>
<trkpt lat="46.79313" lon="6.52967"><ele>623.6</ele><time>2015-11-10T14:37:39Z</time></trkpt>
<trkpt lat="46.79302" lon="6.52938"><ele>623</ele><time>2015-11-10T14:37:42Z</time></trkpt>
<trkpt lat="46.79289" lon="6.52913"><ele>622.6</ele><time>2015-11-10T14:37:45Z</time></trkpt>
<trkpt lat="46.79276" lon="6.5289"><ele>621</ele><time>2015-11-10T14:37:48Z</time></trkpt>
<trkpt lat="46.79263" lon="6.52871"><ele>621.2</ele><time>2015-11-10T14:37:51Z</time></trkpt>
<trkpt lat="46.79245" lon="6.52849"><ele>620.2</ele><time>2015-11-10T14:37:55Z</time></trkpt>
<trkpt lat="46.79229" lon="6.52831"><ele>620.2</ele><time>2015-11-10T14:37:58Z</time></trkpt>
<trkpt lat="46.79214" lon="6.52811"><ele>620</ele><time>2015-11-10T14:38:01Z</time></trkpt>
<trkpt lat="46.79199" lon="6.52793"><ele>619.4</ele><time>2015-11-10T14:38:04Z</time></trkpt>
<trkpt lat="46.79182" lon="6.52777"><ele>618.2</ele><time>2015-11-10T14:38:08Z</time></trkpt>
<trkpt lat="46.79166" lon="6.52767"><ele>617.8</ele><time>2015-11-10T14:38:12Z</time></trkpt>
<trkpt lat="46.79146" lon="6.52772"><ele>618</ele><time>2015-11-10T14:38:18Z</time></trkpt>
<trkpt lat="46.79143" lon="6.52775"><ele>617.8</ele><time>2015-11-10T14:38:19Z</time></trkpt>
<trkpt lat="46.79132" lon="6.52784"><ele>618.2</ele><time>2015-11-10T14:38:22Z</time></trkpt>
<trkpt lat="46.79112" lon="6.52794"><ele>618.6</ele><time>2015-11-10T14:38:27Z</time></trkpt>
<trkpt lat="46.79106" lon="6.52797"><ele>619</ele><time>2015-11-10T14:38:29Z</time></trkpt>
<trkpt lat="46.79096" lon="6.52802"><ele>619.6</ele><time>2015-11-10T14:38:33Z</time></trkpt>
<trkpt lat="46.79093" lon="6.52802"><ele>620</ele><time>2015-11-10T14:38:36Z</time></trkpt>
<trkpt lat="46.79083" lon="6.52791"><ele>620</ele><time>2015-11-10T14:38:43Z</time></trkpt>
<trkpt lat="46.79081" lon="6.52783"><ele>620</ele><time>2015-11-10T14:38:45Z</time></trkpt>
<trkpt lat="46.79074" lon="6.52756"><ele>621.6</ele><time>2015-11-10T14:38:51Z</time></trkpt>
<trkpt lat="46.79068" lon="6.5273"><ele>623</ele><time>2015-11-10T14:38:57Z</time></trkpt>
<trkpt lat="46.79062" lon="6.52701"><ele>625.4</ele><time>2015-11-10T14:39:04Z</time></trkpt>
<trkpt lat="46.79057" lon="6.52675"><ele>626.6</ele><time>2015-11-10T14:39:10Z</time></trkpt>
<trkpt lat="46.7905" lon="6.5265"><ele>627.4</ele><time>2015-11-10T14:39:16Z</time></trkpt>
<trkpt lat="46.79046" lon="6.52624"><ele>628.6</ele><time>2015-11-10T14:39:22Z</time></trkpt>
<trkpt lat="46.79045" lon="6.52615"><ele>629.2</ele><time>2015-11-10T14:39:24Z</time></trkpt>
<trkpt lat="46.79039" lon="6.5259"><ele>630</ele><time>2015-11-10T14:39:30Z</time></trkpt>
<trkpt lat="46.79037" lon="6.52582"><ele>630.2</ele><time>2015-11-10T14:39:32Z</time></trkpt>
<trkpt lat="46.7903" lon="6.52556"><ele>630.8</ele><time>2015-11-10T14:39:39Z</time></trkpt>
<trkpt lat="46.79025" lon="6.52544"><ele>630.4</ele><time>2015-11-10T14:39:44Z</time></trkpt>
<trkpt lat="46.79013" lon="6.52524"><ele>630.8</ele><time>2015-11-10T14:39:51Z</time></trkpt>
<trkpt lat="46.78994" lon="6.52515"><ele>630.2</ele><time>2015-11-10T14:39:56Z</time></trkpt>
<trkpt lat="46.78974" lon="6.52508"><ele>629.6</ele><time>2015-11-10T14:40:01Z</time></trkpt>
<trkpt lat="46.78962" lon="6.52497"><ele>629.6</ele><time>2015-11-10T14:40:06Z</time></trkpt>
<trkpt lat="46.78962" lon="6.52497"><ele>629.2</ele><time>2015-11-10T14:40:10Z</time></trkpt>
<trkpt lat="46.78954" lon="6.52501"><ele>628.8</ele><time>2015-11-10T14:40:24Z</time></trkpt>
<trkpt lat="46.78959" lon="6.52508"><ele>628.6</ele><time>2015-11-10T14:40:39Z</time></trkpt>
<trkpt lat="46.78958" lon="6.52507"><ele>628.2</ele><time>2015-11-10T14:40:42Z</time></trkpt>
</trkseg></trk></gpx>